[[{"header":{"parameterUnit":"m.s-1","parameterCategory":1,"la1":31.0,"la2":29.5877,"lo1":-88.7671,"lo2":-86.6584,"dy":0.0162,"dx":0.0185,"nx":115,"ny":88,"refTime":"2023-08-29T06:00:00:Z","depth":0,"parameterNumber":2,"parameterNumberName":"U-component_of_WINDS"},"data":[0.0,0.0,0.0,0.0,0.0,0.0,0.0,0.0,0.0,0.0,0.0,0.0,0.0,0.0,0.0,0.0,0.0,0.0,0.0,0.0,0.0,0.0,0.0,0.0,0.0,0.0,0.0,0.0,0.0,0.0,0.0,0.0,0.0,0.0,0.0,0.0,0.0,0.0,0.0,0.0,0.0,0.0,0.0,0.0,0.0,0.0,0.0,0.0,0.0,0.0,0.0,0.0,0.0,0.0,0.0,0.0,0.0,0.0,0.0,0.0,0.0,0.0,0.0,0.0,0.0,0.0,0.0,0.0,0.0,0.0,0.0,0.0,0.0,0.0,0.0,0.0,0.0,0.0,0.0,0.0,0.0,0.0,0.0,0.0,0.0,0.0,0.0,0.0,0.0,0.0,0.0,0.0,0.0,0.0,0.0,0.0,0.0,0.0,0.0,0.0,0.0,0.0,0.0,0.0,0.0,0.0,0.0,0.0,0.0,0.0,0.0,0.0,0.0,0.0,0.0,0.0,0.0,0.0,0.0,0.0,0.0,0.0,0.0,0.0,0.0,0.0,0.0,0.0,0.0,0.0,0.0,0.0,0.0,0.0,0.0,0.0,0.0,0.0,0.0,0.0,0.0,0.0,0.0,0.0,0.0,0.0,0.0,0.0,0.0,0.0,0.0,0.0,0.0,0.0,0.0,0.0,0.0,0.0,0.0,0.0,0.0,0.0,0.0,0.0,0.0,0.0,0.0,0.0,0.0,0.0,0.0,0.0,0.0,0.0,0.0,0.0,0.0,0.0,0.0,0.0,0.0,0.0,0.0,0.0,0.0,0.0,0.0,0.0,0.0,0.0,0.0,0.0,0.0,0.0,0.0,0.0,0.0,0.0,0.0,0.0,0.0,0.0,0.0,0.0,0.0,0.0,0.0,0.0,0.0,0.0,0.0,0.0,0.0,0.0,0.0,0.0,0.0,0.0,0.0,0.0,0.0,0.0,0.0,0.0,0.0,0.0,0.0,0.0,0.0,0.0,0.0,0.0,0.0,0.0,0.0,0.0,0.0,0.0,0.0,0.0,0.0,0.0,0.0,0.0,0.0,0.0,0.0,0.0,0.0,0.0,0.0,0.0,0.0,0.0,0.0,0.0,0.0,0.0,0.0,0.0,0.0,0.0,0.0,0.0,0.0,0.0,0.0,0.0,0.0,0.0,0.0,0.0,0.0,0.0,0.0,0.0,0.0,0.0,0.0,0.0,0.0,0.0,0.0,0.0,0.0,0.0,0.0,0.0,0.0,0.0,0.0,0.0,0.0,0.0,0.0,0.0,0.0,0.0,0.0,0.0,0.0,0.0,0.0,0.0,0.0,0.0,0.0,0.0,0.0,0.0,0.0,0.0,0.0,0.0,0.0,0.0,0.0,0.0,0.0,0.0,0.0,0.0,0.0,0.0,0.0,0.0,0.0,0.0,0.0,0.0,0.0,0.0,0.0,0.0,0.0,0.0,0.0,0.0,0.0,0.0,0.0,0.0,0.0,0.0,0.0,0.0,0.0,0.0,0.0,0.0,0.0,0.0,0.0,0.0,0.0,0.0,0.0,0.0,0.0,0.0,0.0,0.0,0.0,0.0,0.0,0.0,0.0,0.0,0.0,0.0,0.0,0.0,0.0,0.0,0.0,0.0,0.0,0.0,0.0,0.0,0.0,0.0,0.0,0.0,0.0,0.0,0.0,0.0,0.0,0.0,0.0,0.0,0.0,0.0,0.0,0.0,0.0,0.0,0.0,0.0,0.0,0.0,0.0,0.0,0.0,0.0,0.0,0.0,0.0,0.0,0.0,0.0,0.0,0.0,0.0,0.0,0.0,0.0,0.0,0.0,0.0,0.0,0.0,0.0,0.0,0.0,0.0,0.0,0.0,0.0,0.0,0.0,0.0,0.0,0.0,0.0,0.0,0.0,0.0,0.0,0.0,0.0,0.0,0.0,0.0,0.0,0.0,0.0,0.0,0.0,0.0,0.0,0.0,0.0,0.0,0.0,0.0,0.0,0.0,0.0,0.0,0.0,0.0,0.0,0.0,0.0,0.0,0.0,0.0,0.0,0.0,0.0,0.0,0.0,0.0,0.0,0.0,0.0,0.0,0.0,0.0,0.0,0.0,0.0,0.0,0.0,0.0,0.0,0.0,0.0,0.0,0.0,0.0,0.0,0.0,0.0,0.0,0.0,0.0,0.0,0.0,0.0,0.0,0.0,0.0,0.0,0.0,0.0,0.0,0.0,0.0,0.0,0.0,0.0,0.0,0.0,0.0,0.0,0.0,0.0,0.0,0.0,0.0,0.0,0.0,0.0,0.0,0.0,0.0,0.0,0.0,0.0,0.0,0.0,0.0,0.0,0.0,0.0,0.0,0.0,0.0,0.0,0.0,0.0,0.0,0.0,0.0,0.0,0.0,0.0,0.0,0.0,0.0,0.0,0.0,0.0,0.0,0.0,0.0,0.0,0.0,0.0,0.0,0.0,0.0,0.0,0.0,0.0,0.0,0.0,0.0,0.0,0.0,0.0,0.0,0.0,0.0,0.0,0.0,0.0,0.0,0.0,0.0,0.0,0.0,0.0,0.0,0.0,0.0,0.0,0.0,0.0,0.0,0.0,0.0,0.0,0.0,0.0,0.0,0.0,0.0,0.0,0.0,0.0,0.0,0.0,0.0,0.0,0.0,0.0,0.0,0.0,0.0,0.0,0.0,0.0,0.0,0.0,0.0,0.0,0.0,0.0,0.0,0.0,0.0,0.0,0.0,0.0,0.0,0.0,0.0,0.0,0.0,0.0,0.0,0.0,0.0,0.0,0.0,0.0,0.0,0.0,0.0,0.0,0.0,0.0,0.0,0.0,0.0,0.0,0.0,0.0,0.0,0.0,0.0,0.0,0.0,0.0,0.0,0.0,0.0,0.0,0.0,0.0,0.0,0.0,0.0,0.0,0.0,0.0,0.0,0.0,0.0,0.0,0.0,0.0,0.0,0.0,0.0,0.0,0.0,0.0,0.0,0.0,0.0,0.0,0.0,0.0,0.0,0.0,0.0,0.0,0.0,0.0,0.0,0.0,0.0,0.0,0.0,0.0,0.0,0.0,0.0,0.0,0.0,0.0,0.0,0.0,0.0,0.0,0.0,0.0,0.0,0.0,0.0,0.0,0.0,0.0,0.0,0.0,0.0,0.0,0.0,0.0,0.0,0.0,0.0,0.0,0.0,0.0,0.0,0.0,0.0,0.0,0.0,0.0,0.0,0.0,0.0,0.0,0.0,0.0,0.0,0.0,0.0,0.0,0.0,0.0,0.0,0.0,0.0,0.0,0.0,0.0,0.0,0.0,0.0,0.0,0.0,0.0,0.0,0.0,0.0,0.0,0.0,0.0,0.0,0.0,0.0,0.0,0.0,0.0,0.0,0.0,0.0,0.0,0.0,0.0,0.0,0.0,0.0,0.0,0.0,0.0,0.0,0.0,0.0,0.0,0.0,0.0,0.0,0.0,0.0,0.0,0.0,0.0,0.0,0.0,0.0,0.0,0.0,0.0,0.0,0.0,0.0,0.0,0.0,0.0,0.0,0.0,0.0,0.0,0.0,0.0,0.0,0.0,0.0,0.0,0.0,0.0,0.0,0.0,0.0,0.0,0.0,0.0,0.0,0.0,0.0,0.0,0.0,0.0,0.0,0.0,0.0,0.0,0.0,0.0,0.0,0.0,0.0,0.0,0.0,0.0,0.0,0.0,0.0,0.0,0.0,0.0,0.0,0.0,0.0,0.0,0.0,0.0,0.0,0.0,0.0,0.0,0.0,0.0,0.0,0.0,0.0,0.0,0.0,0.0,0.0,0.0,0.0,0.0,0.0,0.0,0.0,0.0,0.0,0.0,0.0,0.0,0.0,0.0,0.0,0.0,0.0,0.0,0.0,0.0,0.0,0.0,0.0,0.0,0.0,0.0,0.0,0.0,0.0,0.0,0.0,0.0,0.0,0.0,0.0,0.0,0.0,0.0,0.0,0.0,0.0,0.0,0.0,0.0,0.0,0.0,0.0,0.0,0.0,0.0,0.0,0.0,0.0,0.0,0.0,0.0,0.0,0.0,0.0,0.0,0.0,0.0,0.0,0.0,0.0,0.0,0.0,0.0,0.0,0.0,0.0,0.0,0.0,0.0,0.0,0.0,0.0,0.0,0.0,0.0,0.0,0.0,0.0,0.0,0.0,0.0,0.0,0.0,0.0,0.0,0.0,0.0,0.0,0.0,0.0,0.0,0.0,0.0,1.1301,0.0,0.0,0.0,0.0,0.0,0.0,0.0,0.0,0.0,0.0,0.0,0.0,0.0,0.0,0.0,0.0,0.0,0.0,0.0,0.0,0.0,0.0,0.0,0.0,0.0,0.0,0.0,0.0,0.0,0.0,0.0,0.0,0.0,0.0,0.0,0.0,0.0,0.0,0.0,0.0,0.0,0.0,0.0,0.0,0.0,0.0,0.0,0.0,0.0,0.0,0.0,0.0,0.0,0.0,0.0,0.0,0.0,0.0,0.0,0.0,0.0,0.0,0.0,0.0,0.0,0.0,0.0,0.0,0.0,0.0,0.0,0.0,0.0,0.0,0.0,0.0,0.0,0.0,0.0,0.0,0.0,0.0,0.0,0.0,0.0,0.0,0.0,0.0,0.0,0.0,0.0,0.0,0.0,0.0,0.0,0.0,0.0,0.0,0.0,0.0,0.0,0.0,0.0,0.0,0.0,0.0,0.0,0.0,0.0,0.0,1.1301,1.1301,1.1301,1.1301,1.1301,0.0,0.0,0.0,0.0,0.0,0.0,0.0,0.0,0.0,0.0,0.0,0.0,0.0,0.0,0.0,0.0,0.0,0.0,0.0,0.0,0.0,0.0,0.0,0.0,0.0,0.0,0.0,0.0,0.0,0.0,0.0,0.0,0.0,0.0,0.0,0.0,0.0,0.0,0.0,0.0,0.0,0.0,0.0,0.0,0.0,0.0,0.0,0.0,0.0,0.0,0.0,0.0,0.0,0.0,0.0,0.0,0.0,0.0,0.0,0.0,0.0,0.0,0.0,0.0,0.0,0.0,0.0,0.0,0.0,0.0,0.0,0.0,0.0,0.0,0.0,0.0,0.0,0.0,0.0,0.0,0.0,0.0,0.0,0.0,0.0,0.0,0.0,0.0,0.0,0.0,0.0,0.0,0.0,0.0,0.0,0.0,0.0,0.0,0.0,0.0,0.0,0.0,0.0,0.0,0.0,0.0,0.0,0.0,0.0,0.0,0.0,0.0,1.1301,1.1301,1.1251,0.0,0.0,0.0,0.0,0.0,0.0,0.0,0.0,0.0,0.0,0.0,0.0,0.0,0.0,0.0,0.0,0.0,0.0,0.0,0.0,0.0,0.0,0.0,0.0,0.0,0.0,0.0,0.0,0.0,0.0,0.0,0.0,0.0,0.0,0.0,0.0,0.0,0.0,0.0,0.0,0.0,0.0,0.0,0.0,0.0,0.0,0.0,0.0,0.0,0.0,0.0,0.0,0.0,0.0,0.0,0.0,0.0,0.0,0.0,0.0,0.0,0.0,0.0,0.0,0.0,0.0,0.0,0.0,0.0,0.0,0.0,0.0,0.0,0.0,0.0,0.0,0.0,0.0,0.0,0.0,0.0,0.0,0.0,0.0,0.0,0.0,0.0,0.0,0.0,0.0,0.0,0.0,0.0,0.0,0.0,0.0,0.0,0.0,0.0,0.0,0.0,0.0,0.0,0.0,0.0,0.0,0.0,0.0,0.0,0.0,1.1301,1.1301,1.1301,0.0,1.1124,0.0,0.0,0.0,0.0,0.0,0.0,0.0,0.0,0.0,0.0,0.0,0.0,0.0,0.0,0.0,0.0,0.0,0.0,0.0,0.0,0.0,0.0,0.0,0.0,0.0,0.0,0.0,0.0,0.0,0.0,0.0,0.0,0.0,0.0,0.0,0.0,0.0,0.0,0.0,0.0,0.0,0.0,0.0,0.0,0.0,0.0,0.0,0.0,0.0,0.0,0.0,0.0,0.0,0.0,0.0,0.0,0.0,0.0,0.0,0.0,0.0,0.0,0.0,0.0,0.0,0.0,0.0,0.0,0.0,0.0,0.0,0.0,0.0,0.0,0.0,0.0,0.0,0.0,0.0,0.0,0.0,0.0,0.0,0.0,0.0,0.0,0.0,0.0,0.0,0.0,0.0,0.0,0.0,0.0,0.0,0.0,0.0,0.0,0.0,0.0,0.0,0.0,0.0,0.0,0.0,0.0,0.0,0.0,0.0,0.0,1.1301,1.1301,1.1217,1.1124,0.0,0.0,0.0,0.0,0.0,0.0,0.0,0.0,0.0,0.0,0.0,0.0,0.0,0.0,0.0,0.0,0.0,0.0,0.0,0.0,0.0,0.0,0.0,0.0,0.0,0.0,0.0,0.0,0.0,0.0,0.0,0.0,0.0,0.0,0.0,0.0,0.0,0.0,0.0,0.0,0.0,0.0,0.0,0.0,0.0,0.0,0.0,0.0,0.0,0.0,0.0,0.0,0.0,0.0,0.0,0.0,0.0,0.0,0.0,0.0,0.0,0.0,0.0,0.0,0.0,0.0,0.0,0.0,0.0,0.0,0.0,0.0,0.0,0.0,0.0,0.0,0.0,0.0,0.0,0.0,0.0,0.0,0.0,0.0,0.0,0.0,0.0,0.0,0.0,0.0,0.0,0.0,0.0,0.0,0.0,0.0,0.0,0.0,0.0,0.0,0.0,0.0,0.0,0.0,0.0,0.0,0.0,0.0,0.0,0.0,1.12,1.12,1.12,1.1049,1.0955,1.0845,0.0,0.0,0.0,0.0,0.0,0.0,0.0,0.0,0.0,0.0,0.0,0.0,0.0,0.0,0.0,0.0,0.0,0.0,0.0,0.0,0.0,0.0,0.0,0.0,0.0,0.0,0.0,0.0,0.0,0.0,0.0,0.0,0.0,0.0,0.0,0.0,0.0,0.0,0.0,0.0,0.0,0.0,0.0,0.0,0.0,0.0,0.0,0.0,0.0,0.0,0.0,0.0,0.0,0.0,0.0,0.0,0.0,0.0,0.0,0.0,0.0,0.0,0.0,0.0,0.0,0.0,0.0,0.0,0.0,0.0,0.0,0.0,0.0,0.0,0.0,0.0,0.0,0.0,0.0,0.0,0.0,0.0,0.0,0.0,0.0,0.0,0.0,0.0,0.0,0.0,0.0,0.0,0.0,0.0,0.0,0.0,0.0,0.0,0.0,0.0,0.0,0.0,0.0,0.0,0.0,0.0,0.0,0.0,1.0922,1.093,1.093,1.093,1.0769,1.0726,0.0,0.0,0.0,0.0,0.0,0.0,0.0,0.0,0.0,0.0,0.0,0.0,0.0,0.0,0.0,0.0,0.0,0.0,0.0,0.0,0.0,0.0,0.0,0.0,0.0,0.0,0.0,0.0,0.0,0.0,0.0,0.0,0.0,0.0,0.0,0.0,0.0,0.0,0.0,0.0,0.0,0.0,0.0,0.0,0.0,0.0,0.0,0.0,0.0,0.0,0.0,0.0,0.0,0.0,0.0,0.0,0.0,0.0,0.0,0.0,0.0,0.0,0.0,0.0,0.0,0.0,0.0,0.0,0.0,0.0,0.0,0.0,0.0,0.0,0.0,0.0,0.0,0.0,0.0,0.0,0.0,0.0,0.0,0.0,0.0,0.0,0.0,0.0,0.0,0.0,0.0,0.0,0.0,0.0,0.0,0.0,0.0,0.0,0.0,0.0,0.0,0.0,0.0,0.0,0.0,0.0,0.0,0.0,0.0,1.0905,1.1102,1.12,1.1094,1.1042,1.0936,0.0,0.0,0.0,0.0,0.0,0.0,0.0,0.0,0.0,0.0,0.0,0.0,0.0,0.0,0.0,0.0,0.0,0.0,0.0,0.0,0.0,0.0,0.0,0.0,0.0,0.0,0.0,0.0,0.0,0.0,0.0,0.0,0.0,0.0,0.0,0.0,0.0,0.0,0.0,0.0,0.0,0.0,0.0,0.0,0.0,0.0,0.0,0.0,0.0,0.0,0.0,0.0,0.0,0.0,0.0,0.0,0.0,0.0,0.0,0.0,0.0,0.0,0.0,0.0,0.0,0.0,0.0,0.0,0.0,0.0,0.0,0.0,0.0,0.0,0.0,0.0,0.0,0.0,0.0,0.0,0.0,0.0,0.0,0.0,0.0,0.0,0.0,0.0,0.0,0.0,0.0,0.0,0.0,0.0,0.0,0.0,0.0,0.0,0.0,0.0,0.0,0.0,0.0,0.0,0.0,0.0,0.0,0.0,0.0,1.0624,0.0,1.1075,1.0968,1.0968,1.0887,0.0,0.0,0.0,0.0,0.0,0.0,0.0,0.0,0.0,0.0,0.0,0.0,0.0,0.0,0.0,0.0,0.0,0.0,0.0,0.0,0.0,0.0,0.0,0.0,0.0,0.0,0.0,0.0,0.0,0.0,0.0,0.0,0.0,0.0,0.0,0.0,0.0,0.0,0.0,0.0,0.0,0.0,0.0,0.0,0.0,0.0,0.0,0.0,0.0,0.0,0.0,0.0,0.0,0.0,0.0,0.0,0.0,0.0,0.0,0.0,0.0,0.0,0.0,0.0,0.0,0.0,0.0,0.0,0.0,0.0,0.0,0.0,0.0,0.0,0.0,0.0,0.0,0.0,0.0,0.0,0.0,0.0,0.0,0.0,0.0,0.0,0.0,0.0,0.0,0.0,0.0,0.0,0.0,0.0,0.0,0.0,0.0,0.0,0.0,0.0,0.0,0.0,0.0,0.0,0.0,0.0,0.0,0.0,1.0195,1.0048,1.0348,1.0538,1.0515,1.0546,1.053,0.0,0.0,0.0,0.0,0.0,0.0,0.0,0.0,0.0,0.0,0.0,0.0,0.0,0.0,0.0,0.0,0.0,0.0,0.0,0.0,0.0,0.0,0.0,0.0,0.0,0.0,0.0,0.0,0.0,0.0,0.0,0.0,0.0,0.0,0.0,0.0,0.0,0.0,0.0,0.0,0.0,0.0,0.0,0.0,0.0,0.0,0.0,0.0,0.0,0.0,0.0,0.0,0.0,0.0,0.0,0.0,0.0,0.0,0.0,0.0,0.0,0.0,0.0,0.0,0.0,0.0,0.0,0.0,0.0,0.0,0.0,0.0,0.0,0.0,0.0,0.0,0.0,0.0,0.0,0.0,0.0,0.0,0.0,0.0,0.0,0.0,0.0,0.0,0.0,0.0,0.0,0.0,0.0,0.0,0.0,0.0,0.0,0.0,0.0,0.0,0.0,0.0,0.0,0.0,0.0,0.0,0.0,0.0,0.0,1.0187,1.0446,1.0657,1.0842,1.0857,1.0754,0.0,0.0,0.0,0.0,0.0,0.0,0.0,0.0,0.0,0.0,0.0,0.0,0.0,0.0,0.0,0.0,0.0,0.0,0.0,0.0,0.0,0.0,0.0,0.0,0.0,0.0,0.0,0.0,0.0,0.0,0.0,0.0,0.0,0.0,0.0,0.0,0.0,0.0,0.0,0.0,0.0,0.0,0.0,0.0,0.0,0.0,0.0,0.0,0.0,0.0,0.0,0.0,0.0,0.0,0.0,0.0,0.0,0.0,0.0,0.0,0.0,0.0,0.0,0.0,0.0,0.0,0.0,0.0,0.0,0.0,0.0,0.0,0.0,0.0,0.0,0.0,0.0,0.0,0.0,0.0,0.0,0.0,0.0,0.0,0.0,0.0,0.0,0.0,0.0,0.0,0.0,0.0,0.0,0.0,0.0,0.0,0.0,0.0,0.0,0.0,0.0,0.0,0.0,0.0,0.0,0.0,0.0,0.0,0.0,0.9701,1.0059,1.0399,1.0643,1.071,1.0621,1.0344,0.0,0.0,0.0,0.0,0.0,0.0,0.0,0.0,0.0,0.0,0.0,0.0,0.0,0.0,0.0,0.0,0.0,0.0,0.0,0.0,0.0,0.0,0.0,0.0,0.0,0.0,0.0,0.0,0.0,0.0,0.0,0.0,0.0,0.0,0.0,0.0,0.0,0.0,0.0,0.0,0.0,0.0,0.0,0.0,0.0,0.0,0.0,0.0,0.0,0.0,0.0,0.0,0.0,0.0,0.0,0.0,0.0,0.0,0.0,0.0,0.0,0.0,0.0,0.0,0.0,0.0,0.0,0.0,0.0,0.0,0.0,0.0,0.0,0.0,0.0,0.0,0.0,0.0,0.0,0.0,0.0,0.0,0.0,0.0,0.0,0.0,0.0,0.0,0.0,0.0,0.0,0.0,0.0,0.0,0.0,0.0,0.0,0.0,0.0,0.0,0.0,0.0,0.0,0.0,0.0,0.0,0.0,0.0,0.8669,0.9291,0.9764,1.0042,1.0201,1.0136,0.0,0.0,0.0,0.0,0.0,0.0,0.0,0.0,0.0,0.0,0.0,0.0,0.0,0.0,0.0,0.0,0.0,0.0,0.0,0.0,0.0,0.0,0.0,0.0,0.0,0.0,0.0,0.0,0.0,0.0,0.0,0.0,0.0,0.0,0.0,0.0,0.0,0.0,0.0,0.0,0.0,0.0,0.0,0.0,0.0,0.0,0.0,0.0,0.0,0.0,0.0,0.0,0.0,0.0,0.0,0.0,0.0,0.0,0.0,0.0,0.0,0.0,0.0,0.0,0.0,0.0,0.0,0.0,0.0,0.0,0.0,0.0,0.0,0.0,0.0,0.0,0.0,0.0,0.0,0.0,0.0,0.0,0.0,0.0,0.0,0.0,0.0,0.0,0.0,0.0,0.0,0.0,0.0,0.0,0.0,0.0,0.0,0.0,0.0,0.0,0.0,0.0,0.0,0.0,0.0,0.0,0.0,0.0,0.0,0.8271,0.8415,0.8842,0.9479,0.9781,0.9765,0.0,0.0,0.0,0.0,0.0,0.0,0.0,0.0,0.0,0.0,0.0,0.0,0.0,0.0,0.0,0.0,0.0,0.0,0.0,0.0,0.0,0.0,0.0,0.0,0.0,0.0,0.0,0.0,0.0,0.0,0.0,0.0,0.0,0.0,0.0,0.0,0.0,0.0,0.0,0.0,0.0,0.0,0.0,0.0,0.0,0.0,0.0,0.0,0.0,0.0,0.0,0.0,0.0,0.0,0.0,0.0,0.0,0.0,0.0,0.0,0.0,0.0,0.0,0.0,0.0,0.0,0.0,0.0,0.0,0.0,0.0,0.0,0.0,0.0,0.0,0.0,0.0,0.0,0.0,0.0,0.0,0.0,0.0,0.0,0.0,0.0,0.0,0.0,0.0,0.0,0.0,0.0,0.0,0.0,0.0,0.0,0.0,0.0,0.0,0.0,0.0,0.0,0.0,0.0,0.0,0.0,0.0,0.0,0.7556,0.7483,0.7703,0.8005,0.8269,0.9055,0.9257,0.0,0.0,0.0,0.0,0.0,0.0,0.0,0.0,0.0,0.0,0.0,0.0,0.0,0.0,0.0,0.0,0.0,0.0,0.0,0.0,0.0,0.0,0.0,0.0,0.0,0.0,0.0,0.0,0.0,0.0,0.0,0.0,0.0,0.0,0.0,0.0,0.0,0.0,0.0,0.0,0.0,0.0,0.0,0.0,0.0,0.0,0.0,0.0,0.0,0.0,0.0,0.0,0.0,0.0,0.0,0.0,0.0,0.0,0.0,0.0,0.0,0.0,0.0,0.0,0.0,0.0,0.0,0.0,0.0,0.0,0.0,0.0,0.0,0.0,0.0,0.0,0.0,0.0,0.0,0.0,0.0,0.0,0.0,0.0,0.0,0.0,0.0,0.0,0.0,0.0,0.0,0.0,0.0,0.0,0.0,0.0,0.0,0.0,0.0,0.0,0.0,0.0,0.0,0.0,0.0,0.0,0.0,0.0,0.6981,0.6579,0.7104,0.7199,0.6876,0.8177,0.8657,0.0,0.0,0.0,0.0,0.0,0.0,0.0,0.0,0.0,0.0,0.0,0.0,0.0,0.0,0.0,0.0,0.0,0.0,0.0,0.0,0.0,0.0,0.0,0.0,0.0,0.0,0.0,0.0,0.0,0.0,0.0,0.0,0.0,0.0,0.0,0.0,0.0,0.0,0.0,0.0,0.0,0.0,0.0,0.0,0.0,0.0,0.0,0.0,0.0,0.0,0.0,0.0,0.0,0.0,0.0,0.0,0.0,0.0,0.0,0.0,0.0,0.0,0.0,0.0,0.0,0.0,0.0,0.0,0.0,0.0,0.0,0.0,0.0,0.0,0.0,0.0,0.0,0.0,0.0,0.0,0.0,0.0,0.0,0.0,0.0,0.0,0.0,0.0,0.0,0.0,0.0,0.0,0.0,0.0,0.0,0.0,0.0,0.0,0.0,0.0,0.0,0.0,0.0,0.0,0.0,0.0,0.0,0.0,0.6436,0.631,0.6527,0.6544,0.6379,0.7554,0.7996,0.0,0.0,0.0,0.0,0.0,0.0,0.0,0.0,0.0,0.0,0.0,0.0,0.0,0.0,0.0,0.0,0.0,0.0,0.0,0.0,0.0,0.0,0.0,0.0,0.0,0.0,0.0,0.0,0.0,0.0,0.0,0.0,0.0,0.0,0.0,0.0,0.0,0.0,0.0,0.0,0.0,0.0,0.0,0.0,0.0,0.0,0.0,0.0,0.8627,0.0,0.0,0.0,0.0,0.0,0.0,0.0,0.0,0.0,0.0,0.0,0.0,0.0,0.0,0.0,0.0,0.0,0.0,0.0,0.0,0.0,0.0,0.0,0.0,0.0,0.0,0.0,0.0,0.0,0.0,0.0,0.0,0.0,0.0,0.0,0.0,0.0,0.0,0.0,0.0,0.0,0.0,0.0,0.0,0.0,0.0,0.0,0.0,0.0,0.0,0.0,0.0,0.0,0.0,0.0,0.0,0.0,0.0,0.0,0.5926,0.5807,0.5892,0.5855,0.5716,0.6539,0.6944,0.0,0.0,0.0,0.0,0.0,0.0,0.0,0.0,0.0,0.0,0.0,0.0,0.0,0.0,0.0,0.0,0.0,0.0,0.0,0.0,0.0,0.0,0.0,0.0,0.0,0.0,0.0,0.0,0.0,0.0,0.0,0.0,0.0,0.0,0.0,0.0,0.0,0.0,0.0,0.0,0.0,0.0,0.0,0.0,0.0,0.0,0.0,0.0,0.0,0.0,0.0,0.0,0.0,0.0,0.0,0.0,0.0,0.0,0.0,0.0,0.0,0.0,0.0,0.0,0.0,0.0,0.0,0.0,0.0,0.0,0.0,0.0,0.0,0.0,0.0,0.0,0.0,0.0,0.0,0.0,0.0,0.0,0.0,0.0,0.0,0.0,0.0,0.0,0.0,0.0,0.0,0.0,0.0,0.0,0.0,0.0,0.0,0.0,0.0,0.0,0.0,0.0,0.0,0.0,0.0,0.0,0.0,0.5713,0.5417,0.5245,0.5249,0.5193,0.5054,0.5488,0.5864,0.6082,0.0,0.0,0.0,0.0,0.0,0.0,0.0,0.0,0.0,0.0,0.0,0.0,0.0,0.0,0.0,0.0,0.0,0.0,0.0,0.0,0.0,0.0,0.0,0.0,0.0,0.0,0.0,0.0,0.0,0.0,0.0,0.0,0.0,0.0,0.0,0.0,0.0,0.0,0.6072,0.6925,0.0,0.0,0.0,0.0,0.0,0.0,0.0,0.0,0.8861,0.0,0.0,0.0,0.0,0.0,0.0,0.0,0.0,0.0,0.0,0.0,0.0,0.0,0.0,0.0,0.0,0.0,0.0,0.0,0.0,0.0,0.0,0.0,0.0,0.0,0.0,0.0,0.0,0.0,0.0,0.0,0.0,0.0,0.0,0.0,0.0,0.0,0.0,0.0,0.0,0.0,0.0,0.0,0.0,0.0,0.0,0.0,0.0,0.0,0.0,0.0,0.0,0.0,0.0,0.0,0.0,0.5304,0.512,0.4875,0.4586,0.4668,0.4728,0.4691,0.4864,0.5029,0.5152,0.0,0.0,0.0,0.0,0.0,0.0,0.0,0.0,0.0,0.0,0.0,0.0,0.0,0.0,0.0,0.0,0.0,0.0,0.0,0.0,0.0,0.0,0.0,0.0,0.0,0.0,0.0,0.0,0.0,0.0,0.0,0.0,0.0,0.0,0.0,0.0,0.0,0.0,0.0,0.6911,0.7344,0.0,0.0,0.0,0.0,0.0,0.0,0.0,0.0,0.8166,0.0,0.0,0.0,0.0,0.0,0.0,0.0,0.0,0.0,0.0,0.0,0.0,0.0,0.0,0.0,0.0,0.0,0.0,0.0,0.0,0.0,0.0,0.0,0.0,0.0,0.0,0.0,0.0,0.0,0.0,0.0,0.0,0.0,0.0,0.0,0.0,0.0,0.0,0.0,0.0,0.0,0.0,0.0,0.0,0.0,0.0,0.0,0.0,0.0,0.0,0.0,0.0,0.0,0.0,0.0,0.4995,0.4611,0.436,0.4235,0.4143,0.4101,0.4187,0.4334,0.4475,0.0,0.0,0.0,0.0,0.0,0.0,0.0,0.0,0.0,0.0,0.0,0.0,0.0,0.0,0.0,0.0,0.0,0.0,0.0,0.0,0.0,0.0,0.0,0.0,0.0,0.0,0.0,0.0,0.0,0.0,0.0,0.0,0.0,0.0,0.0,0.0,0.0,0.0,0.0,0.0,0.6731,0.7055,0.708,0.0,0.0,0.0,0.0,0.0,0.0,0.7722,0.7728,0.0,0.0,0.0,0.0,0.0,0.0,0.0,0.0,0.0,0.0,0.0,0.0,0.0,0.0,0.0,0.0,0.0,0.0,0.0,0.0,0.0,0.0,0.0,0.0,0.0,0.0,0.0,0.0,0.0,0.0,0.0,0.0,0.0,0.0,0.0,0.0,0.0,0.0,0.0,0.0,0.0,0.0,0.0,0.0,0.0,0.0,0.0,0.0,0.0,0.0,0.0,0.0,0.0,0.0,0.0,0.4719,0.4204,0.3909,0.3877,0.3661,0.3583,0.3689,0.384,0.3961,0.0,0.0,0.0,0.0,0.0,0.0,0.0,0.0,0.0,0.0,0.0,0.0,0.0,0.0,0.0,0.0,0.0,0.0,0.0,0.0,0.0,0.0,0.0,0.0,0.0,0.0,0.0,0.0,0.0,0.0,0.0,0.0,0.0,0.0,0.0,0.0,0.0,0.0,0.0,0.0,0.0,0.6777,0.6795,0.7108,0.0,0.0,0.0,0.0,0.7348,0.7391,0.0,0.0,0.0,0.0,0.0,0.0,0.0,0.0,0.0,0.0,0.0,0.0,0.0,0.0,0.0,0.0,0.0,0.0,0.0,0.0,0.0,0.0,0.0,0.0,0.0,0.0,0.0,0.0,0.0,0.0,0.0,0.0,0.0,0.0,0.0,0.0,0.0,0.0,0.0,0.0,0.0,0.0,0.0,0.0,0.0,0.0,0.0,0.0,0.0,0.0,0.0,0.0,0.0,0.0,0.0,0.0,0.4104,0.3932,0.3589,0.3148,0.3205,0.3257,0.3266,0.3285,0.3476,0.0,0.0,0.0,0.0,0.0,0.0,0.0,0.0,0.0,0.0,0.0,0.0,0.0,0.0,0.0,0.0,0.0,0.0,0.0,0.0,0.0,0.0,0.0,0.0,0.0,0.0,0.0,0.0,0.0,0.0,0.0,0.0,0.0,0.0,0.0,0.0,0.0,0.0,0.0,0.0,0.0,0.6594,0.6467,0.6653,0.6769,0.0,0.0,0.6639,0.6933,0.6963,0.0,0.0,0.0,0.0,0.0,0.0,0.0,0.0,0.0,0.0,0.0,0.0,0.0,0.0,0.0,0.0,0.0,0.0,0.0,0.0,0.0,0.0,0.0,0.0,0.0,0.0,0.0,0.0,0.0,0.0,0.0,0.0,0.0,0.0,0.0,0.0,0.0,0.0,0.0,0.0,0.0,0.0,0.0,0.0,0.0,0.0,0.0,0.0,0.0,0.0,0.0,0.0,0.0,0.0,0.0,0.4135,0.3777,0.3434,0.3201,0.2995,0.2979,0.3023,0.3155,0.3171,0.33,0.0,0.0,0.0,0.0,0.0,0.0,0.0,0.0,0.0,0.0,0.0,0.0,0.0,0.0,0.0,0.0,0.0,0.0,0.0,0.0,0.0,0.0,0.0,0.0,0.0,0.0,0.0,0.0,0.0,0.0,0.0,0.0,0.0,0.0,0.0,0.0,0.0,0.0,0.0,0.0,0.0,0.0,0.5959,0.6106,0.0,0.0,0.0,0.6298,0.6436,0.0,0.0,0.0,0.0,0.0,0.0,0.0,0.0,0.0,0.0,0.0,0.0,0.0,0.0,0.0,0.0,0.0,0.0,0.0,0.0,0.0,0.0,0.0,0.0,0.0,0.0,0.0,0.0,0.0,0.0,0.0,0.0,0.0,0.0,0.0,0.0,0.0,0.0,0.0,0.0,0.0,0.0,0.0,0.0,0.0,0.0,0.0,0.0,0.0,0.0,0.0,0.0,0.0,0.0,0.0,0.0,0.0,0.3471,0.3054,0.2875,0.2903,0.2765,0.2779,0.2987,0.3055,0.0,0.0,0.0,0.0,0.0,0.0,0.0,0.0,0.0,0.0,0.0,0.0,0.0,0.0,0.0,0.0,0.0,0.0,0.0,0.0,0.0,0.0,0.0,0.0,0.0,0.0,0.0,0.5326,0.0,0.0,0.0,0.0,0.0,0.0,0.0,0.0,0.0,0.0,0.0,0.0,0.0,0.0,0.5618,0.5437,0.5554,0.5634,0.0,0.0,0.5856,0.6,0.6072,0.62,0.0,0.0,0.0,0.0,0.0,0.0,0.0,0.0,0.0,0.0,0.0,0.0,0.0,0.0,0.0,0.0,0.0,0.0,0.0,0.0,0.0,0.0,0.0,0.0,0.0,0.0,0.0,0.0,0.0,0.0,0.0,0.0,0.0,0.0,0.0,0.0,0.0,0.0,0.0,0.0,0.0,0.0,0.0,0.0,0.0,0.0,0.0,0.0,0.0,0.0,0.0,0.0,0.0,0.0,0.0,0.3132,0.2856,0.2677,0.2616,0.2441,0.2451,0.2718,0.2749,0.2872,0.0,0.0,0.0,0.0,0.0,0.0,0.0,0.0,0.0,0.0,0.0,0.0,0.0,0.0,0.0,0.0,0.0,0.0,0.0,0.0,0.0,0.0,0.0,0.0,0.0,0.0,0.0,0.0,0.0,0.0,0.0,0.0,0.0,0.0,0.0,0.0,0.0,0.0,0.0,0.0,0.0,0.5282,0.4894,0.5027,0.5135,0.0,0.0,0.5223,0.5657,0.574,0.572,0.5674,0.0,0.0,0.0,0.0,0.0,0.0,0.0,0.0,0.0,0.0,0.0,0.0,0.0,0.0,0.0,0.0,0.0,0.0,0.0,0.0,0.0,0.0,0.0,0.0,0.0,0.0,0.0,0.0,0.0,0.0,0.0,0.0,0.0,0.0,0.0,0.0,0.0,0.0,0.0,0.0,0.0,0.0,0.0,0.0,0.0,0.0,0.0,0.0,0.0,0.0,0.0,0.0,0.0,0.3132,0.2856,0.2717,0.2557,0.2413,0.2369,0.2431,0.2631,0.2633,0.278,0.0,0.0,0.0,0.0,0.0,0.0,0.0,0.0,0.0,0.0,0.0,0.0,0.0,0.0,0.0,0.0,0.0,0.0,0.0,0.0,0.0,0.0,0.0,0.0,0.0,0.0,0.0,0.0,0.4701,0.4508,0.4239,0.0,0.0,0.0,0.0,0.0,0.0,0.0,0.0,0.0,0.0,0.4625,0.4361,0.4492,0.0,0.0,0.468,0.4895,0.5101,0.5231,0.5257,0.5231,0.5279,0.0,0.0,0.0,0.0,0.0,0.0,0.0,0.0,0.0,0.0,0.0,0.0,0.0,0.0,0.0,0.0,0.0,0.0,0.0,0.0,0.0,0.0,0.0,0.0,0.0,0.0,0.0,0.0,0.0,0.0,0.0,0.0,0.0,0.0,0.0,0.0,0.0,0.0,0.0,0.0,0.0,0.0,0.0,0.0,0.0,0.0,0.0,0.0,0.0,0.0,0.0,0.0,0.2841,0.2588,0.2445,0.2317,0.2209,0.2225,0.2315,0.2479,0.2515,0.2671,0.0,0.0,0.0,0.0,0.0,0.0,0.0,0.0,0.0,0.0,0.0,0.0,0.0,0.0,0.0,0.0,0.0,0.0,0.0,0.0,0.0,0.0,0.0,0.0,0.0,0.0,0.0,0.0,0.3959,0.3735,0.3574,0.0,0.0,0.0,0.0,0.0,0.0,0.0,0.0,0.0,0.0,0.3923,0.3725,0.3885,0.3978,0.3916,0.4162,0.438,0.4488,0.457,0.4654,0.4654,0.0,0.0,0.0,0.0,0.0,0.0,0.0,0.0,0.0,0.0,0.0,0.0,0.0,0.0,0.0,0.0,0.0,0.0,0.0,0.0,0.0,0.0,0.0,0.0,0.0,0.0,0.0,0.0,0.0,0.0,0.7498,0.0,0.0,0.0,0.0,0.0,0.0,0.0,0.0,0.0,0.0,0.0,0.0,0.0,0.0,0.0,0.0,0.0,0.0,0.0,0.0,0.0,0.0,0.2565,0.232,0.2002,0.188,0.1988,0.1898,0.1958,0.2182,0.2353,0.2487,0.2686,0.0,0.0,0.0,0.0,0.0,0.0,0.0,0.0,0.0,0.0,0.0,0.0,0.0,0.0,0.0,0.0,0.0,0.0,0.0,0.0,0.0,0.0,0.0,0.0,0.0,0.0,0.3413,0.3132,0.2933,0.0,0.0,0.0,0.0,0.0,0.0,0.0,0.0,0.0,0.0,0.336,0.3161,0.306,0.32,0.3285,0.3228,0.3456,0.3654,0.3781,0.38,0.3802,0.0,0.0,0.0,0.0,0.0,0.0,0.0,0.0,0.0,0.0,0.0,0.0,0.0,0.0,0.0,0.0,0.0,0.0,0.0,0.0,0.0,0.0,0.0,0.0,0.0,0.0,0.0,0.7149,0.7042,0.0,0.0,0.0,0.0,0.0,0.0,0.0,0.0,0.0,0.0,0.0,0.4098,0.4018,0.0,0.0,0.0,0.0,0.0,0.0,0.0,0.0,0.0,0.0,0.0,0.0,0.2252,0.2034,0.1825,0.1705,0.1675,0.1674,0.1699,0.1782,0.1849,0.1951,0.2151,0.0,0.0,0.0,0.0,0.0,0.0,0.0,0.0,0.0,0.0,0.0,0.0,0.0,0.0,0.0,0.0,0.0,0.0,0.0,0.0,0.0,0.0,0.0,0.0,0.0,0.2717,0.0,0.0,0.0,0.0,0.0,0.0,0.0,0.0,0.0,0.0,0.0,0.2453,0.2452,0.2391,0.2385,0.2456,0.251,0.2575,0.0,0.0,0.0,0.0,0.0,0.0,0.0,0.0,0.0,0.0,0.0,0.0,0.0,0.0,0.3572,0.4186,0.4267,0.4258,0.4227,0.0,0.0,0.0,0.0,0.0,0.0,0.0,0.0,0.0,0.0,0.0,0.0,0.0,0.0,0.635,0.0,0.6128,0.0,0.0,0.0,0.0,0.0,0.0,0.0,0.0,0.3786,0.3456,0.3136,0.3077,0.2966,0.0,0.2684,0.2888,0.0,0.0,0.0,0.0,0.0,0.0,0.0,0.0,0.1857,0.169,0.1468,0.1328,0.1275,0.1298,0.1344,0.1344,0.1378,0.1479,0.1614,0.1748,0.1902,0.0,0.0,0.0,0.0,0.0,0.0,0.0,0.0,0.0,0.0,0.0,0.0,0.0,0.0,0.0,0.0,0.0,0.0,0.0,0.0,0.0,0.0,0.0,0.191,0.0,0.0,0.0,0.0,0.0,0.0,0.0,0.0,0.0,0.1577,0.1511,0.1417,0.1397,0.1455,0.1583,0.1704,0.0,0.0,0.0,0.0,0.0,0.0,0.0,0.208,0.208,0.2095,0.2082,0.213,0.2123,0.2149,0.2124,0.0,0.0,0.3283,0.3448,0.3446,0.3448,0.3448,0.3448,0.3446,0.3448,0.3448,0.0,0.0,0.0,0.0,0.0,0.0,0.0,0.0,0.5526,0.5471,0.0,0.5192,0.0,0.0,0.0,0.0,0.0,0.3877,0.0,0.0,0.2853,0.2497,0.2077,0.2132,0.1969,0.1684,0.1794,0.1749,0.1613,0.2421,0.0,0.0,0.0,0.0,0.0,0.0,0.1346,0.1257,0.0873,0.072,0.0772,0.0773,0.0773,0.0773,0.0941,0.1042,0.1042,0.1042,0.121,0.1546,0.1507,0.0,0.0,0.0,0.0,0.0,0.0,0.0,0.0,0.0,0.0,0.0,0.0,0.0,0.0,0.0,0.0,0.0,0.0,0.0,0.0,0.133,0.0,0.0,0.0,0.0,0.0,0.0,0.0,0.0,0.0,0.0,0.0573,0.0573,0.0442,0.0453,0.0,0.0,0.0,0.0,0.1137,0.1137,0.1199,0.1218,0.1218,0.1218,0.1218,0.1259,0.0,0.0,0.1258,0.1262,0.1273,0.1256,0.1261,0.1512,0.2329,0.2534,0.2575,0.2577,0.2579,0.2573,0.2574,0.2588,0.2501,0.5006,0.0,0.0,0.0,0.0,0.5218,0.5033,0.484,0.4687,0.4653,0.4658,0.4559,0.0,0.0,0.0,0.0,0.0,0.0,0.2548,0.2161,0.1661,0.1382,0.1248,0.108,0.0932,0.0775,0.0816,0.0819,0.0748,0.1017,0.1297,0.161,0.0,0.0,0.0,0.0,0.0757,0.073,0.0365,0.02,0.0235,0.0235,0.0235,0.0202,0.0269,0.0302,0.0336,0.0302,0.047,0.0773,0.0801,0.0,0.0,0.0,0.0,0.0,0.0,0.0,0.0,0.0,0.0,0.0,0.0,0.0,0.0,0.0,0.0,0.0,0.0,0.0,0.0666,0.0418,0.0244,0.0,0.0,0.0,0.0,0.0,0.0,0.0,0.0,0.0,-0.1209,-0.0796,-0.0486,0.0,0.0,-0.0371,-0.0262,-0.0153,-0.0078,-0.0078,-0.0078,0.0,0.0,-0.0039,-0.0039,0.008,0.025,0.0384,0.0387,0.0349,0.0353,0.0355,0.0356,0.0443,0.0706,0.1321,0.1717,0.1762,0.1762,0.1762,0.1763,0.1738,0.1756,0.3702,0.433,0.451,0.4512,0.4388,0.4285,0.4185,0.4046,0.3885,0.381,0.3781,0.3631,0.3592,0.3561,0.3276,0.0,0.0,0.0,0.1671,0.131,0.0756,0.0405,0.0243,0.0035,-0.0144,-0.0291,-0.0291,-0.0291,-0.0255,-0.0291,-0.0108,0.0278,0.0,0.0,0.0538,0.0235,0.0067,-0.0034,-0.0302,-0.0403,-0.0302,-0.0235,-0.0235,-0.0302,-0.0302,-0.0336,-0.0336,-0.0302,-0.0168,0.0168,0.0168,0.0367,0.0,0.0,0.0,0.0,0.0,0.0,0.0,0.0,0.0,0.0,0.0,0.1351,0.1142,0.0,0.0,0.0,0.0146,-0.0147,-0.0479,-0.0617,0.0,0.0,0.0,0.0,0.0,0.0,0.0,-0.1875,-0.2207,-0.2513,-0.2627,-0.226,-0.1878,-0.1589,-0.1484,-0.1366,-0.1304,0.0,-0.1099,-0.1099,-0.1099,-0.1099,-0.1138,-0.1147,-0.1127,-0.0956,-0.0725,-0.0566,-0.0571,-0.0578,-0.0538,-0.0538,-0.0538,-0.0538,-0.0538,-0.009,0.0448,0.0762,0.0852,0.0854,0.0861,0.0871,0.0834,0.2484,0.2715,0.3134,0.3337,0.3406,0.3368,0.3298,0.328,0.3111,0.2983,0.2901,0.2594,0.2436,0.24,0.2151,0.0,0.1689,0.1286,0.0891,0.0474,0.0035,-0.0392,-0.0767,-0.0986,-0.1171,-0.1357,-0.1356,-0.1394,-0.1394,-0.1394,-0.1392,-0.1388,-0.0499,-0.0139,-0.0373,-0.0507,-0.0676,-0.0843,-0.1045,-0.1045,-0.0873,-0.0674,-0.0673,-0.0873,-0.0873,-0.0873,-0.0873,-0.0873,-0.0706,-0.0404,-0.0404,-0.0202,0.0168,0.0,0.0,0.0,0.0,0.0,0.0,0.0,0.0,0.0,0.0,0.0,0.0,0.0,0.0,0.0,-0.0956,0.0,-0.1668,-0.1684,0.0,0.0,0.0,-0.1887,-0.2255,-0.2415,-0.2665,-0.3159,0.0,0.0,-0.3683,-0.376,-0.3515,-0.2803,-0.2464,-0.2332,-0.2305,-0.2194,-0.2037,-0.2078,-0.2078,-0.204,-0.2089,-0.2133,-0.2073,-0.1977,-0.1696,-0.1536,-0.1517,-0.1524,-0.1525,-0.1524,-0.1524,-0.1525,-0.1524,-0.148,-0.1211,-0.0404,-0.0135,-0.009,-0.0092,-0.0093,-0.0093,0.1538,0.157,0.1645,0.2068,0.2734,0.2717,0.2627,0.25,0.2429,0.2294,0.2159,0.2098,0.1876,0.1594,0.1514,0.1229,0.0807,0.053,0.0142,-0.0393,-0.0756,-0.1099,-0.1388,-0.1539,-0.1743,-0.1965,-0.2004,-0.2044,-0.2198,-0.2236,-0.2215,-0.2213,-0.1974,-0.1614,-0.1074,-0.1217,-0.1275,-0.1249,-0.1457,-0.1511,-0.1413,-0.1346,-0.138,-0.1412,-0.1412,-0.1412,-0.1412,-0.1412,-0.1312,-0.1076,-0.1076,-0.0975,-0.0773,-0.0635,0.0,0.0,0.0,0.0,0.0,0.0,0.0,0.0,0.0,-0.0695,-0.0822,0.0,-0.1497,0.0,-0.2011,-0.2259,-0.2356,-0.2419,0.0,0.0,-0.2759,-0.3011,-0.3115,-0.3613,-0.4032,-0.4142,-0.4272,-0.4431,-0.4593,-0.463,-0.4561,-0.4409,-0.3842,-0.3426,-0.3409,-0.3409,-0.337,-0.3331,-0.3333,-0.3394,-0.3378,-0.3252,-0.3131,-0.3077,-0.2772,-0.254,-0.2551,-0.2553,-0.2553,-0.2555,-0.2555,-0.2553,-0.2509,-0.2377,-0.2155,-0.193,-0.148,-0.1038,-0.0875,-0.0842,-0.0809,0.09,0.0781,0.0762,0.098,0.143,0.1787,0.1852,0.1741,0.1667,0.1555,0.1443,0.1243,0.0983,0.0656,0.0692,0.0401,-0.0036,-0.0218,-0.0587,-0.1112,-0.1484,-0.1766,-0.2,-0.2155,-0.2364,-0.2588,-0.2588,-0.2668,-0.2746,-0.2901,-0.2919,-0.2919,-0.2996,-0.2862,-0.241,-0.2174,-0.2062,-0.2104,-0.2114,-0.2086,-0.2055,-0.1928,-0.1918,-0.1951,-0.1951,-0.1951,-0.1951,-0.1951,-0.1884,-0.1715,-0.1681,-0.1648,-0.158,-0.1479,-0.1436,0.0,0.0,0.0,0.0,0.0,0.0,0.0,0.0,0.0,0.0,0.0,-0.2591,-0.2911,-0.312,-0.3294,-0.3434,-0.3488,-0.3537,-0.358,-0.3911,-0.4154,-0.4227,-0.4762,-0.5097,-0.5209,-0.5294,-0.5395,-0.5471,-0.548,-0.5504,-0.5538,-0.5157,-0.4732,-0.4423,-0.4343,-0.4307,-0.4307,-0.4345,-0.4321,-0.4383,-0.424,-0.4092,-0.4001,-0.3735,-0.3539,-0.3537,-0.3537,-0.3539,-0.3539,-0.3403,-0.3358,-0.3314,-0.3138,-0.3006,-0.2917,-0.269,-0.2223,-0.1725,-0.1656,-0.1585,0.0327,0.0163,0.0159,0.0079,-0.0039,0.0654,0.0951,0.1065,0.0837,0.0761,0.0722,0.0297,0.0,-0.0221,-0.0184,-0.0442,-0.0809,-0.092,-0.1267,-0.1713,-0.2094,-0.2347,-0.2588,-0.2746,-0.2943,-0.3141,-0.318,-0.3219,-0.3258,-0.3489,-0.3604,-0.3524,-0.3763,-0.388,-0.3873,-0.3231,-0.2973,-0.3074,-0.2851,-0.2709,-0.2673,-0.2444,-0.2381,-0.2517,-0.2509,-0.247,-0.247,-0.2495,-0.2423,-0.2288,-0.2255,-0.2288,-0.2288,-0.2288,-0.2322,0.0,-0.2322,0.0,0.0,0.0,0.0,0.0,0.0,0.0,0.0,-0.3361,-0.3701,-0.4162,-0.4206,-0.4348,-0.4659,-0.4665,-0.4713,-0.4856,-0.5062,-0.5249,-0.5439,-0.5741,-0.6016,-0.6173,-0.6242,-0.6279,-0.6276,-0.6279,-0.6279,-0.6279,-0.624,-0.597,-0.5389,-0.5196,-0.516,-0.5121,-0.511,-0.5114,-0.5181,-0.5104,-0.4995,-0.4905,-0.4654,-0.4476,-0.4431,-0.4431,-0.4433,-0.4344,-0.4206,-0.4072,-0.4072,-0.3898,-0.3765,-0.3723,-0.3676,-0.3358,-0.2628,-0.2425,-0.2462,-0.046,-0.0501,-0.049,-0.0526,-0.0565,-0.0512,-0.0234,0.0234,0.0195,0.0078,-0.0078,-0.0349,-0.0542,-0.0736,-0.0736,-0.1007,-0.1434,-0.1434,-0.1786,-0.2338,-0.2415,-0.2618,-0.2982,-0.3022,-0.3178,-0.3411,-0.3567,-0.3765,-0.3923,-0.4114,-0.4229,-0.4226,-0.4268,-0.4307,-0.4265,0.0,0.0,0.0,-0.3473,-0.3323,-0.3182,-0.3097,-0.3124,-0.3124,-0.3024,0.0,-0.2986,-0.2925,-0.2788,-0.2621,-0.2621,0.0,0.0,0.0,0.0,0.0,0.0,0.0,0.0,0.0,0.0,0.0,-0.4726,-0.4549,-0.4312,-0.4801,-0.5188,-0.5287,-0.5435,-0.5554,-0.5616,-0.562,-0.5665,-0.5695,-0.5945,-0.6164,-0.6208,-0.6489,-0.6701,-0.6743,-0.6765,-0.6788,-0.6784,-0.6745,-0.6745,-0.6784,-0.6784,-0.6707,-0.6591,-0.6202,-0.5931,-0.5792,-0.5799,-0.588,-0.6005,-0.5956,-0.5863,-0.5813,-0.5589,-0.5408,-0.5238,-0.5191,-0.5102,-0.4966,-0.483,-0.4786,-0.4788,-0.4612,-0.448,-0.4482,-0.4302,-0.3972,-0.3285,-0.3158,-0.3168,-0.1112,0.0,-0.1211,-0.1282,0.0,-0.1471,-0.1292,-0.0997,-0.075,-0.0746,-0.0943,-0.1061,-0.1179,-0.1375,-0.1415,-0.161,-0.2042,-0.2042,-0.2315,-0.2785,-0.2785,-0.2982,-0.3295,-0.3413,-0.3569,-0.3802,-0.3997,-0.419,-0.4389,-0.4579,-0.4732,-0.4851,-0.4932,-0.501,-0.501,-0.4971,-0.467,-0.4038,-0.3979,-0.3895,-0.3821,-0.3739,-0.3715,-0.3676,0.0,0.0,0.0,0.0,0.0,0.0,0.0,0.0,0.0,0.0,0.0,-0.3772,-0.3878,-0.4122,-0.4503,-0.4599,-0.4947,-0.5589,-0.6039,-0.6064,-0.5595,-0.5866,-0.6122,-0.6301,-0.6376,-0.6482,-0.6597,-0.6565,-0.6599,-0.6685,-0.6952,-0.7078,-0.7124,-0.7309,-0.748,-0.748,-0.748,-0.7484,-0.748,-0.7484,-0.7484,-0.748,-0.7484,-0.7484,-0.7442,-0.6938,-0.6535,-0.6506,-0.6586,-0.6711,-0.6774,-0.6786,-0.6697,-0.6523,-0.6349,-0.6166,-0.5947,-0.5902,-0.5855,-0.5722,-0.5636,-0.5547,-0.5502,-0.5282,-0.506,-0.5015,-0.4835,-0.4576,-0.418,-0.393,-0.3634,-0.166,-0.1831,-0.1835,-0.1987,-0.2198,-0.2273,-0.2246,-0.2203,0.0,0.0,0.0,-0.1689,-0.1847,-0.2043,-0.2082,-0.2238,-0.2588,-0.2627,-0.2824,-0.3219,-0.3219,-0.3374,-0.3643,-0.3839,-0.3997,-0.4194,-0.4423,-0.4618,-0.4818,-0.5004,-0.5201,-0.5398,-0.5595,-0.5676,-0.5712,-0.5712,-0.5359,-0.4768,-0.4609,-0.449,-0.4488,-0.4363,-0.4313,-0.4313,-0.4296,-0.4286,-0.4283,-0.4176,-0.4084,-0.4047,-0.3998,-0.3988,-0.4112,-0.4297,-0.448,-0.4604,-0.4759,-0.5015,-0.5411,-0.5502,-0.5818,-0.6433,-0.7069,-0.7224,-0.6729,-0.674,-0.6901,-0.7154,-0.719,-0.7252,-0.743,-0.7447,-0.7468,-0.7583,-0.7748,-0.7859,-0.7859,-0.8021,-0.814,-0.8178,-0.8178,-0.8178,-0.814,-0.814,-0.814,-0.8102,-0.8025,-0.8102,-0.8025,-0.748,-0.7111,-0.7236,-0.7255,-0.7379,-0.7403,-0.7397,-0.7369,-0.7095,-0.7013,-0.6881,-0.6653,-0.6605,-0.6561,-0.6517,-0.6343,-0.6216,-0.6216,-0.5905,-0.5594,-0.5591,-0.5411,-0.523,-0.5104,-0.4714,-0.4296,-0.2233,-0.2408,-0.2402,-0.2508,-0.2717,-0.2877,-0.3059,-0.3125,-0.2202,-0.1925,-0.2118,-0.2118,-0.2315,-0.2669,-0.2669,-0.2788,-0.3022,-0.3022,-0.3256,0.0,-0.3726,-0.3919,-0.4268,-0.4304,-0.4423,-0.4621,-0.4813,-0.5004,-0.5204,-0.5401,-0.5634,-0.5786,-0.5825,-0.5938,-0.6089,-0.6128,-0.6047,-0.5931,-0.5613,-0.5336,-0.5179,-0.5123,-0.5115,-0.5148,-0.5005,-0.4989,-0.5061,-0.4904,-0.4767,-0.459,-0.4577,-0.4646,-0.4833,-0.4872,-0.5063,-0.5378,-0.5453,-0.5633,-0.6068,-0.6357,-0.6827,-0.75,-0.7812,-0.7828,-0.7504,-0.7705,-0.7871,-0.7942,-0.7963,-0.7956,-0.7982,-0.8015,-0.8024,-0.8021,-0.8059,-0.8063,-0.8097,-0.8255,-0.8369,-0.8365,-0.8513,-0.8556,-0.8403,-0.8408,-0.8327,-0.8178,-0.8217,-0.814,-0.814,-0.7863,-0.7747,-0.7818,-0.7605,-0.756,-0.7728,-0.7656,-0.7641,-0.7746,-0.7702,-0.7596,-0.7318,-0.7288,-0.7204,-0.7044,-0.6871,-0.6748,-0.6704,-0.6476,-0.6299,-0.6254,-0.6166,-0.603,-0.5677,-0.5476,-0.5298,-0.3005,-0.3092,-0.3108,-0.3139,-0.3219,-0.328,-0.3377,-0.3411,-0.2936,-0.2752,-0.2798,-0.2797,-0.2858,-0.2945,-0.2943,-0.3178,-0.3491,-0.3491,-0.3724,-0.4114,-0.4112,-0.427,-0.4582,-0.4696,-0.481,-0.5049,-0.5356,-0.5589,-0.5831,-0.606,-0.6251,-0.644,-0.6437,-0.6479,-0.6591,-0.6591,-0.6591,-0.6553,-0.617,-0.586,-0.578,-0.578,-0.5783,-0.578,-0.5714,-0.5724,-0.5762,-0.5665,-0.5558,-0.5488,-0.5376,-0.5442,-0.5588,-0.5702,-0.5885,-0.6119,-0.6353,-0.6574,-0.6909,-0.7238,-0.7694,-0.8232,-0.836,-0.8481,-0.8501,-0.8462,-0.8518,-0.8713,-0.8751,-0.8751,-0.8751,-0.8751,-0.8751,-0.8756,-0.8751,-0.8751,-0.8751,-0.8827,-0.8903,-0.8903,-0.8975,-0.8975,-0.8899,-0.8903,-0.8861,-0.8751,-0.8751,-0.8751,-0.8713,-0.8675,-0.851,-0.826,-0.8066,-0.8055,-0.8214,-0.8221,-0.8136,-0.8132,-0.8144,-0.797,-0.7673,-0.7644,-0.762,-0.7462,-0.7384,-0.7408,-0.7367,-0.7183,-0.7003,-0.6786,-0.67,-0.6479,-0.6166,-0.6077,-0.5855,-0.3631,-0.3676,-0.3676,-0.3721,-0.3849,-0.3787,-0.3805,-0.3839,-0.3776,-0.3703,-0.3628,-0.3509,-0.3418,-0.3442,-0.3422,-0.3567,-0.3919,-0.3919,-0.4151,-0.4499,-0.4538,-0.4659,-0.4893,-0.5046,-0.5279,-0.5515,-0.5864,-0.6138,-0.6412,-0.6641,-0.6868,-0.7096,-0.713,-0.7169,-0.7173,-0.7173,-0.7173,-0.7134,-0.6788,-0.6549,-0.6356,-0.6356,-0.6356,-0.636,-0.6356,-0.6356,-0.6353,-0.6291,-0.6307,-0.6262,-0.6227,-0.6257,-0.6334,-0.6566,-0.6734,-0.6888,-0.7176,-0.7484,-0.7748,-0.8059,-0.8403,-0.878,-0.8818,-0.897,-0.9279,-0.9122,-0.9051,-0.9284,-0.9284,-0.9284,-0.9284,-0.9322,-0.9359,-0.9359,-0.9392,-0.9397,-0.9435,-0.9468,-0.9511,-0.9511,-0.9549,-0.9587,-0.9511,-0.9473,-0.9359,-0.9284,-0.9322,-0.9322,-0.9322,-0.9322,-0.9096,-0.8771,-0.8553,-0.8511,-0.8648,-0.8571,-0.847,-0.8377,-0.8366,-0.8222,-0.7986,-0.7987,-0.8004,-0.7897,-0.7901,-0.7946,-0.7952,-0.7745,-0.7493,-0.7298,-0.7187,-0.6966,-0.6609,-0.652,-0.6236,-0.3721,-0.3857,-0.3901,-0.417,-0.4569,-0.4559,-0.4639,-0.4812,-0.4847,-0.4793,-0.4637,-0.4094,-0.4055,-0.4395,-0.4309,-0.4268,-0.4345,-0.4345,-0.4577,-0.4929,-0.4965,-0.5162,-0.5479,-0.5518,-0.5792,-0.6141,-0.6257,-0.6486,-0.6826,-0.7061,-0.733,-0.7706,-0.7906,-0.7949,-0.7949,-0.7987,-0.7987,-0.7987,-0.7949,-0.7561,-0.6903,-0.6826,-0.6822,-0.6826,-0.6826,-0.6826,-0.6861,-0.685,-0.6842,-0.6842,-0.6977,-0.7099,-0.7115,-0.7268,-0.7498,-0.7668,-0.7706,-0.8012,-0.8513,-0.8623,-0.8822,-0.9208,-0.9246,-0.9359,-0.9549,-0.9695,-0.962,-0.9435,-0.9322,-0.9359,-0.9322,-0.9511,-0.962,-0.962,-0.9771,-0.9846,-0.9846,-0.9992,-1.0105,-1.011,-1.0175,-1.0293,-1.0105,-0.9954,-0.9695,-0.9473,-0.9473,-0.943,-0.9435,-0.9435,-0.9397,-0.9199,-0.8932,-0.8792,-0.8883,-0.8652,-0.8586,-0.8571,-0.8582,-0.8552,-0.8498,-0.8487,-0.8498,-0.8379,-0.833,-0.8254,-0.8179,-0.8017,-0.7857,-0.7833,-0.7742,-0.7632,-0.7187,-0.6925,-0.6542,-0.4304,-0.4391,-0.4525,-0.4656,-0.4879,-0.4879,-0.4924,-0.5006,-0.4902,-0.494,-0.5006,-0.4639,-0.4506,-0.4575,-0.4471,-0.4538,-0.4732,-0.4732,-0.4968,-0.5323,-0.5362,-0.5595,-0.5986,-0.6025,-0.6219,-0.6641,-0.6756,-0.6988,-0.7249,-0.7599,-0.7795,-0.7983,-0.8063,-0.8102,-0.8102,-0.8102,-0.8102,-0.8102,-0.8102,-0.7953,-0.7642,-0.7599,-0.7599,-0.7603,-0.7599,-0.7599,-0.7599,-0.7599,-0.7599,-0.7599,-0.768,-0.7723,-0.7718,-0.7791,-0.7872,-0.7983,-0.8208,-0.8551,-0.9013,-0.9051,-0.9165,-0.9468,-0.9582,-0.9733,-0.996,-1.0143,-1.0175,-1.0067,-0.9997,-0.9992,-0.9992,-1.0067,-1.0143,-1.0143,-1.0218,-1.0255,-1.0255,-1.0325,-1.0368,-1.0406,-1.0438,-1.0475,-1.04,-1.0331,-1.018,-1.003,-0.9997,-0.9954,-0.9992,-0.9992,-1.003,-0.996,-0.9652,-0.938,-0.9212,-0.9068,-0.8966,-0.8979,-0.9003,-0.9003,-0.8869,-0.8843,-0.8787,-0.8711,-0.8585,-0.85,-0.8442,-0.8388,-0.8308,-0.8255,-0.8114,-0.7981,-0.7628,-0.7499,-0.7231,-0.479,-0.4788,-0.4893,-0.5012,-0.5053,-0.5024,-0.5056,-0.509,-0.5021,-0.5117,-0.5307,-0.5117,-0.499,-0.4889,-0.4747,-0.4851,-0.5124,-0.5165,-0.5356,-0.5673,-0.575,-0.6025,-0.6338,-0.6451,-0.6679,-0.7022,-0.718,-0.745,-0.7753,-0.8025,-0.8217,-0.825,-0.825,-0.8255,-0.825,-0.825,-0.825,-0.825,-0.8255,-0.8255,-0.8255,-0.8255,-0.8217,-0.8102,-0.8102,-0.8102,-0.8102,-0.8102,-0.8102,-0.8102,-0.8212,-0.825,-0.825,-0.8365,-0.8446,-0.8446,-0.8708,-0.9051,-0.9435,-0.9468,-0.9582,-0.9809,-0.9997,-1.0105,-1.0288,-1.0513,-1.0663,-1.0663,-1.0775,-1.0775,-1.0513,-1.0588,-1.0663,-1.0663,-1.0738,-1.0812,-1.0812,-1.0807,-1.085,-1.0812,-1.0887,-1.0812,-1.0775,-1.07,-1.0631,-1.055,-1.0513,-1.0513,-1.0513,-1.0475,-1.0475,-1.0475,-1.0218,-0.9916,-0.9549,-0.9299,-0.9322,-0.9322,-0.9276,-0.9204,-0.9117,-0.9087,-0.9091,-0.8954,-0.8852,-0.8783,-0.8824,-0.881,-0.866,-0.8598,-0.8469,-0.8332,-0.8107,-0.8066,-0.7973,-0.501,-0.4991,-0.4862,-0.4952,-0.5201,-0.5064,-0.5144,-0.5365,-0.5382,-0.5463,-0.5616,-0.5528,-0.5548,-0.5694,-0.537,-0.5359,-0.5559,-0.5565,-0.5685,-0.5915,-0.6158,-0.638,-0.6602,-0.6788,-0.7107,-0.749,-0.7512,-0.7804,-0.8293,-0.8365,-0.8475,-0.8665,-0.8627,-0.8665,-0.8627,-0.8627,-0.8665,-0.8627,-0.8627,-0.8665,-0.8665,-0.8665,-0.8479,-0.8217,-0.8102,-0.814,-0.814,-0.8102,-0.8102,-0.8102,-0.8479,-0.8661,-0.8699,-0.9013,-0.917,-0.9246,-0.9284,-0.9435,-0.9809,-0.9884,-1.003,-1.0368,-1.0443,-1.0475,-1.0513,-1.0887,-1.1074,-1.1068,-1.1372,-1.1298,-1.0738,-1.0887,-1.108,-1.1074,-1.1409,-1.1558,-1.1595,-1.1515,-1.1632,-1.1595,-1.1521,-1.1446,-1.1329,-1.1186,-1.1037,-1.085,-1.0663,-1.0588,-1.0625,-1.0588,-1.0588,-1.0588,-1.0519,-1.0325,-0.996,-0.9695,-0.9468,-0.9473,-0.9544,-0.9392,-0.9322,-0.9294,-0.9309,-0.9281,-0.9231,-0.9203,-0.9228,-0.9116,-0.8917,-0.8869,-0.8886,-0.878,-0.8567,-0.8545,-0.8468,-0.5175,-0.5238,-0.5199,-0.5265,-0.5344,-0.539,-0.5499,-0.5574,-0.5612,-0.57,-0.5719,-0.5607,-0.5665,-0.5855,-0.5931,-0.5906,-0.5834,-0.6035,-0.6278,-0.6526,-0.682,-0.7108,-0.7306,-0.7544,-0.7785,-0.8058,-0.8067,-0.8173,-0.8374,-0.8513,-0.8627,-0.8665,-0.8703,-0.8703,-0.8703,-0.8703,-0.8703,-0.8703,-0.8703,-0.8746,-0.8903,-0.8908,-0.887,-0.8865,-0.8756,-0.868,-0.868,-0.8794,-0.8865,-0.8865,-0.9013,-0.9089,-0.9089,-0.9246,-0.9397,-0.9657,-0.9695,-0.9846,-1.0218,-1.0293,-1.0331,-1.0481,-1.0738,-1.0887,-1.0962,-1.126,-1.1484,-1.1521,-1.1595,-1.1521,-1.1409,-1.1409,-1.1484,-1.1521,-1.1595,-1.1706,-1.1706,-1.1706,-1.1706,-1.1706,-1.1706,-1.1669,-1.1632,-1.1527,-1.1446,-1.1366,-1.1298,-1.126,-1.126,-1.126,-1.1223,-1.1223,-1.1155,-1.1043,-1.0931,-1.0406,-1.0105,-1.0067,-1.0105,-1.0067,-1.003,-0.9884,-0.9825,-0.9787,-0.9695,-0.9565,-0.9527,-0.9467,-0.9266,-0.914,-0.9172,-0.9179,-0.903,-0.8986,-0.8953,-0.5357,-0.5496,-0.5452,-0.5476,-0.5556,-0.5639,-0.5665,-0.5656,-0.5728,-0.5845,-0.5905,-0.5869,-0.5983,-0.6212,-0.6405,-0.644,-0.6329,-0.6586,-0.6783,-0.7005,-0.7357,-0.7612,-0.7855,-0.8106,-0.8353,-0.8578,-0.8667,-0.8651,-0.8599,-0.873,-0.8808,-0.8784,-0.8784,-0.8818,-0.8861,-0.8894,-0.8894,-0.8899,-0.8899,-0.8975,-0.9099,-0.9099,-0.9137,-0.9246,-0.9213,-0.9137,-0.9099,-0.9213,-0.9322,-0.9322,-0.9359,-0.9473,-0.9587,-0.9657,-0.9803,-1.0067,-1.0105,-1.0218,-1.055,-1.0663,-1.0738,-1.0812,-1.1074,-1.1298,-1.1335,-1.1601,-1.1781,-1.1818,-1.1929,-1.2003,-1.2003,-1.2046,-1.2003,-1.1855,-1.1855,-1.1892,-1.1892,-1.1892,-1.1929,-1.2003,-1.204,-1.204,-1.2077,-1.204,-1.1966,-1.1929,-1.1855,-1.1781,-1.1706,-1.1706,-1.1706,-1.1669,-1.1558,-1.1446,-1.1372,-1.1074,-1.0663,-1.0594,-1.0519,-1.0588,-1.055,-1.0406,-1.0331,-1.025,-1.0137,-0.9916,-0.9818,-0.9804,-0.9668,-0.9481,-0.9508,-0.9535,-0.9444,-0.9387,-0.9376,-0.5488,-0.567,-0.5566,-0.5592,-0.5734,-0.568,-0.5613,-0.5665,-0.5694,-0.597,-0.6281,-0.63,-0.6483,-0.6788,-0.6865,-0.6954,-0.7099,-0.7173,-0.7267,-0.7447,-0.768,-0.794,-0.8193,-0.8417,-0.8689,-0.8996,-0.9209,-0.9178,-0.9034,-0.9015,-0.9047,-0.9033,-0.9052,-0.9118,-0.9284,-0.9246,-0.9284,-0.9246,-0.9246,-0.9251,-0.9322,-0.9322,-0.9322,-0.9354,-0.9511,-0.9511,-0.9327,-0.9322,-0.9359,-0.9397,-0.9511,-0.9765,-1.0105,-1.0293,-1.0438,-1.0443,-1.0481,-1.0631,-1.0812,-1.0999,-1.1186,-1.1335,-1.1564,-1.1663,-1.1744,-1.1892,-1.204,-1.2114,-1.2342,-1.2562,-1.2562,-1.2673,-1.2599,-1.215,-1.2231,-1.2298,-1.2298,-1.2305,-1.2378,-1.2532,-1.2526,-1.2673,-1.279,-1.2636,-1.2445,-1.2298,-1.2194,-1.2046,-1.1929,-1.1892,-1.1781,-1.1781,-1.1855,-1.1929,-1.1818,-1.1669,-1.1335,-1.1043,-1.0968,-1.0893,-1.085,-1.0738,-1.0781,-1.0738,-1.0663,-1.0481,-1.0218,-1.0193,-1.0024,-0.9893,-0.9914,-0.9917,-0.9837,-0.98,-0.9868,-0.5564,-0.564,-0.5601,-0.558,-0.5692,-0.5766,-0.5906,-0.6103,-0.6215,-0.6447,-0.6676,-0.6714,-0.6791,-0.6942,-0.7176,-0.7489,-0.7801,-0.8061,-0.816,-0.8076,-0.8371,-0.8635,-0.8897,-0.9116,-0.9266,-0.9401,-0.9461,-0.9518,-0.9468,-0.947,-0.9483,-0.9472,-0.9471,-0.9386,-0.9337,-0.9322,-0.9322,-0.9322,-0.9322,-0.9365,-0.9473,-0.9506,-0.9582,-0.97,-0.9771,-0.9809,-0.9879,-0.9809,-0.9809,-0.9884,-0.9997,-1.0148,-1.0368,-1.0475,-1.055,-1.0706,-1.085,-1.0999,-1.1223,-1.1409,-1.1521,-1.1632,-1.1824,-1.1966,-1.2114,-1.2298,-1.2445,-1.2562,-1.2753,-1.2826,-1.2826,-1.2863,-1.282,-1.2636,-1.268,-1.2709,-1.2673,-1.268,-1.2746,-1.2783,-1.2783,-1.2826,-1.29,-1.2826,-1.2783,-1.2709,-1.2643,-1.2569,-1.2526,-1.2452,-1.2526,-1.2526,-1.2519,-1.2409,-1.2335,-1.2268,-1.2083,-1.1787,-1.1558,-1.1372,-1.126,-1.1223,-1.126,-1.1192,-1.1117,-1.1005,-1.0743,-1.0594,-1.0481,-1.0368,-1.0329,-1.0297,-1.0222,-1.0245,-1.0248,-0.5637,-0.5712,-0.5792,-0.5909,-0.5983,-0.6173,-0.6367,-0.6525,-0.6679,-0.683,-0.698,-0.7096,-0.7176,-0.7292,-0.7561,-0.7963,-0.8324,-0.86,-0.8739,-0.8798,-0.8931,-0.917,-0.9432,-0.9733,-0.9846,-0.9866,-0.997,-0.9944,-0.9904,-0.993,-0.9907,-0.9932,-0.9896,-0.9828,-0.9666,-0.9678,-0.9653,-0.9532,-0.9549,-0.9587,-0.9695,-0.9695,-0.9803,-0.9992,-0.9997,-1.0105,-1.0255,-1.018,-1.018,-1.0293,-1.0368,-1.0519,-1.07,-1.0812,-1.0925,-1.1111,-1.126,-1.1372,-1.1521,-1.1669,-1.1855,-1.1929,-1.212,-1.2305,-1.2489,-1.2636,-1.2783,-1.2863,-1.2973,-1.301,-1.301,-1.309,-1.3127,-1.3119,-1.2973,-1.2936,-1.29,-1.29,-1.2936,-1.2973,-1.3003,-1.3039,-1.3083,-1.3127,-1.3083,-1.3046,-1.301,-1.2973,-1.2936,-1.29,-1.29,-1.29,-1.282,-1.2783,-1.2863,-1.2826,-1.2826,-1.2526,-1.2268,-1.2046,-1.1855,-1.1818,-1.1818,-1.1632,-1.1564,-1.1416,-1.1192,-1.1186,-1.1111,-1.0962,-1.0775,-1.0674,-1.0577,-1.0528,-1.058,-0.5786,-0.598,-0.6219,-0.6412,-0.6602,-0.6753,-0.6865,-0.6942,-0.6942,-0.7099,-0.7296,-0.7446,-0.7603,-0.7799,-0.7987,-0.8304,-0.8693,-0.8805,-0.915,-0.9465,-0.9545,-0.9563,-0.9777,-1.012,-1.0279,-1.0313,-1.0529,-1.0525,-1.0343,-1.0333,-1.0346,-1.0355,-1.0365,-1.034,-1.0224,-1.0265,-1.0131,-0.9932,-0.99,-0.9884,-0.9916,-0.9922,-1.0035,-1.018,-1.0218,-1.0288,-1.0475,-1.055,-1.055,-1.0556,-1.0743,-1.0925,-1.1111,-1.1298,-1.1446,-1.1632,-1.1706,-1.1706,-1.1781,-1.1966,-1.215,-1.2335,-1.2489,-1.2709,-1.2863,-1.29,-1.2936,-1.301,-1.3127,-1.3236,-1.3273,-1.3346,-1.3455,-1.3455,-1.32,-1.301,-1.2936,-1.2973,-1.3083,-1.32,-1.3229,-1.3302,-1.3484,-1.3528,-1.3448,-1.3339,-1.3302,-1.3266,-1.3193,-1.3185,-1.3046,-1.3046,-1.3193,-1.3229,-1.3339,-1.3339,-1.3339,-1.3258,-1.2966,-1.2709,-1.2452,-1.2342,-1.2342,-1.2157,-1.2009,-1.1861,-1.175,-1.1706,-1.1632,-1.1446,-1.126,-1.1074,-1.0964,-1.0927,-1.094,-0.6595,-0.6672,-0.671,-0.6788,-0.6826,-0.6865,-0.7096,-0.7326,-0.7369,-0.7522,-0.7795,-0.791,-0.7987,-0.8068,-0.8255,-0.8549,-0.8897,-0.9266,-0.9661,-1.0097,-1.0278,-1.0332,-1.0424,-1.0511,-1.0598,-1.0598,-1.0684,-1.075,-1.079,-1.0807,-1.0778,-1.0819,-1.0808,-1.069,-1.0528,-1.0396,-1.0272,-1.0175,-1.0003,-1.0003,-1.0105,-1.0143,-1.0218,-1.0406,-1.0443,-1.055,-1.0738,-1.0999,-1.1074,-1.0962,-1.1111,-1.1335,-1.1484,-1.1595,-1.1669,-1.1744,-1.1861,-1.2009,-1.2157,-1.2342,-1.2526,-1.2709,-1.2783,-1.29,-1.3083,-1.3127,-1.3193,-1.3309,-1.3382,-1.3426,-1.3419,-1.3492,-1.3564,-1.3681,-1.3492,-1.3339,-1.3346,-1.3339,-1.3419,-1.3608,-1.3645,-1.371,-1.3848,-1.3884,-1.3884,-1.3804,-1.3804,-1.3775,-1.3659,-1.3659,-1.3593,-1.3739,-1.3848,-1.3811,-1.3848,-1.3848,-1.3848,-1.384,-1.3659,-1.3404,-1.3076,-1.279,-1.2753,-1.268,-1.2569,-1.2415,-1.2305,-1.2268,-1.2083,-1.1892,-1.1706,-1.1521,-1.1446,-1.1396,-1.1397,-0.6903,-0.6903,-0.7096,-0.7134,-0.7173,-0.733,-0.7522,-0.7718,-0.7753,-0.7872,-0.8106,-0.8293,-0.8365,-0.8365,-0.867,-0.8976,-0.9266,-0.9641,-0.9982,-1.0285,-1.0636,-1.0727,-1.0733,-1.0776,-1.0824,-1.0824,-1.0906,-1.0997,-1.1089,-1.1138,-1.1139,-1.1123,-1.1139,-1.1051,-1.0912,-1.0781,-1.067,-1.0584,-1.0407,-1.0334,-1.0336,-1.0325,-1.0443,-1.0588,-1.07,-1.0887,-1.1143,-1.1403,-1.1446,-1.1409,-1.1484,-1.1595,-1.1824,-1.1898,-1.1966,-1.2077,-1.2268,-1.2452,-1.2526,-1.268,-1.2826,-1.2973,-1.301,-1.3119,-1.3273,-1.3346,-1.3382,-1.3463,-1.3564,-1.3608,-1.3637,-1.371,-1.3819,-1.3891,-1.3811,-1.3739,-1.3739,-1.3746,-1.3819,-1.3891,-1.3928,-1.3964,-1.4101,-1.4101,-1.4101,-1.4101,-1.4029,-1.4065,-1.4029,-1.4101,-1.4137,-1.4137,-1.4129,-1.4057,-1.4021,-1.4021,-1.4021,-1.4093,-1.4065,-1.3876,-1.3659,-1.3266,-1.3193,-1.3156,-1.309,-1.301,-1.2863,-1.2709,-1.2562,-1.2378,-1.2194,-1.204,-1.1929,-1.1861,-1.1859,-0.7019,-0.7057,-0.7407,-0.7557,-0.7599,-0.791,-0.8063,-0.814,-0.814,-0.8178,-0.8331,-0.8627,-0.8742,-0.878,-0.9056,-0.9389,-0.9615,-0.9948,-1.0311,-1.0663,-1.0946,-1.1084,-1.0992,-1.1089,-1.1138,-1.1138,-1.1311,-1.1354,-1.144,-1.1392,-1.1392,-1.1397,-1.1408,-1.1401,-1.1372,-1.1341,-1.1194,-1.1027,-1.0914,-1.0828,-1.0762,-1.0766,-1.0892,-1.1076,-1.1298,-1.1513,-1.1759,-1.1921,-1.1915,-1.192,-1.1819,-1.1892,-1.204,-1.2268,-1.2415,-1.2562,-1.2716,-1.2826,-1.2936,-1.29,-1.301,-1.32,-1.3273,-1.3346,-1.3492,-1.3564,-1.3601,-1.3637,-1.371,-1.3826,-1.3863,-1.3992,-1.4057,-1.4101,-1.4129,-1.4129,-1.4129,-1.4129,-1.4101,-1.4137,-1.4137,-1.4137,-1.4129,-1.4129,-1.4165,-1.4281,-1.4281,-1.4281,-1.4281,-1.4274,-1.4274,-1.4238,-1.4201,-1.4201,-1.4165,-1.4165,-1.4201,-1.4238,-1.4245,-1.4173,-1.4101,-1.3848,-1.3702,-1.3593,-1.3521,-1.3404,-1.3258,-1.3112,-1.301,-1.2863,-1.2636,-1.2526,-1.2378,-1.2305,-1.2249,-0.7834,-0.7868,-0.7949,-0.7987,-0.7991,-0.8063,-0.8217,-0.8369,-0.8513,-0.8637,-0.8832,-0.9056,-0.917,-0.9165,-0.9284,-0.939,-0.9727,-1.029,-1.0905,-1.1636,-1.1697,-1.178,-1.165,-1.1607,-1.1527,-1.157,-1.1742,-1.1823,-1.1823,-1.1785,-1.1828,-1.1823,-1.178,-1.1843,-1.1807,-1.171,-1.1579,-1.1507,-1.1341,-1.1329,-1.1417,-1.1546,-1.1703,-1.1905,-1.2147,-1.2361,-1.2616,-1.2804,-1.2954,-1.2924,-1.2554,-1.2371,-1.2493,-1.265,-1.2783,-1.2826,-1.29,-1.2973,-1.3119,-1.3163,-1.3236,-1.3419,-1.3564,-1.3674,-1.3717,-1.3884,-1.3956,-1.3956,-1.3992,-1.4036,-1.4065,-1.4101,-1.4209,-1.4317,-1.4353,-1.4389,-1.4418,-1.4245,-1.4209,-1.4281,-1.4353,-1.4389,-1.4497,-1.4497,-1.4497,-1.4497,-1.4497,-1.4497,-1.4497,-1.4525,-1.4525,-1.4525,-1.4525,-1.4525,-1.4525,-1.4489,-1.4489,-1.4453,-1.4461,-1.4389,-1.4353,-1.4281,-1.4065,-1.3985,-1.3949,-1.3804,-1.3622,-1.3484,-1.3375,-1.3229,-1.3119,-1.2966,-1.282,-1.2709,-1.262,-0.8102,-0.8102,-0.8289,-0.8365,-0.8403,-0.856,-0.8713,-0.8822,-0.8937,-0.9056,-0.917,-0.9359,-0.9511,-0.9582,-0.9695,-0.9846,-1.0106,-1.0694,-1.1351,-1.1855,-1.1995,-1.1995,-1.208,-1.2075,-1.208,-1.1914,-1.1957,-1.2,-1.2,-1.2,-1.1957,-1.2,-1.2,-1.2032,-1.2203,-1.2143,-1.2182,-1.2176,-1.2145,-1.2105,-1.2111,-1.2212,-1.2372,-1.2571,-1.2764,-1.2995,-1.3173,-1.3377,-1.3535,-1.3583,-1.3394,-1.3099,-1.2984,-1.3021,-1.306,-1.3046,-1.3156,-1.3266,-1.3419,-1.3499,-1.3564,-1.3739,-1.3891,-1.3891,-1.3928,-1.4057,-1.4093,-1.4129,-1.4173,-1.4245,-1.431,-1.4346,-1.4418,-1.4461,-1.4497,-1.4569,-1.4641,-1.4489,-1.4346,-1.4461,-1.4497,-1.4569,-1.4677,-1.4721,-1.482,-1.4812,-1.4848,-1.4883,-1.4883,-1.4883,-1.4919,-1.4919,-1.4883,-1.4883,-1.4883,-1.4848,-1.4812,-1.4748,-1.4721,-1.4605,-1.4533,-1.4425,-1.431,-1.4274,-1.4201,-1.4129,-1.3956,-1.3848,-1.3739,-1.3695,-1.3586,-1.3404,-1.3222,-1.3156,-1.2973,-0.8259,-0.8293,-0.8632,-0.878,-0.8856,-0.9127,-0.9246,-0.9284,-0.9322,-0.9359,-0.9435,-0.9582,-0.9846,-0.9992,-1.0143,-1.0391,-1.0758,-1.1174,-1.1764,-1.2242,-1.2338,-1.2381,-1.2418,-1.2589,-1.2631,-1.2252,-1.2338,-1.2295,-1.2295,-1.2209,-1.2381,-1.2252,-1.2252,-1.2418,-1.2577,-1.2699,-1.2771,-1.2767,-1.2854,-1.2848,-1.2806,-1.2802,-1.3011,-1.3293,-1.3407,-1.3608,-1.3775,-1.3961,-1.4125,-1.409,-1.4252,-1.4112,-1.3784,-1.3529,-1.3454,-1.3468,-1.3653,-1.3763,-1.3895,-1.3879,-1.3891,-1.4101,-1.4137,-1.4137,-1.4137,-1.4201,-1.4238,-1.4353,-1.4461,-1.4605,-1.4677,-1.4705,-1.4705,-1.4705,-1.4713,-1.4748,-1.4856,-1.4784,-1.4748,-1.4713,-1.4776,-1.4856,-1.4892,-1.4963,-1.5062,-1.5161,-1.5196,-1.5196,-1.524,-1.5196,-1.5169,-1.5125,-1.5062,-1.5062,-1.5062,-1.5062,-1.5026,-1.4999,-1.4971,-1.4856,-1.4748,-1.474,-1.4669,-1.4461,-1.4389,-1.4317,-1.4281,-1.4137,-1.4101,-1.4129,-1.4013,-1.3768,-1.3666,-1.3601,-1.3441,-0.8946,-0.9132,-0.917,-0.9208,-0.9208,-0.9284,-0.9322,-0.9322,-0.9511,-0.9657,-0.9809,-0.9997,-1.018,-1.0368,-1.04,-1.0774,-1.1359,-1.1754,-1.2216,-1.2814,-1.2973,-1.3058,-1.3058,-1.3185,-1.3228,-1.3222,-1.3137,-1.3137,-1.3094,-1.3179,-1.3058,-1.3137,-1.3137,-1.3179,-1.3179,-1.3264,-1.333,-1.3325,-1.3403,-1.3352,-1.3403,-1.3598,-1.3883,-1.4166,-1.4269,-1.4365,-1.4496,-1.4738,-1.4891,-1.4911,-1.5039,-1.5045,-1.4897,-1.463,-1.4513,-1.4425,-1.4374,-1.438,-1.4432,-1.4256,-1.4111,-1.4137,-1.4343,-1.4408,-1.4436,-1.4508,-1.4732,-1.4844,-1.4972,-1.5067,-1.5106,-1.5132,-1.5103,-1.5122,-1.5135,-1.5163,-1.5182,-1.5147,-1.513,-1.5141,-1.5141,-1.5098,-1.5106,-1.5141,-1.5248,-1.5311,-1.5311,-1.5355,-1.5355,-1.5311,-1.524,-1.5204,-1.5161,-1.5161,-1.5161,-1.5204,-1.5213,-1.5204,-1.5141,-1.5106,-1.5062,-1.5098,-1.4991,-1.4776,-1.4605,-1.4569,-1.4497,-1.4425,-1.4353,-1.4317,-1.4201,-1.4093,-1.3992,-1.3943,-1.4094,-0.9208,-0.9322,-0.9397,-0.9468,-0.9473,-0.9695,-0.9765,-0.9809,-0.996,-1.0105,-1.0218,-1.0325,-1.0475,-1.0663,-1.0775,-1.1266,-1.197,-1.2212,-1.2685,-1.3212,-1.3355,-1.3483,-1.3568,-1.3695,-1.3815,-1.3899,-1.3977,-1.3857,-1.3568,-1.3519,-1.3646,-1.3737,-1.3773,-1.3766,-1.3808,-1.3893,-1.3893,-1.3935,-1.3977,-1.4062,-1.4068,-1.4328,-1.4531,-1.4657,-1.4866,-1.495,-1.511,-1.5284,-1.5492,-1.5587,-1.5681,-1.5736,-1.5693,-1.566,-1.5423,-1.5094,-1.4927,-1.4904,-1.498,-1.4848,-1.4914,-1.5085,-1.5173,-1.5293,-1.5359,-1.5494,-1.5466,-1.5602,-1.5692,-1.5757,-1.5782,-1.5761,-1.5757,-1.5757,-1.5769,-1.576,-1.5696,-1.5691,-1.5698,-1.5652,-1.5415,-1.5344,-1.5319,-1.5355,-1.5434,-1.547,-1.5497,-1.5497,-1.5505,-1.5497,-1.5488,-1.5453,-1.5453,-1.5461,-1.5426,-1.5426,-1.539,-1.539,-1.5346,-1.5311,-1.5275,-1.5275,-1.5169,-1.4991,-1.4883,-1.482,-1.4721,-1.4613,-1.4577,-1.4533,-1.4425,-1.4346,-1.4281,-1.4307,-1.4448,-0.9397,-0.943,-0.962,-0.9733,-0.9771,-1.0105,-1.0255,-1.0293,-1.0406,-1.0519,-1.055,-1.0625,-1.0738,-1.0925,-1.1215,-1.1713,-1.2579,-1.2644,-1.3052,-1.3513,-1.3737,-1.3815,-1.3948,-1.4117,-1.4328,-1.4489,-1.4615,-1.4489,-1.4068,-1.3942,-1.4026,-1.4159,-1.423,-1.4223,-1.423,-1.4307,-1.4433,-1.4524,-1.4615,-1.4692,-1.4817,-1.4859,-1.495,-1.4992,-1.5208,-1.5374,-1.5533,-1.5699,-1.5831,-1.6004,-1.6113,-1.6196,-1.6245,-1.6443,-1.6226,-1.5654,-1.5467,-1.5498,-1.5552,-1.5589,-1.5647,-1.5867,-1.6002,-1.6125,-1.6215,-1.62,-1.6401,-1.6476,-1.6556,-1.656,-1.6593,-1.6594,-1.6594,-1.6586,-1.659,-1.6527,-1.6502,-1.643,-1.6385,-1.6194,-1.5764,-1.5662,-1.576,-1.5744,-1.5815,-1.5815,-1.585,-1.5894,-1.5894,-1.5894,-1.585,-1.5823,-1.5788,-1.5761,-1.5726,-1.5691,-1.5655,-1.5584,-1.5576,-1.5541,-1.5461,-1.539,-1.5319,-1.5275,-1.5169,-1.507,-1.4971,-1.4864,-1.4856,-1.4784,-1.4705,-1.4641,-1.4577,-1.4626,-1.4809,-0.9663,-0.9846,-1.003,-1.0143,-1.0143,-1.0368,-1.0438,-1.0481,-1.0513,-1.0594,-1.0812,-1.0962,-1.1149,-1.1335,-1.1564,-1.2005,-1.2576,-1.3022,-1.3433,-1.3966,-1.4321,-1.4482,-1.4566,-1.4608,-1.4824,-1.5041,-1.5082,-1.4873,-1.4657,-1.4608,-1.4608,-1.4699,-1.4741,-1.465,-1.4734,-1.4817,-1.4657,-1.4699,-1.4734,-1.4943,-1.5276,-1.5443,-1.5665,-1.5797,-1.5922,-1.5963,-1.5997,-1.6079,-1.617,-1.6211,-1.6319,-1.6443,-1.6607,-1.6853,-1.709,-1.6952,-1.6685,-1.6348,-1.6355,-1.6264,-1.6272,-1.6442,-1.6393,-1.6302,-1.6593,-1.683,-1.7059,-1.7183,-1.731,-1.741,-1.7407,-1.7441,-1.7444,-1.7421,-1.7433,-1.7401,-1.7336,-1.7151,-1.7088,-1.6899,-1.6533,-1.6368,-1.6369,-1.6263,-1.6202,-1.6237,-1.6246,-1.6246,-1.6211,-1.614,-1.614,-1.607,-1.6035,-1.6008,-1.5973,-1.5938,-1.5911,-1.5797,-1.5797,-1.5761,-1.5682,-1.5647,-1.5647,-1.5611,-1.547,-1.5355,-1.5248,-1.5177,-1.5133,-1.5095,-1.5,-1.494,-1.4828,-1.4997,-1.5205,-1.0105,-1.011,-1.0299,-1.0368,-1.0406,-1.0588,-1.0663,-1.07,-1.0925,-1.1037,-1.1149,-1.1335,-1.1595,-1.1855,-1.2003,-1.2518,-1.3158,-1.3463,-1.3871,-1.4386,-1.4783,-1.4985,-1.511,-1.5235,-1.5409,-1.5582,-1.5673,-1.5673,-1.5458,-1.5367,-1.5325,-1.545,-1.5499,-1.5541,-1.545,-1.5499,-1.5499,-1.5499,-1.5541,-1.5575,-1.5741,-1.5865,-1.5997,-1.6087,-1.6203,-1.6319,-1.6451,-1.6607,-1.6738,-1.682,-1.6935,-1.7025,-1.7106,-1.7221,-1.7343,-1.7529,-1.7453,-1.7241,-1.7015,-1.6931,-1.7046,-1.7204,-1.7282,-1.7412,-1.7622,-1.7791,-1.7908,-1.8078,-1.8156,-1.8216,-1.8237,-1.8234,-1.8243,-1.8225,-1.8234,-1.808,-1.8008,-1.7879,-1.7707,-1.7528,-1.7324,-1.7225,-1.7008,-1.6687,-1.6527,-1.6412,-1.6412,-1.6377,-1.6316,-1.6246,-1.6246,-1.6211,-1.6211,-1.6175,-1.6175,-1.614,-1.614,-1.607,-1.607,-1.6035,-1.5964,-1.5929,-1.5929,-1.5832,-1.5699,-1.5584,-1.5541,-1.5415,-1.5306,-1.532,-1.5306,-1.5343,-1.5405,-1.5675,-1.5905,-1.0481,-1.0368,-1.0519,-1.055,-1.0594,-1.0775,-1.0925,-1.0999,-1.126,-1.1409,-1.1558,-1.1744,-1.204,-1.2335,-1.2456,-1.289,-1.3757,-1.3934,-1.4356,-1.4799,-1.5159,-1.5458,-1.5575,-1.5775,-1.5989,-1.6252,-1.6327,-1.6368,-1.6368,-1.6278,-1.6196,-1.6203,-1.6038,-1.617,-1.6211,-1.6203,-1.6162,-1.6203,-1.6278,-1.6319,-1.6368,-1.6458,-1.6458,-1.6492,-1.6566,-1.6689,-1.6894,-1.7025,-1.727,-1.731,-1.7383,-1.7432,-1.7514,-1.7676,-1.7797,-1.7991,-1.8029,-1.7989,-1.7827,-1.7745,-1.787,-1.808,-1.8282,-1.832,-1.8691,-1.8851,-1.8962,-1.8982,-1.9,-1.9018,-1.9002,-1.9006,-1.9022,-1.9003,-1.9031,-1.8807,-1.8623,-1.8611,-1.8534,-1.8385,-1.8202,-1.8063,-1.7768,-1.7213,-1.6916,-1.6692,-1.6586,-1.6551,-1.6517,-1.6482,-1.6447,-1.6447,-1.6412,-1.6377,-1.6272,-1.6272,-1.6307,-1.6377,-1.6377,-1.6272,-1.6211,-1.614,-1.6105,-1.6008,-1.5972,-1.6138,-1.6233,-1.5833,-1.5488,-1.5683,-1.5869,-1.5963,-1.6092,-1.6312,-1.6517,-1.0775,-1.0775,-1.0775,-1.0812,-1.0812,-1.0993,-1.1186,-1.1335,-1.1403,-1.1558,-1.1781,-1.2077,-1.2372,-1.2599,-1.2831,-1.3222,-1.3835,-1.4279,-1.4776,-1.5312,-1.579,-1.5997,-1.6121,-1.6278,-1.6476,-1.6697,-1.682,-1.7025,-1.7229,-1.7098,-1.6804,-1.6476,-1.6566,-1.6566,-1.6615,-1.6697,-1.6697,-1.6738,-1.6853,-1.6976,-1.7057,-1.7147,-1.7278,-1.727,-1.731,-1.7351,-1.7351,-1.7473,-1.7514,-1.7554,-1.7708,-1.7829,-1.7959,-1.8121,-1.8322,-1.8523,-1.8612,-1.8603,-1.8603,-1.8523,-1.8571,-1.8692,-1.8803,-1.8984,-1.9231,-1.9439,-1.9597,-1.9666,-1.9597,-1.9676,-1.9715,-1.9784,-1.9627,-1.9597,-1.9518,-1.9462,-1.936,-1.9457,-1.9367,-1.923,-1.9052,-1.8788,-1.8616,-1.8095,-1.7534,-1.7332,-1.7056,-1.7038,-1.6968,-1.6943,-1.6795,-1.6726,-1.6647,-1.6542,-1.6412,-1.6447,-1.663,-1.6665,-1.6665,-1.6525,-1.6351,-1.6316,-1.6475,-1.6457,-1.6491,-1.6713,-1.6882,-1.6624,-1.6439,-1.6357,-1.6439,-1.6627,-1.6724,-1.6874,-1.7063,-1.1074,-1.1149,-1.1149,-1.1186,-1.1186,-1.126,-1.1409,-1.1589,-1.1706,-1.1966,-1.2261,-1.2562,-1.2783,-1.2973,-1.3214,-1.357,-1.4112,-1.4617,-1.5085,-1.5617,-1.6057,-1.6427,-1.6574,-1.6779,-1.7066,-1.7147,-1.727,-1.7392,-1.7546,-1.7627,-1.7749,-1.7505,-1.7212,-1.7098,-1.7106,-1.7188,-1.7147,-1.7221,-1.7343,-1.7497,-1.7505,-1.7668,-1.7757,-1.7757,-1.7959,-1.8,-1.804,-1.817,-1.817,-1.821,-1.8282,-1.8362,-1.8411,-1.8571,-1.8772,-1.9002,-1.9042,-1.9161,-1.924,-1.9121,-1.9011,-1.928,-1.9439,-1.9587,-1.9657,-1.9745,-1.9784,-1.9863,-1.9951,-2.0029,-1.9912,-1.9912,-1.9833,-1.9872,-1.9951,-1.999,-2.0029,-2.0069,-2.0021,-1.9812,-1.9602,-1.9335,-1.9171,-1.9004,-1.8447,-1.7969,-1.7713,-1.7461,-1.7392,-1.7289,-1.7141,-1.7038,-1.7003,-1.7003,-1.6864,-1.6908,-1.6978,-1.6987,-1.6961,-1.6912,-1.6827,-1.7017,-1.7125,-1.7063,-1.7098,-1.734,-1.7482,-1.7446,-1.7304,-1.7125,-1.7203,-1.7407,-1.7448,-1.7505,-1.7586,-1.1298,-1.1484,-1.1477,-1.1484,-1.1484,-1.1484,-1.1589,-1.1818,-1.2009,-1.2298,-1.2709,-1.2936,-1.3156,-1.3309,-1.3572,-1.3925,-1.4426,-1.4965,-1.5412,-1.5959,-1.6507,-1.6821,-1.7066,-1.727,-1.7554,-1.7595,-1.7757,-1.7919,-1.8031,-1.7991,-1.8121,-1.8161,-1.804,-1.7838,-1.7806,-1.7797,-1.7757,-1.7838,-1.791,-1.7991,-1.804,-1.8121,-1.8201,-1.8241,-1.8362,-1.8411,-1.8491,-1.8571,-1.8732,-1.8772,-1.8851,-1.8931,-1.8971,-1.9051,-1.9201,-1.935,-1.9499,-1.9627,-1.9666,-1.9587,-1.9399,-1.9636,-1.9863,-1.9981,-2.0098,-2.0137,-2.0303,-2.0381,-2.0342,-2.0264,-2.0264,-2.0381,-2.042,-2.0498,-2.0498,-2.0498,-2.0498,-2.0537,-2.0459,-2.0362,-2.0216,-2.0146,-2.0018,-1.9828,-1.9097,-1.8479,-1.7843,-1.7627,-1.7554,-1.7495,-1.7392,-1.7358,-1.7358,-1.7392,-1.7461,-1.7376,-1.7301,-1.7338,-1.7341,-1.7462,-1.7504,-1.7692,-1.785,-1.7861,-1.7908,-1.807,-1.8223,-1.8444,-1.8152,-1.7807,-1.792,-1.8053,-1.8092,-1.8117,-1.808,-1.1521,-1.1669,-1.1706,-1.1706,-1.175,-1.1706,-1.1818,-1.2046,-1.2231,-1.2556,-1.2936,-1.3309,-1.3492,-1.3601,-1.392,-1.4262,-1.4672,-1.5339,-1.584,-1.6229,-1.6984,-1.731,-1.7514,-1.7757,-1.8,-1.8121,-1.8282,-1.8482,-1.8643,-1.8643,-1.8732,-1.8772,-1.8732,-1.8612,-1.866,-1.866,-1.8652,-1.8652,-1.8652,-1.8652,-1.8692,-1.8732,-1.8772,-1.8763,-1.8803,-1.8851,-1.8931,-1.9011,-1.9121,-1.9161,-1.9359,-1.9448,-1.9487,-1.9676,-1.9794,-1.9912,-1.9902,-1.9942,-1.9951,-1.9902,-1.9951,-2.0029,-2.0264,-2.042,-2.0566,-2.0731,-2.0819,-2.0858,-2.0974,-2.1051,-2.1089,-2.1079,-2.1012,-2.0974,-2.0935,-2.0896,-2.0896,-2.0858,-2.0809,-2.077,-2.0974,-2.1116,-2.0976,-2.0657,-1.9843,-1.9043,-1.8182,-1.7846,-1.7865,-1.7769,-1.7779,-1.7769,-1.7803,-1.7769,-1.7813,-1.769,-1.7649,-1.7672,-1.7859,-1.8139,-1.8368,-1.8554,-1.8634,-1.8655,-1.8817,-1.9022,-1.9276,-1.9542,-1.9064,-1.8625,-1.8578,-1.8643,-1.8674,-1.8612,-1.8491,-1.1706,-1.1892,-1.204,-1.2194,-1.2261,-1.215,-1.2224,-1.2452,-1.2753,-1.3053,-1.3309,-1.3572,-1.3783,-1.4,-1.4253,-1.4504,-1.4749,-1.5702,-1.6211,-1.6387,-1.7342,-1.769,-1.7919,-1.8201,-1.8451,-1.8531,-1.8772,-1.8993,-1.9073,-1.9161,-1.9359,-1.9487,-1.9439,-1.928,-1.9042,-1.9002,-1.9073,-1.9112,-1.9201,-1.9289,-1.9289,-1.9399,-1.9478,-1.9469,-1.9478,-1.9478,-1.9469,-1.9548,-1.9587,-1.9627,-1.9833,-1.9872,-1.9921,-2.0069,-2.0225,-2.0372,-2.045,-2.0634,-2.0731,-2.078,-2.0702,-2.0664,-2.0702,-2.0858,-2.1012,-2.1051,-2.1128,-2.1205,-2.1254,-2.1254,-2.1177,-2.1167,-2.1128,-2.1138,-2.1138,-2.1138,-2.1099,-2.1138,-2.1089,-2.1089,-2.1215,-2.1254,-2.1201,-2.124,-2.0589,-2.0121,-1.9343,-1.8834,-1.873,-1.8404,-1.8265,-1.8245,-1.8245,-1.8212,-1.8193,-1.8326,-1.8418,-1.8531,-1.8872,-1.9255,-1.9374,-1.9416,-1.9535,-1.954,-1.9755,-1.9995,-2.0052,-2.0033,-1.975,-1.9474,-1.9371,-1.9082,-1.8882,-1.8812,-1.8652,-1.204,-1.2231,-1.2415,-1.2562,-1.2673,-1.2562,-1.2673,-1.2936,-1.32,-1.3448,-1.3702,-1.3928,-1.4109,-1.4317,-1.4533,-1.4776,-1.4928,-1.5955,-1.6531,-1.6678,-1.7689,-1.8123,-1.8411,-1.8683,-1.8882,-1.8971,-1.9201,-1.939,-1.9499,-1.9627,-1.9794,-1.999,-2.0177,-2.0059,-1.9784,-1.9696,-1.9499,-1.9587,-1.9676,-1.9843,-1.9872,-1.999,-2.0137,-2.0137,-2.0137,-2.0128,-2.0167,-2.0206,-2.0255,-2.0255,-2.0294,-2.0342,-2.043,-2.0498,-2.0654,-2.0809,-2.0915,-2.1031,-2.1128,-2.1244,-2.1128,-2.1128,-2.1205,-2.1205,-2.1282,-2.132,-2.1359,-2.1397,-2.1397,-2.1397,-2.1436,-2.1387,-2.1387,-2.1436,-2.1436,-2.1436,-2.1436,-2.1474,-2.1474,-2.1436,-2.1436,-2.1436,-2.1454,-2.1501,-2.1373,-2.0978,-2.0576,-2.0094,-1.9581,-1.9237,-1.895,-1.896,-1.8976,-1.9018,-1.9093,-1.9163,-1.9299,-1.9435,-1.9752,-2.0178,-2.0176,-2.0163,-2.0321,-2.0422,-2.0534,-2.0604,-2.0566,-2.0479,-2.0343,-2.0216,-2.0118,-1.9745,-1.9201,-1.9082,-1.9051,-1.2452,-1.2643,-1.2826,-1.2929,-1.2936,-1.2973,-1.32,-1.3492,-1.3535,-1.3739,-1.4129,-1.4281,-1.4461,-1.4641,-1.4828,-1.5034,-1.5389,-1.6373,-1.6769,-1.7268,-1.8162,-1.8519,-1.8843,-1.9112,-1.9311,-1.9469,-1.9666,-1.9893,-1.9942,-2.0098,-2.0216,-2.0381,-2.0693,-2.0683,-2.0557,-2.0362,-2.0137,-2.0177,-2.0264,-2.0342,-2.042,-2.0498,-2.0605,-2.0605,-2.0605,-2.0605,-2.0644,-2.0722,-2.0789,-2.0876,-2.1002,-2.1089,-2.1167,-2.1205,-2.1205,-2.1244,-2.1282,-2.1359,-2.1387,-2.154,-2.1578,-2.1578,-2.1436,-2.1436,-2.1474,-2.1578,-2.1655,-2.1769,-2.1807,-2.1807,-2.1807,-2.1807,-2.1807,-2.1807,-2.1807,-2.1807,-2.1845,-2.1845,-2.1845,-2.1807,-2.1797,-2.1835,-2.1959,-2.1996,-2.1901,-2.1786,-2.1429,-2.1131,-2.0586,-2.0109,-1.9868,-1.9858,-1.9859,-1.991,-1.9992,-2.0043,-2.0206,-2.0344,-2.0616,-2.0954,-2.092,-2.0964,-2.113,-2.1232,-2.1239,-2.1205,-2.1051,-2.1002,-2.1002,-2.0886,-2.0644,-2.0372,-1.9824,-1.9745,-1.9706,-1.2753,-1.2826,-1.3193,-1.3339,-1.3382,-1.363,-1.384,-1.392,-1.3912,-1.4137,-1.4461,-1.4533,-1.4748,-1.5026,-1.5248,-1.5434,-1.5927,-1.653,-1.709,-1.772,-1.8491,-1.8937,-1.9262,-1.9548,-1.9784,-2.002,-2.0255,-2.044,-2.0634,-2.0712,-2.0809,-2.0974,-2.1118,-2.1233,-2.1272,-2.1156,-2.0964,-2.0848,-2.0925,-2.0925,-2.0964,-2.1041,-2.1079,-2.1079,-2.1069,-2.1079,-2.1118,-2.1156,-2.1195,-2.1205,-2.1205,-2.1205,-2.1215,-2.132,-2.1474,-2.1835,-2.1949,-2.2073,-2.2063,-2.2101,-2.2101,-2.2063,-2.2025,-2.1997,-2.1997,-2.1959,-2.1987,-2.2063,-2.2138,-2.2101,-2.2101,-2.2101,-2.2101,-2.2101,-2.2101,-2.2101,-2.2138,-2.2101,-2.2101,-2.2138,-2.2138,-2.2214,-2.2327,-2.2344,-2.2269,-2.2328,-2.2216,-2.1914,-2.1592,-2.1058,-2.0798,-2.0741,-2.072,-2.0757,-2.0834,-2.0957,-2.1093,-2.1261,-2.1475,-2.1641,-2.173,-2.1803,-2.1983,-2.1949,-2.1807,-2.1589,-2.1397,-2.1436,-2.1474,-2.1282,-2.1041,-2.0809,-2.0576,-2.043,-2.0322,-1.3156,-1.3193,-1.3564,-1.3819,-1.3964,-1.4209,-1.4382,-1.4482,-1.4353,-1.4489,-1.4812,-1.4848,-1.507,-1.5426,-1.5576,-1.5761,-1.606,-1.6882,-1.7456,-1.7956,-1.8817,-1.9325,-1.9709,-2.002,-2.0294,-2.0527,-2.076,-2.0915,-2.1175,-2.1415,-2.154,-2.154,-2.1617,-2.1731,-2.1807,-2.1845,-2.1797,-2.1693,-2.1617,-2.1578,-2.1578,-2.1617,-2.1693,-2.1655,-2.1655,-2.1655,-2.1665,-2.1665,-2.1665,-2.1665,-2.1655,-2.1693,-2.1703,-2.1807,-2.1883,-2.2176,-2.2252,-2.2327,-2.2327,-2.2327,-2.2402,-2.2402,-2.244,-2.2365,-2.2338,-2.2262,-2.2289,-2.2327,-2.2365,-2.2402,-2.2392,-2.2392,-2.2392,-2.2392,-2.2402,-2.2392,-2.2402,-2.2392,-2.2402,-2.2402,-2.244,-2.2478,-2.2553,-2.258,-2.2617,-2.2681,-2.267,-2.2568,-2.2291,-2.194,-2.1692,-2.1623,-2.1586,-2.1591,-2.1694,-2.172,-2.1796,-2.1861,-2.1966,-2.2157,-2.2392,-2.2365,-2.2289,-2.2252,-2.2252,-2.2063,-2.1845,-2.1883,-2.1883,-2.1686,-2.1681,-2.1694,-2.1452,-2.1082,-2.0996,-1.3564,-1.3564,-1.3949,-1.4317,-1.4605,-1.4633,-1.4892,-1.5213,-1.4883,-1.4927,-1.5204,-1.5232,-1.5461,-1.5788,-1.5894,-1.6105,-1.6501,-1.718,-1.7816,-1.8212,-1.9033,-1.9697,-2.0217,-2.0576,-2.0838,-2.0992,-2.1185,-2.1454,-2.1693,-2.1921,-2.2101,-2.2176,-2.2289,-2.2402,-2.244,-2.2478,-2.2478,-2.2478,-2.2327,-2.2252,-2.2138,-2.2252,-2.2402,-2.2402,-2.2365,-2.2365,-2.2413,-2.2451,-2.244,-2.244,-2.244,-2.2413,-2.2413,-2.244,-2.2478,-2.2515,-2.2628,-2.2665,-2.2703,-2.2692,-2.2665,-2.2628,-2.2515,-2.2713,-2.2751,-2.2553,-2.2478,-2.2628,-2.2692,-2.2777,-2.2815,-2.2815,-2.2815,-2.2815,-2.2815,-2.2815,-2.2815,-2.2815,-2.2804,-2.2852,-2.2889,-2.2927,-2.2927,-2.299,-2.3038,-2.3038,-2.3038,-2.3038,-2.2931,-2.2648,-2.2467,-2.2349,-2.2264,-2.2226,-2.229,-2.2348,-2.2381,-2.2435,-2.2505,-2.2505,-2.2617,-2.2542,-2.2478,-2.2515,-2.2542,-2.2478,-2.2365,-2.2338,-2.2315,-2.2376,-2.2461,-2.266,-2.2468,-2.2064,-2.1922,-1.3956,-1.3985,-1.4317,-1.4713,-1.5026,-1.5062,-1.5284,-1.5655,-1.5584,-1.5576,-1.5647,-1.5691,-1.5859,-1.6167,-1.6307,-1.6517,-1.6895,-1.7433,-1.8114,-1.8728,-1.9436,-2.0107,-2.071,-2.1108,-2.1377,-2.1568,-2.1807,-2.2035,-2.2327,-2.2515,-2.2628,-2.2777,-2.2889,-2.2927,-2.3075,-2.3075,-2.3113,-2.3224,-2.315,-2.2852,-2.2553,-2.244,-2.244,-2.259,-2.2665,-2.274,-2.2815,-2.2852,-2.2852,-2.2852,-2.2852,-2.2852,-2.2852,-2.3001,-2.3075,-2.3113,-2.315,-2.3187,-2.3187,-2.3139,-2.315,-2.3224,-2.3261,-2.3309,-2.3235,-2.2852,-2.274,-2.2953,-2.3075,-2.315,-2.3187,-2.3235,-2.3235,-2.3235,-2.3235,-2.3235,-2.3235,-2.3261,-2.3261,-2.3261,-2.3309,-2.3335,-2.3335,-2.3372,-2.3446,-2.3446,-2.3457,-2.3457,-2.3409,-2.3206,-2.301,-2.2877,-2.2824,-2.2813,-2.2852,-2.2852,-2.2852,-2.2852,-2.2889,-2.2841,-2.2841,-2.2841,-2.2852,-2.2841,-2.2841,-2.2815,-2.274,-2.2639,-2.2698,-2.295,-2.3191,-2.3419,-2.3588,-2.3319,-2.3202,-1.4389,-1.4497,-1.474,-1.5106,-1.5426,-1.5461,-1.5682,-1.5973,-1.6035,-1.6105,-1.6246,-1.614,-1.6211,-1.6517,-1.6691,-1.6959,-1.7282,-1.7678,-1.8447,-1.9182,-1.9829,-2.0547,-2.1113,-2.1606,-2.1835,-2.2073,-2.2365,-2.2665,-2.2964,-2.3113,-2.3224,-2.3383,-2.3409,-2.3482,-2.3666,-2.3703,-2.3751,-2.3861,-2.3861,-2.3604,-2.3113,-2.3075,-2.3001,-2.3075,-2.3113,-2.3187,-2.3213,-2.3261,-2.3261,-2.3261,-2.3261,-2.325,-2.3298,-2.3335,-2.3409,-2.3446,-2.3482,-2.3593,-2.3629,-2.3629,-2.3666,-2.3666,-2.3629,-2.353,-2.3677,-2.3335,-2.3261,-2.3409,-2.3372,-2.342,-2.3409,-2.3446,-2.3446,-2.3446,-2.3446,-2.3446,-2.3446,-2.3446,-2.3446,-2.3446,-2.3482,-2.3482,-2.3482,-2.3482,-2.3556,-2.3567,-2.3604,-2.3677,-2.3666,-2.374,-2.3556,-2.3409,-2.3372,-2.3309,-2.3261,-2.3261,-2.3261,-2.3261,-2.3224,-2.3224,-2.3213,-2.325,-2.325,-2.3213,-2.3187,-2.3224,-2.3161,-2.3137,-2.3371,-2.3748,-2.3963,-2.4203,-2.4357,-2.4519,-2.4463,-1.482,-1.5043,-1.5213,-1.5497,-1.5832,-1.5867,-1.6044,-1.6342,-1.6377,-1.6595,-1.6874,-1.6621,-1.6726,-1.6874,-1.7081,-1.7382,-1.7676,-1.7993,-1.8705,-1.9595,-2.0067,-2.0935,-2.1661,-2.2138,-2.2365,-2.2665,-2.2964,-2.3187,-2.3457,-2.3641,-2.3824,-2.397,-2.4043,-2.408,-2.4225,-2.4273,-2.4273,-2.4273,-2.4261,-2.4298,-2.4116,-2.3897,-2.3751,-2.3677,-2.3714,-2.3714,-2.374,-2.3751,-2.3751,-2.3787,-2.3813,-2.3824,-2.3813,-2.3861,-2.3849,-2.3886,-2.3934,-2.3934,-2.3849,-2.3897,-2.3861,-2.3813,-2.3751,-2.3824,-2.397,-2.397,-2.3886,-2.3849,-2.3824,-2.3787,-2.3776,-2.3776,-2.3776,-2.3813,-2.3776,-2.3776,-2.3776,-2.3776,-2.3776,-2.3776,-2.3776,-2.3776,-2.3776,-2.3776,-2.374,-2.3751,-2.3751,-2.374,-2.3813,-2.4007,-2.4043,-2.397,-2.3934,-2.3861,-2.3677,-2.3593,-2.3567,-2.3482,-2.3409,-2.3519,-2.3556,-2.3482,-2.3446,-2.3519,-2.3519,-2.3482,-2.3687,-2.3757,-2.4104,-2.4422,-2.4698,-2.4951,-2.5355,-2.5499,-2.5653,-1.5284,-1.562,-1.5655,-1.5894,-1.6175,-1.6202,-1.6421,-1.676,-1.6795,-1.7021,-1.7323,-1.7451,-1.7451,-1.7392,-1.7666,-1.794,-1.8066,-1.8323,-1.9207,-2.0231,-2.0466,-2.1361,-2.2232,-2.2703,-2.3038,-2.3298,-2.3567,-2.3824,-2.3995,-2.4225,-2.4418,-2.4598,-2.461,-2.4646,-2.4682,-2.4718,-2.4742,-2.4742,-2.4742,-2.4778,-2.4707,-2.4503,-2.4261,-2.4236,-2.4345,-2.4418,-2.4502,-2.4574,-2.4574,-2.4574,-2.4526,-2.4526,-2.449,-2.449,-2.4478,-2.4442,-2.4454,-2.449,-2.4442,-2.4442,-2.4431,-2.4442,-2.4454,-2.4526,-2.4598,-2.4634,-2.4562,-2.4586,-2.4526,-2.4454,-2.4442,-2.4478,-2.4478,-2.449,-2.4526,-2.4526,-2.4526,-2.4526,-2.4526,-2.4526,-2.4526,-2.4526,-2.449,-2.449,-2.449,-2.449,-2.449,-2.4478,-2.4442,-2.449,-2.449,-2.4454,-2.4454,-2.4091,-2.3751,-2.3787,-2.3751,-2.3666,-2.3666,-2.3776,-2.374,-2.3593,-2.3593,-2.3703,-2.3666,-2.3629,-2.3868,-2.4202,-2.457,-2.4907,-2.534,-2.573,-2.6129,-2.6319,-2.627]},{"header":{"parameterUnit":"m.s-1","parameterCategory":1,"la1":31.0,"la2":29.5877,"lo1":-88.7671,"lo2":-86.6584,"dy":0.0162,"dx":0.0185,"nx":115,"ny":88,"refTime":"2023-08-29T06:00:00:Z","depth":0,"parameterNumber":3,"parameterNumberName":"V-component_of_WINDS"},"data":[0.0,0.0,0.0,0.0,0.0,0.0,0.0,0.0,0.0,0.0,0.0,0.0,0.0,0.0,0.0,0.0,0.0,0.0,0.0,0.0,0.0,0.0,0.0,0.0,0.0,0.0,0.0,0.0,0.0,0.0,0.0,0.0,0.0,0.0,0.0,0.0,0.0,0.0,0.0,0.0,0.0,0.0,0.0,0.0,0.0,0.0,0.0,0.0,0.0,0.0,0.0,0.0,0.0,0.0,0.0,0.0,0.0,0.0,0.0,0.0,0.0,0.0,0.0,0.0,0.0,0.0,0.0,0.0,0.0,0.0,0.0,0.0,0.0,0.0,0.0,0.0,0.0,0.0,0.0,0.0,0.0,0.0,0.0,0.0,0.0,0.0,0.0,0.0,0.0,0.0,0.0,0.0,0.0,0.0,0.0,0.0,0.0,0.0,0.0,0.0,0.0,0.0,0.0,0.0,0.0,0.0,0.0,0.0,0.0,0.0,0.0,0.0,0.0,0.0,0.0,0.0,0.0,0.0,0.0,0.0,0.0,0.0,0.0,0.0,0.0,0.0,0.0,0.0,0.0,0.0,0.0,0.0,0.0,0.0,0.0,0.0,0.0,0.0,0.0,0.0,0.0,0.0,0.0,0.0,0.0,0.0,0.0,0.0,0.0,0.0,0.0,0.0,0.0,0.0,0.0,0.0,0.0,0.0,0.0,0.0,0.0,0.0,0.0,0.0,0.0,0.0,0.0,0.0,0.0,0.0,0.0,0.0,0.0,0.0,0.0,0.0,0.0,0.0,0.0,0.0,0.0,0.0,0.0,0.0,0.0,0.0,0.0,0.0,0.0,0.0,0.0,0.0,0.0,0.0,0.0,0.0,0.0,0.0,0.0,0.0,0.0,0.0,0.0,0.0,0.0,0.0,0.0,0.0,0.0,0.0,0.0,0.0,0.0,0.0,0.0,0.0,0.0,0.0,0.0,0.0,0.0,0.0,0.0,0.0,0.0,0.0,0.0,0.0,0.0,0.0,0.0,0.0,0.0,0.0,0.0,0.0,0.0,0.0,0.0,0.0,0.0,0.0,0.0,0.0,0.0,0.0,0.0,0.0,0.0,0.0,0.0,0.0,0.0,0.0,0.0,0.0,0.0,0.0,0.0,0.0,0.0,0.0,0.0,0.0,0.0,0.0,0.0,0.0,0.0,0.0,0.0,0.0,0.0,0.0,0.0,0.0,0.0,0.0,0.0,0.0,0.0,0.0,0.0,0.0,0.0,0.0,0.0,0.0,0.0,0.0,0.0,0.0,0.0,0.0,0.0,0.0,0.0,0.0,0.0,0.0,0.0,0.0,0.0,0.0,0.0,0.0,0.0,0.0,0.0,0.0,0.0,0.0,0.0,0.0,0.0,0.0,0.0,0.0,0.0,0.0,0.0,0.0,0.0,0.0,0.0,0.0,0.0,0.0,0.0,0.0,0.0,0.0,0.0,0.0,0.0,0.0,0.0,0.0,0.0,0.0,0.0,0.0,0.0,0.0,0.0,0.0,0.0,0.0,0.0,0.0,0.0,0.0,0.0,0.0,0.0,0.0,0.0,0.0,0.0,0.0,0.0,0.0,0.0,0.0,0.0,0.0,0.0,0.0,0.0,0.0,0.0,0.0,0.0,0.0,0.0,0.0,0.0,0.0,0.0,0.0,0.0,0.0,0.0,0.0,0.0,0.0,0.0,0.0,0.0,0.0,0.0,0.0,0.0,0.0,0.0,0.0,0.0,0.0,0.0,0.0,0.0,0.0,0.0,0.0,0.0,0.0,0.0,0.0,0.0,0.0,0.0,0.0,0.0,0.0,0.0,0.0,0.0,0.0,0.0,0.0,0.0,0.0,0.0,0.0,0.0,0.0,0.0,0.0,0.0,0.0,0.0,0.0,0.0,0.0,0.0,0.0,0.0,0.0,0.0,0.0,0.0,0.0,0.0,0.0,0.0,0.0,0.0,0.0,0.0,0.0,0.0,0.0,0.0,0.0,0.0,0.0,0.0,0.0,0.0,0.0,0.0,0.0,0.0,0.0,0.0,0.0,0.0,0.0,0.0,0.0,0.0,0.0,0.0,0.0,0.0,0.0,0.0,0.0,0.0,0.0,0.0,0.0,0.0,0.0,0.0,0.0,0.0,0.0,0.0,0.0,0.0,0.0,0.0,0.0,0.0,0.0,0.0,0.0,0.0,0.0,0.0,0.0,0.0,0.0,0.0,0.0,0.0,0.0,0.0,0.0,0.0,0.0,0.0,0.0,0.0,0.0,0.0,0.0,0.0,0.0,0.0,0.0,0.0,0.0,0.0,0.0,0.0,0.0,0.0,0.0,0.0,0.0,0.0,0.0,0.0,0.0,0.0,0.0,0.0,0.0,0.0,0.0,0.0,0.0,0.0,0.0,0.0,0.0,0.0,0.0,0.0,0.0,0.0,0.0,0.0,0.0,0.0,0.0,0.0,0.0,0.0,0.0,0.0,0.0,0.0,0.0,0.0,0.0,0.0,0.0,0.0,0.0,0.0,0.0,0.0,0.0,0.0,0.0,0.0,0.0,0.0,0.0,0.0,0.0,0.0,0.0,0.0,0.0,0.0,0.0,0.0,0.0,0.0,0.0,0.0,0.0,0.0,0.0,0.0,0.0,0.0,0.0,0.0,0.0,0.0,0.0,0.0,0.0,0.0,0.0,0.0,0.0,0.0,0.0,0.0,0.0,0.0,0.0,0.0,0.0,0.0,0.0,0.0,0.0,0.0,0.0,0.0,0.0,0.0,0.0,0.0,0.0,0.0,0.0,0.0,0.0,0.0,0.0,0.0,0.0,0.0,0.0,0.0,0.0,0.0,0.0,0.0,0.0,0.0,0.0,0.0,0.0,0.0,0.0,0.0,0.0,0.0,0.0,0.0,0.0,0.0,0.0,0.0,0.0,0.0,0.0,0.0,0.0,0.0,0.0,0.0,0.0,0.0,0.0,0.0,0.0,0.0,0.0,0.0,0.0,0.0,0.0,0.0,0.0,0.0,0.0,0.0,0.0,0.0,0.0,0.0,0.0,0.0,0.0,0.0,0.0,0.0,0.0,0.0,0.0,0.0,0.0,0.0,0.0,0.0,0.0,0.0,0.0,0.0,0.0,0.0,0.0,0.0,0.0,0.0,0.0,0.0,0.0,0.0,0.0,0.0,0.0,0.0,0.0,0.0,0.0,0.0,0.0,0.0,0.0,0.0,0.0,0.0,0.0,0.0,0.0,0.0,0.0,0.0,0.0,0.0,0.0,0.0,0.0,0.0,0.0,0.0,0.0,0.0,0.0,0.0,0.0,0.0,0.0,0.0,0.0,0.0,0.0,0.0,0.0,0.0,0.0,0.0,0.0,0.0,0.0,0.0,0.0,0.0,0.0,0.0,0.0,0.0,0.0,0.0,0.0,0.0,0.0,0.0,0.0,0.0,0.0,0.0,0.0,0.0,0.0,0.0,0.0,0.0,0.0,0.0,0.0,0.0,0.0,0.0,0.0,0.0,0.0,0.0,0.0,0.0,0.0,0.0,0.0,0.0,0.0,0.0,0.0,0.0,0.0,0.0,0.0,0.0,0.0,0.0,0.0,0.0,0.0,0.0,0.0,0.0,0.0,0.0,0.0,0.0,0.0,0.0,0.0,0.0,0.0,0.0,0.0,0.0,0.0,0.0,0.0,0.0,0.0,0.0,0.0,0.0,0.0,0.0,0.0,0.0,0.0,0.0,0.0,0.0,0.0,0.0,0.0,0.0,0.0,0.0,0.0,0.0,0.0,0.0,0.0,0.0,0.0,0.0,0.0,0.0,0.0,0.0,0.0,0.0,0.0,0.0,0.0,0.0,0.0,0.0,0.0,0.0,0.0,0.0,0.0,0.0,0.0,0.0,0.0,0.0,0.0,0.0,0.0,0.0,0.0,0.0,0.0,0.0,0.0,0.0,0.0,0.0,0.0,0.0,0.0,0.0,0.0,0.0,0.0,0.0,0.0,0.0,0.0,0.0,0.0,0.0,0.0,0.0,0.0,0.0,0.0,0.0,0.0,0.0,0.0,0.0,0.0,0.0,0.0,0.0,0.0,0.0,0.0,0.0,0.0,0.0,0.0,0.0,0.0,0.0,0.0,0.0,0.0,0.0,0.0,0.0,0.0,0.0,0.0,0.0,0.0,0.0,0.0,0.0,0.0,0.0,0.0,0.0,0.0,0.0,0.0,0.0,0.0,0.0,0.0,0.0,0.0,0.0,0.0,0.0,0.0,2.3107,0.0,0.0,0.0,0.0,0.0,0.0,0.0,0.0,0.0,0.0,0.0,0.0,0.0,0.0,0.0,0.0,0.0,0.0,0.0,0.0,0.0,0.0,0.0,0.0,0.0,0.0,0.0,0.0,0.0,0.0,0.0,0.0,0.0,0.0,0.0,0.0,0.0,0.0,0.0,0.0,0.0,0.0,0.0,0.0,0.0,0.0,0.0,0.0,0.0,0.0,0.0,0.0,0.0,0.0,0.0,0.0,0.0,0.0,0.0,0.0,0.0,0.0,0.0,0.0,0.0,0.0,0.0,0.0,0.0,0.0,0.0,0.0,0.0,0.0,0.0,0.0,0.0,0.0,0.0,0.0,0.0,0.0,0.0,0.0,0.0,0.0,0.0,0.0,0.0,0.0,0.0,0.0,0.0,0.0,0.0,0.0,0.0,0.0,0.0,0.0,0.0,0.0,0.0,0.0,0.0,0.0,0.0,0.0,0.0,0.0,2.3107,2.3107,2.3107,2.3107,2.3107,0.0,0.0,0.0,0.0,0.0,0.0,0.0,0.0,0.0,0.0,0.0,0.0,0.0,0.0,0.0,0.0,0.0,0.0,0.0,0.0,0.0,0.0,0.0,0.0,0.0,0.0,0.0,0.0,0.0,0.0,0.0,0.0,0.0,0.0,0.0,0.0,0.0,0.0,0.0,0.0,0.0,0.0,0.0,0.0,0.0,0.0,0.0,0.0,0.0,0.0,0.0,0.0,0.0,0.0,0.0,0.0,0.0,0.0,0.0,0.0,0.0,0.0,0.0,0.0,0.0,0.0,0.0,0.0,0.0,0.0,0.0,0.0,0.0,0.0,0.0,0.0,0.0,0.0,0.0,0.0,0.0,0.0,0.0,0.0,0.0,0.0,0.0,0.0,0.0,0.0,0.0,0.0,0.0,0.0,0.0,0.0,0.0,0.0,0.0,0.0,0.0,0.0,0.0,0.0,0.0,0.0,0.0,0.0,0.0,0.0,0.0,0.0,2.3107,2.3107,2.3132,0.0,0.0,0.0,0.0,0.0,0.0,0.0,0.0,0.0,0.0,0.0,0.0,0.0,0.0,0.0,0.0,0.0,0.0,0.0,0.0,0.0,0.0,0.0,0.0,0.0,0.0,0.0,0.0,0.0,0.0,0.0,0.0,0.0,0.0,0.0,0.0,0.0,0.0,0.0,0.0,0.0,0.0,0.0,0.0,0.0,0.0,0.0,0.0,0.0,0.0,0.0,0.0,0.0,0.0,0.0,0.0,0.0,0.0,0.0,0.0,0.0,0.0,0.0,0.0,0.0,0.0,0.0,0.0,0.0,0.0,0.0,0.0,0.0,0.0,0.0,0.0,0.0,0.0,0.0,0.0,0.0,0.0,0.0,0.0,0.0,0.0,0.0,0.0,0.0,0.0,0.0,0.0,0.0,0.0,0.0,0.0,0.0,0.0,0.0,0.0,0.0,0.0,0.0,0.0,0.0,0.0,0.0,0.0,0.0,0.0,2.3107,2.3107,2.3107,0.0,2.3193,0.0,0.0,0.0,0.0,0.0,0.0,0.0,0.0,0.0,0.0,0.0,0.0,0.0,0.0,0.0,0.0,0.0,0.0,0.0,0.0,0.0,0.0,0.0,0.0,0.0,0.0,0.0,0.0,0.0,0.0,0.0,0.0,0.0,0.0,0.0,0.0,0.0,0.0,0.0,0.0,0.0,0.0,0.0,0.0,0.0,0.0,0.0,0.0,0.0,0.0,0.0,0.0,0.0,0.0,0.0,0.0,0.0,0.0,0.0,0.0,0.0,0.0,0.0,0.0,0.0,0.0,0.0,0.0,0.0,0.0,0.0,0.0,0.0,0.0,0.0,0.0,0.0,0.0,0.0,0.0,0.0,0.0,0.0,0.0,0.0,0.0,0.0,0.0,0.0,0.0,0.0,0.0,0.0,0.0,0.0,0.0,0.0,0.0,0.0,0.0,0.0,0.0,0.0,0.0,0.0,0.0,0.0,0.0,0.0,0.0,2.3107,2.3107,2.3126,2.3193,0.0,0.0,0.0,0.0,0.0,0.0,0.0,0.0,0.0,0.0,0.0,0.0,0.0,0.0,0.0,0.0,0.0,0.0,0.0,0.0,0.0,0.0,0.0,0.0,0.0,0.0,0.0,0.0,0.0,0.0,0.0,0.0,0.0,0.0,0.0,0.0,0.0,0.0,0.0,0.0,0.0,0.0,0.0,0.0,0.0,0.0,0.0,0.0,0.0,0.0,0.0,0.0,0.0,0.0,0.0,0.0,0.0,0.0,0.0,0.0,0.0,0.0,0.0,0.0,0.0,0.0,0.0,0.0,0.0,0.0,0.0,0.0,0.0,0.0,0.0,0.0,0.0,0.0,0.0,0.0,0.0,0.0,0.0,0.0,0.0,0.0,0.0,0.0,0.0,0.0,0.0,0.0,0.0,0.0,0.0,0.0,0.0,0.0,0.0,0.0,0.0,0.0,0.0,0.0,0.0,0.0,0.0,0.0,0.0,0.0,2.3156,2.3156,2.3156,2.3229,2.3295,2.3324,0.0,0.0,0.0,0.0,0.0,0.0,0.0,0.0,0.0,0.0,0.0,0.0,0.0,0.0,0.0,0.0,0.0,0.0,0.0,0.0,0.0,0.0,0.0,0.0,0.0,0.0,0.0,0.0,0.0,0.0,0.0,0.0,0.0,0.0,0.0,0.0,0.0,0.0,0.0,0.0,0.0,0.0,0.0,0.0,0.0,0.0,0.0,0.0,0.0,0.0,0.0,0.0,0.0,0.0,0.0,0.0,0.0,0.0,0.0,0.0,0.0,0.0,0.0,0.0,0.0,0.0,0.0,0.0,0.0,0.0,0.0,0.0,0.0,0.0,0.0,0.0,0.0,0.0,0.0,0.0,0.0,0.0,0.0,0.0,0.0,0.0,0.0,0.0,0.0,0.0,0.0,0.0,0.0,0.0,0.0,0.0,0.0,0.0,0.0,0.0,0.0,0.0,0.0,0.0,0.0,0.0,0.0,0.0,2.3289,2.3307,2.3307,2.3307,2.336,2.3401,0.0,0.0,0.0,0.0,0.0,0.0,0.0,0.0,0.0,0.0,0.0,0.0,0.0,0.0,0.0,0.0,0.0,0.0,0.0,0.0,0.0,0.0,0.0,0.0,0.0,0.0,0.0,0.0,0.0,0.0,0.0,0.0,0.0,0.0,0.0,0.0,0.0,0.0,0.0,0.0,0.0,0.0,0.0,0.0,0.0,0.0,0.0,0.0,0.0,0.0,0.0,0.0,0.0,0.0,0.0,0.0,0.0,0.0,0.0,0.0,0.0,0.0,0.0,0.0,0.0,0.0,0.0,0.0,0.0,0.0,0.0,0.0,0.0,0.0,0.0,0.0,0.0,0.0,0.0,0.0,0.0,0.0,0.0,0.0,0.0,0.0,0.0,0.0,0.0,0.0,0.0,0.0,0.0,0.0,0.0,0.0,0.0,0.0,0.0,0.0,0.0,0.0,0.0,0.0,0.0,0.0,0.0,0.0,0.0,2.3318,2.3808,2.4086,2.4135,2.4159,2.4207,0.0,0.0,0.0,0.0,0.0,0.0,0.0,0.0,0.0,0.0,0.0,0.0,0.0,0.0,0.0,0.0,0.0,0.0,0.0,0.0,0.0,0.0,0.0,0.0,0.0,0.0,0.0,0.0,0.0,0.0,0.0,0.0,0.0,0.0,0.0,0.0,0.0,0.0,0.0,0.0,0.0,0.0,0.0,0.0,0.0,0.0,0.0,0.0,0.0,0.0,0.0,0.0,0.0,0.0,0.0,0.0,0.0,0.0,0.0,0.0,0.0,0.0,0.0,0.0,0.0,0.0,0.0,0.0,0.0,0.0,0.0,0.0,0.0,0.0,0.0,0.0,0.0,0.0,0.0,0.0,0.0,0.0,0.0,0.0,0.0,0.0,0.0,0.0,0.0,0.0,0.0,0.0,0.0,0.0,0.0,0.0,0.0,0.0,0.0,0.0,0.0,0.0,0.0,0.0,0.0,0.0,0.0,0.0,0.0,2.3448,0.0,2.4658,2.4706,2.4706,2.4742,0.0,0.0,0.0,0.0,0.0,0.0,0.0,0.0,0.0,0.0,0.0,0.0,0.0,0.0,0.0,0.0,0.0,0.0,0.0,0.0,0.0,0.0,0.0,0.0,0.0,0.0,0.0,0.0,0.0,0.0,0.0,0.0,0.0,0.0,0.0,0.0,0.0,0.0,0.0,0.0,0.0,0.0,0.0,0.0,0.0,0.0,0.0,0.0,0.0,0.0,0.0,0.0,0.0,0.0,0.0,0.0,0.0,0.0,0.0,0.0,0.0,0.0,0.0,0.0,0.0,0.0,0.0,0.0,0.0,0.0,0.0,0.0,0.0,0.0,0.0,0.0,0.0,0.0,0.0,0.0,0.0,0.0,0.0,0.0,0.0,0.0,0.0,0.0,0.0,0.0,0.0,0.0,0.0,0.0,0.0,0.0,0.0,0.0,0.0,0.0,0.0,0.0,0.0,0.0,0.0,0.0,0.0,0.0,2.3658,2.3743,2.4527,2.4977,2.4923,2.4995,2.4959,0.0,0.0,0.0,0.0,0.0,0.0,0.0,0.0,0.0,0.0,0.0,0.0,0.0,0.0,0.0,0.0,0.0,0.0,0.0,0.0,0.0,0.0,0.0,0.0,0.0,0.0,0.0,0.0,0.0,0.0,0.0,0.0,0.0,0.0,0.0,0.0,0.0,0.0,0.0,0.0,0.0,0.0,0.0,0.0,0.0,0.0,0.0,0.0,0.0,0.0,0.0,0.0,0.0,0.0,0.0,0.0,0.0,0.0,0.0,0.0,0.0,0.0,0.0,0.0,0.0,0.0,0.0,0.0,0.0,0.0,0.0,0.0,0.0,0.0,0.0,0.0,0.0,0.0,0.0,0.0,0.0,0.0,0.0,0.0,0.0,0.0,0.0,0.0,0.0,0.0,0.0,0.0,0.0,0.0,0.0,0.0,0.0,0.0,0.0,0.0,0.0,0.0,0.0,0.0,0.0,0.0,0.0,0.0,0.0,2.4595,2.5375,2.6049,2.6585,2.6621,2.6368,0.0,0.0,0.0,0.0,0.0,0.0,0.0,0.0,0.0,0.0,0.0,0.0,0.0,0.0,0.0,0.0,0.0,0.0,0.0,0.0,0.0,0.0,0.0,0.0,0.0,0.0,0.0,0.0,0.0,0.0,0.0,0.0,0.0,0.0,0.0,0.0,0.0,0.0,0.0,0.0,0.0,0.0,0.0,0.0,0.0,0.0,0.0,0.0,0.0,0.0,0.0,0.0,0.0,0.0,0.0,0.0,0.0,0.0,0.0,0.0,0.0,0.0,0.0,0.0,0.0,0.0,0.0,0.0,0.0,0.0,0.0,0.0,0.0,0.0,0.0,0.0,0.0,0.0,0.0,0.0,0.0,0.0,0.0,0.0,0.0,0.0,0.0,0.0,0.0,0.0,0.0,0.0,0.0,0.0,0.0,0.0,0.0,0.0,0.0,0.0,0.0,0.0,0.0,0.0,0.0,0.0,0.0,0.0,0.0,2.569,2.6118,2.6741,2.7547,2.7541,2.7136,2.6343,0.0,0.0,0.0,0.0,0.0,0.0,0.0,0.0,0.0,0.0,0.0,0.0,0.0,0.0,0.0,0.0,0.0,0.0,0.0,0.0,0.0,0.0,0.0,0.0,0.0,0.0,0.0,0.0,0.0,0.0,0.0,0.0,0.0,0.0,0.0,0.0,0.0,0.0,0.0,0.0,0.0,0.0,0.0,0.0,0.0,0.0,0.0,0.0,0.0,0.0,0.0,0.0,0.0,0.0,0.0,0.0,0.0,0.0,0.0,0.0,0.0,0.0,0.0,0.0,0.0,0.0,0.0,0.0,0.0,0.0,0.0,0.0,0.0,0.0,0.0,0.0,0.0,0.0,0.0,0.0,0.0,0.0,0.0,0.0,0.0,0.0,0.0,0.0,0.0,0.0,0.0,0.0,0.0,0.0,0.0,0.0,0.0,0.0,0.0,0.0,0.0,0.0,0.0,0.0,0.0,0.0,0.0,0.0,2.6981,2.6794,2.7103,2.7875,2.7838,2.7383,0.0,0.0,0.0,0.0,0.0,0.0,0.0,0.0,0.0,0.0,0.0,0.0,0.0,0.0,0.0,0.0,0.0,0.0,0.0,0.0,0.0,0.0,0.0,0.0,0.0,0.0,0.0,0.0,0.0,0.0,0.0,0.0,0.0,0.0,0.0,0.0,0.0,0.0,0.0,0.0,0.0,0.0,0.0,0.0,0.0,0.0,0.0,0.0,0.0,0.0,0.0,0.0,0.0,0.0,0.0,0.0,0.0,0.0,0.0,0.0,0.0,0.0,0.0,0.0,0.0,0.0,0.0,0.0,0.0,0.0,0.0,0.0,0.0,0.0,0.0,0.0,0.0,0.0,0.0,0.0,0.0,0.0,0.0,0.0,0.0,0.0,0.0,0.0,0.0,0.0,0.0,0.0,0.0,0.0,0.0,0.0,0.0,0.0,0.0,0.0,0.0,0.0,0.0,0.0,0.0,0.0,0.0,0.0,0.0,2.7922,2.796,2.8258,2.8957,2.8918,2.816,0.0,0.0,0.0,0.0,0.0,0.0,0.0,0.0,0.0,0.0,0.0,0.0,0.0,0.0,0.0,0.0,0.0,0.0,0.0,0.0,0.0,0.0,0.0,0.0,0.0,0.0,0.0,0.0,0.0,0.0,0.0,0.0,0.0,0.0,0.0,0.0,0.0,0.0,0.0,0.0,0.0,0.0,0.0,0.0,0.0,0.0,0.0,0.0,0.0,0.0,0.0,0.0,0.0,0.0,0.0,0.0,0.0,0.0,0.0,0.0,0.0,0.0,0.0,0.0,0.0,0.0,0.0,0.0,0.0,0.0,0.0,0.0,0.0,0.0,0.0,0.0,0.0,0.0,0.0,0.0,0.0,0.0,0.0,0.0,0.0,0.0,0.0,0.0,0.0,0.0,0.0,0.0,0.0,0.0,0.0,0.0,0.0,0.0,0.0,0.0,0.0,0.0,0.0,0.0,0.0,0.0,0.0,0.0,2.7131,2.8547,2.8873,2.9236,2.969,2.9501,2.8597,0.0,0.0,0.0,0.0,0.0,0.0,0.0,0.0,0.0,0.0,0.0,0.0,0.0,0.0,0.0,0.0,0.0,0.0,0.0,0.0,0.0,0.0,0.0,0.0,0.0,0.0,0.0,0.0,0.0,0.0,0.0,0.0,0.0,0.0,0.0,0.0,0.0,0.0,0.0,0.0,0.0,0.0,0.0,0.0,0.0,0.0,0.0,0.0,0.0,0.0,0.0,0.0,0.0,0.0,0.0,0.0,0.0,0.0,0.0,0.0,0.0,0.0,0.0,0.0,0.0,0.0,0.0,0.0,0.0,0.0,0.0,0.0,0.0,0.0,0.0,0.0,0.0,0.0,0.0,0.0,0.0,0.0,0.0,0.0,0.0,0.0,0.0,0.0,0.0,0.0,0.0,0.0,0.0,0.0,0.0,0.0,0.0,0.0,0.0,0.0,0.0,0.0,0.0,0.0,0.0,0.0,0.0,0.0,2.7869,2.8929,2.9589,2.9988,3.0083,2.9736,2.8764,0.0,0.0,0.0,0.0,0.0,0.0,0.0,0.0,0.0,0.0,0.0,0.0,0.0,0.0,0.0,0.0,0.0,0.0,0.0,0.0,0.0,0.0,0.0,0.0,0.0,0.0,0.0,0.0,0.0,0.0,0.0,0.0,0.0,0.0,0.0,0.0,0.0,0.0,0.0,0.0,0.0,0.0,0.0,0.0,0.0,0.0,0.0,0.0,0.0,0.0,0.0,0.0,0.0,0.0,0.0,0.0,0.0,0.0,0.0,0.0,0.0,0.0,0.0,0.0,0.0,0.0,0.0,0.0,0.0,0.0,0.0,0.0,0.0,0.0,0.0,0.0,0.0,0.0,0.0,0.0,0.0,0.0,0.0,0.0,0.0,0.0,0.0,0.0,0.0,0.0,0.0,0.0,0.0,0.0,0.0,0.0,0.0,0.0,0.0,0.0,0.0,0.0,0.0,0.0,0.0,0.0,0.0,0.0,2.8301,2.9848,3.0061,3.0138,3.0173,2.988,2.8955,0.0,0.0,0.0,0.0,0.0,0.0,0.0,0.0,0.0,0.0,0.0,0.0,0.0,0.0,0.0,0.0,0.0,0.0,0.0,0.0,0.0,0.0,0.0,0.0,0.0,0.0,0.0,0.0,0.0,0.0,0.0,0.0,0.0,0.0,0.0,0.0,0.0,0.0,0.0,0.0,0.0,0.0,0.0,0.0,0.0,0.0,0.0,0.0,2.7998,0.0,0.0,0.0,0.0,0.0,0.0,0.0,0.0,0.0,0.0,0.0,0.0,0.0,0.0,0.0,0.0,0.0,0.0,0.0,0.0,0.0,0.0,0.0,0.0,0.0,0.0,0.0,0.0,0.0,0.0,0.0,0.0,0.0,0.0,0.0,0.0,0.0,0.0,0.0,0.0,0.0,0.0,0.0,0.0,0.0,0.0,0.0,0.0,0.0,0.0,0.0,0.0,0.0,0.0,0.0,0.0,0.0,0.0,0.0,2.8492,3.0228,3.0312,3.0299,3.0286,3.0118,2.9205,0.0,0.0,0.0,0.0,0.0,0.0,0.0,0.0,0.0,0.0,0.0,0.0,0.0,0.0,0.0,0.0,0.0,0.0,0.0,0.0,0.0,0.0,0.0,0.0,0.0,0.0,0.0,0.0,0.0,0.0,0.0,0.0,0.0,0.0,0.0,0.0,0.0,0.0,0.0,0.0,0.0,0.0,0.0,0.0,0.0,0.0,0.0,0.0,0.0,0.0,0.0,0.0,0.0,0.0,0.0,0.0,0.0,0.0,0.0,0.0,0.0,0.0,0.0,0.0,0.0,0.0,0.0,0.0,0.0,0.0,0.0,0.0,0.0,0.0,0.0,0.0,0.0,0.0,0.0,0.0,0.0,0.0,0.0,0.0,0.0,0.0,0.0,0.0,0.0,0.0,0.0,0.0,0.0,0.0,0.0,0.0,0.0,0.0,0.0,0.0,0.0,0.0,0.0,0.0,0.0,0.0,0.0,2.7618,2.8533,3.0133,3.035,3.0419,3.0403,3.0348,2.9481,2.7719,0.0,0.0,0.0,0.0,0.0,0.0,0.0,0.0,0.0,0.0,0.0,0.0,0.0,0.0,0.0,0.0,0.0,0.0,0.0,0.0,0.0,0.0,0.0,0.0,0.0,0.0,0.0,0.0,0.0,0.0,0.0,0.0,0.0,0.0,0.0,0.0,0.0,0.0,2.2759,2.5401,0.0,0.0,0.0,0.0,0.0,0.0,0.0,0.0,2.956,0.0,0.0,0.0,0.0,0.0,0.0,0.0,0.0,0.0,0.0,0.0,0.0,0.0,0.0,0.0,0.0,0.0,0.0,0.0,0.0,0.0,0.0,0.0,0.0,0.0,0.0,0.0,0.0,0.0,0.0,0.0,0.0,0.0,0.0,0.0,0.0,0.0,0.0,0.0,0.0,0.0,0.0,0.0,0.0,0.0,0.0,0.0,0.0,0.0,0.0,0.0,0.0,0.0,0.0,0.0,0.0,2.6665,2.7456,2.8373,2.9371,3.0109,3.0495,3.0481,3.0493,2.9655,2.7967,0.0,0.0,0.0,0.0,0.0,0.0,0.0,0.0,0.0,0.0,0.0,0.0,0.0,0.0,0.0,0.0,0.0,0.0,0.0,0.0,0.0,0.0,0.0,0.0,0.0,0.0,0.0,0.0,0.0,0.0,0.0,0.0,0.0,0.0,0.0,0.0,0.0,0.0,0.0,2.6133,2.7291,0.0,0.0,0.0,0.0,0.0,0.0,0.0,0.0,2.9698,0.0,0.0,0.0,0.0,0.0,0.0,0.0,0.0,0.0,0.0,0.0,0.0,0.0,0.0,0.0,0.0,0.0,0.0,0.0,0.0,0.0,0.0,0.0,0.0,0.0,0.0,0.0,0.0,0.0,0.0,0.0,0.0,0.0,0.0,0.0,0.0,0.0,0.0,0.0,0.0,0.0,0.0,0.0,0.0,0.0,0.0,0.0,0.0,0.0,0.0,0.0,0.0,0.0,0.0,0.0,2.6466,2.7012,2.7923,2.9206,2.9713,3.0132,3.0515,3.0119,2.9289,0.0,0.0,0.0,0.0,0.0,0.0,0.0,0.0,0.0,0.0,0.0,0.0,0.0,0.0,0.0,0.0,0.0,0.0,0.0,0.0,0.0,0.0,0.0,0.0,0.0,0.0,0.0,0.0,0.0,0.0,0.0,0.0,0.0,0.0,0.0,0.0,0.0,0.0,0.0,0.0,2.6623,2.7528,2.8006,0.0,0.0,0.0,0.0,0.0,0.0,2.9857,3.0017,0.0,0.0,0.0,0.0,0.0,0.0,0.0,0.0,0.0,0.0,0.0,0.0,0.0,0.0,0.0,0.0,0.0,0.0,0.0,0.0,0.0,0.0,0.0,0.0,0.0,0.0,0.0,0.0,0.0,0.0,0.0,0.0,0.0,0.0,0.0,0.0,0.0,0.0,0.0,0.0,0.0,0.0,0.0,0.0,0.0,0.0,0.0,0.0,0.0,0.0,0.0,0.0,0.0,0.0,0.0,2.6259,2.6544,2.7379,2.8724,2.9028,2.9451,3.0048,2.9418,2.8634,0.0,0.0,0.0,0.0,0.0,0.0,0.0,0.0,0.0,0.0,0.0,0.0,0.0,0.0,0.0,0.0,0.0,0.0,0.0,0.0,0.0,0.0,0.0,0.0,0.0,0.0,0.0,0.0,0.0,0.0,0.0,0.0,0.0,0.0,0.0,0.0,0.0,0.0,0.0,0.0,0.0,2.796,2.8719,2.9467,0.0,0.0,0.0,0.0,3.0173,3.0203,0.0,0.0,0.0,0.0,0.0,0.0,0.0,0.0,0.0,0.0,0.0,0.0,0.0,0.0,0.0,0.0,0.0,0.0,0.0,0.0,0.0,0.0,0.0,0.0,0.0,0.0,0.0,0.0,0.0,0.0,0.0,0.0,0.0,0.0,0.0,0.0,0.0,0.0,0.0,0.0,0.0,0.0,0.0,0.0,0.0,0.0,0.0,0.0,0.0,0.0,0.0,0.0,0.0,0.0,0.0,0.0,2.5551,2.6309,2.6812,2.7103,2.7863,2.8309,2.8387,2.8286,2.7811,0.0,0.0,0.0,0.0,0.0,0.0,0.0,0.0,0.0,0.0,0.0,0.0,0.0,0.0,0.0,0.0,0.0,0.0,0.0,0.0,0.0,0.0,0.0,0.0,0.0,0.0,0.0,0.0,0.0,0.0,0.0,0.0,0.0,0.0,0.0,0.0,0.0,0.0,0.0,0.0,0.0,2.8705,2.8874,2.9553,3.0068,0.0,0.0,3.0417,3.1112,3.1245,0.0,0.0,0.0,0.0,0.0,0.0,0.0,0.0,0.0,0.0,0.0,0.0,0.0,0.0,0.0,0.0,0.0,0.0,0.0,0.0,0.0,0.0,0.0,0.0,0.0,0.0,0.0,0.0,0.0,0.0,0.0,0.0,0.0,0.0,0.0,0.0,0.0,0.0,0.0,0.0,0.0,0.0,0.0,0.0,0.0,0.0,0.0,0.0,0.0,0.0,0.0,0.0,0.0,0.0,0.0,2.5388,2.5464,2.5867,2.631,2.6806,2.7201,2.7883,2.8812,2.8378,2.8147,0.0,0.0,0.0,0.0,0.0,0.0,0.0,0.0,0.0,0.0,0.0,0.0,0.0,0.0,0.0,0.0,0.0,0.0,0.0,0.0,0.0,0.0,0.0,0.0,0.0,0.0,0.0,0.0,0.0,0.0,0.0,0.0,0.0,0.0,0.0,0.0,0.0,0.0,0.0,0.0,0.0,0.0,2.9621,3.001,0.0,0.0,0.0,3.1127,3.1458,0.0,0.0,0.0,0.0,0.0,0.0,0.0,0.0,0.0,0.0,0.0,0.0,0.0,0.0,0.0,0.0,0.0,0.0,0.0,0.0,0.0,0.0,0.0,0.0,0.0,0.0,0.0,0.0,0.0,0.0,0.0,0.0,0.0,0.0,0.0,0.0,0.0,0.0,0.0,0.0,0.0,0.0,0.0,0.0,0.0,0.0,0.0,0.0,0.0,0.0,0.0,0.0,0.0,0.0,0.0,0.0,0.0,2.5507,2.556,2.5994,2.6777,2.687,2.7595,2.9026,2.8469,0.0,0.0,0.0,0.0,0.0,0.0,0.0,0.0,0.0,0.0,0.0,0.0,0.0,0.0,0.0,0.0,0.0,0.0,0.0,0.0,0.0,0.0,0.0,0.0,0.0,0.0,0.0,2.3185,0.0,0.0,0.0,0.0,0.0,0.0,0.0,0.0,0.0,0.0,0.0,0.0,0.0,0.0,2.9589,3.0257,3.0336,3.04,0.0,0.0,3.1789,3.218,3.2762,3.3454,0.0,0.0,0.0,0.0,0.0,0.0,0.0,0.0,0.0,0.0,0.0,0.0,0.0,0.0,0.0,0.0,0.0,0.0,0.0,0.0,0.0,0.0,0.0,0.0,0.0,0.0,0.0,0.0,0.0,0.0,0.0,0.0,0.0,0.0,0.0,0.0,0.0,0.0,0.0,0.0,0.0,0.0,0.0,0.0,0.0,0.0,0.0,0.0,0.0,0.0,0.0,0.0,0.0,0.0,0.0,2.5511,2.5564,2.6015,2.6865,2.6882,2.7332,2.8229,2.8226,2.8214,0.0,0.0,0.0,0.0,0.0,0.0,0.0,0.0,0.0,0.0,0.0,0.0,0.0,0.0,0.0,0.0,0.0,0.0,0.0,0.0,0.0,0.0,0.0,0.0,0.0,0.0,0.0,0.0,0.0,0.0,0.0,0.0,0.0,0.0,0.0,0.0,0.0,0.0,0.0,0.0,0.0,3.0344,3.0469,3.0447,3.0687,0.0,0.0,3.2295,3.3807,3.4071,3.4411,3.5328,0.0,0.0,0.0,0.0,0.0,0.0,0.0,0.0,0.0,0.0,0.0,0.0,0.0,0.0,0.0,0.0,0.0,0.0,0.0,0.0,0.0,0.0,0.0,0.0,0.0,0.0,0.0,0.0,0.0,0.0,0.0,0.0,0.0,0.0,0.0,0.0,0.0,0.0,0.0,0.0,0.0,0.0,0.0,0.0,0.0,0.0,0.0,0.0,0.0,0.0,0.0,0.0,0.0,2.5511,2.5564,2.6129,2.6557,2.6904,2.7417,2.8137,2.8982,2.9002,2.9204,0.0,0.0,0.0,0.0,0.0,0.0,0.0,0.0,0.0,0.0,0.0,0.0,0.0,0.0,0.0,0.0,0.0,0.0,0.0,0.0,0.0,0.0,0.0,0.0,0.0,0.0,0.0,0.0,2.521,2.5245,2.5331,0.0,0.0,0.0,0.0,0.0,0.0,0.0,0.0,0.0,0.0,3.0491,3.055,3.0511,0.0,0.0,3.228,3.2998,3.4133,3.4745,3.5176,3.5535,3.5587,0.0,0.0,0.0,0.0,0.0,0.0,0.0,0.0,0.0,0.0,0.0,0.0,0.0,0.0,0.0,0.0,0.0,0.0,0.0,0.0,0.0,0.0,0.0,0.0,0.0,0.0,0.0,0.0,0.0,0.0,0.0,0.0,0.0,0.0,0.0,0.0,0.0,0.0,0.0,0.0,0.0,0.0,0.0,0.0,0.0,0.0,0.0,0.0,0.0,0.0,0.0,0.0,2.5683,2.5985,2.6607,2.7167,2.7685,2.8272,2.9009,2.9839,2.9875,3.0155,0.0,0.0,0.0,0.0,0.0,0.0,0.0,0.0,0.0,0.0,0.0,0.0,0.0,0.0,0.0,0.0,0.0,0.0,0.0,0.0,0.0,0.0,0.0,0.0,0.0,0.0,0.0,0.0,2.5357,2.5371,2.5434,0.0,0.0,0.0,0.0,0.0,0.0,0.0,0.0,0.0,0.0,3.057,3.0614,3.0811,3.1271,3.2184,3.3,3.3839,3.4672,3.5311,3.5654,3.5654,0.0,0.0,0.0,0.0,0.0,0.0,0.0,0.0,0.0,0.0,0.0,0.0,0.0,0.0,0.0,0.0,0.0,0.0,0.0,0.0,0.0,0.0,0.0,0.0,0.0,0.0,0.0,0.0,0.0,0.0,2.4524,0.0,0.0,0.0,0.0,0.0,0.0,0.0,0.0,0.0,0.0,0.0,0.0,0.0,0.0,0.0,0.0,0.0,0.0,0.0,0.0,0.0,0.0,2.6046,2.6853,2.6937,2.7749,2.9347,2.9451,2.9877,3.0723,3.075,3.0739,3.0703,0.0,0.0,0.0,0.0,0.0,0.0,0.0,0.0,0.0,0.0,0.0,0.0,0.0,0.0,0.0,0.0,0.0,0.0,0.0,0.0,0.0,0.0,0.0,0.0,0.0,0.0,2.5495,2.5511,2.5496,0.0,0.0,0.0,0.0,0.0,0.0,0.0,0.0,0.0,0.0,3.0676,3.0717,3.0727,3.1439,3.2275,3.3144,3.3946,3.4769,3.56,3.5775,3.5795,0.0,0.0,0.0,0.0,0.0,0.0,0.0,0.0,0.0,0.0,0.0,0.0,0.0,0.0,0.0,0.0,0.0,0.0,0.0,0.0,0.0,0.0,0.0,0.0,0.0,0.0,0.0,2.4628,2.4659,0.0,0.0,0.0,0.0,0.0,0.0,0.0,0.0,0.0,0.0,0.0,2.6244,2.7086,0.0,0.0,0.0,0.0,0.0,0.0,0.0,0.0,0.0,0.0,0.0,0.0,2.7466,2.7777,2.832,2.8915,2.9503,3.0051,3.05,3.0788,3.0784,3.0798,3.0765,0.0,0.0,0.0,0.0,0.0,0.0,0.0,0.0,0.0,0.0,0.0,0.0,0.0,0.0,0.0,0.0,0.0,0.0,0.0,0.0,0.0,0.0,0.0,0.0,0.0,2.5579,0.0,0.0,0.0,0.0,0.0,0.0,0.0,0.0,0.0,0.0,0.0,3.0742,3.0723,3.1256,3.1629,3.1643,3.2344,3.3181,0.0,0.0,0.0,0.0,0.0,0.0,0.0,0.0,0.0,0.0,0.0,0.0,0.0,0.0,3.7526,3.7462,3.7453,3.7375,3.7104,0.0,0.0,0.0,0.0,0.0,0.0,0.0,0.0,0.0,0.0,0.0,0.0,0.0,0.0,2.547,0.0,2.5525,0.0,0.0,0.0,0.0,0.0,0.0,0.0,0.0,2.6725,2.7164,2.7262,2.8094,2.8518,0.0,2.886,2.8997,0.0,0.0,0.0,0.0,0.0,0.0,0.0,0.0,2.8338,2.8661,2.924,2.9677,2.9953,3.05,3.0791,3.0791,3.0789,3.0785,3.0798,3.079,3.0546,0.0,0.0,0.0,0.0,0.0,0.0,0.0,0.0,0.0,0.0,0.0,0.0,0.0,0.0,0.0,0.0,0.0,0.0,0.0,0.0,0.0,0.0,0.0,2.6082,0.0,0.0,0.0,0.0,0.0,0.0,0.0,0.0,0.0,3.0741,3.0764,3.0905,3.1219,3.1744,3.2227,3.2514,0.0,0.0,0.0,0.0,0.0,0.0,0.0,3.5936,3.5936,3.6189,3.666,3.7518,3.8124,3.8592,3.8907,0.0,0.0,3.8493,3.8439,3.842,3.8439,3.8439,3.8439,3.842,3.8439,3.8439,0.0,0.0,0.0,0.0,0.0,0.0,0.0,0.0,2.6421,2.689,0.0,2.6866,0.0,0.0,0.0,0.0,0.0,2.6337,0.0,0.0,2.7725,2.819,2.8362,2.9121,2.9544,2.9659,3.0416,3.081,3.0778,2.9138,0.0,0.0,0.0,0.0,0.0,0.0,2.8679,2.9524,2.9616,3.0011,3.0752,3.0791,3.0791,3.0791,3.0786,3.0803,3.0803,3.0803,3.0796,3.0781,3.0001,0.0,0.0,0.0,0.0,0.0,0.0,0.0,0.0,0.0,0.0,0.0,0.0,0.0,0.0,0.0,0.0,0.0,0.0,0.0,0.0,2.649,0.0,0.0,0.0,0.0,0.0,0.0,0.0,0.0,0.0,0.0,3.0874,3.0874,3.1149,3.1969,0.0,0.0,0.0,0.0,3.4727,3.4747,3.5448,3.5995,3.6014,3.6014,3.6014,3.6052,0.0,0.0,3.8417,3.8553,3.8885,3.9687,3.9843,3.958,3.8778,3.8667,3.8645,3.8664,3.8703,3.8606,3.8625,3.884,3.8806,2.839,0.0,0.0,0.0,0.0,2.7,2.7155,2.7448,2.7454,2.7619,2.7836,2.7614,0.0,0.0,0.0,0.0,0.0,0.0,2.7735,2.7846,2.8702,2.944,3.0091,3.0938,3.1646,3.2276,3.2529,3.2646,3.2628,3.2132,3.1262,3.0094,0.0,0.0,0.0,0.0,3.0166,3.0401,3.0447,3.0566,3.078,3.08,3.08,3.08,3.08,3.0799,3.0799,3.0799,3.0797,3.0791,3.0575,0.0,0.0,0.0,0.0,0.0,0.0,0.0,0.0,0.0,0.0,0.0,0.0,0.0,0.0,0.0,0.0,0.0,0.0,0.0,2.6554,2.7399,2.7929,0.0,0.0,0.0,0.0,0.0,0.0,0.0,0.0,0.0,3.1657,3.1728,3.1813,0.0,0.0,3.4021,3.4296,3.5058,3.5625,3.5625,3.584,0.0,0.0,3.6016,3.6211,3.6816,3.8124,3.9158,3.9393,3.994,4.0428,4.0682,4.0741,4.0642,4.0423,4.0349,4.0334,4.0352,4.0352,4.0352,4.0372,4.0822,4.1252,3.0991,2.9863,2.8473,2.7899,2.7899,2.8251,2.8641,2.9016,2.9018,2.9186,2.9465,2.8795,2.8485,2.8489,2.8209,0.0,0.0,0.0,2.8877,2.9268,3.0127,3.0974,3.1854,3.2363,3.289,3.3378,3.3378,3.3378,3.3378,3.3378,3.2871,3.1835,0.0,0.0,3.0796,3.08,3.0801,3.0801,3.0799,3.0798,3.0799,3.0819,3.0819,3.0799,3.0799,3.0799,3.0799,3.0799,3.082,3.0839,3.0839,3.0603,0.0,0.0,0.0,0.0,0.0,0.0,0.0,0.0,0.0,0.0,0.0,2.5785,2.6147,0.0,0.0,0.0,2.6679,2.6914,2.7418,2.8274,0.0,0.0,0.0,0.0,0.0,0.0,0.0,3.1213,3.1563,3.1932,3.2472,3.2832,3.3072,3.3087,3.3991,3.4778,3.5132,0.0,3.596,3.596,3.596,3.596,3.5958,3.6251,3.6897,3.8093,3.9114,3.9918,4.0289,4.0777,4.109,4.111,4.111,4.111,4.111,4.1113,4.1111,4.1106,4.1104,4.1202,4.1514,4.2042,4.2472,3.3423,3.3111,2.9816,2.8457,2.8508,2.9279,3.0113,3.0881,3.0898,3.1343,3.1958,3.0417,2.9705,2.9669,2.8944,0.0,2.8642,2.9445,3.0241,3.1031,3.1855,3.2673,3.3487,3.3481,3.3534,3.3605,3.3586,3.3604,3.3604,3.3604,3.3565,3.3467,3.2691,3.1855,3.1052,3.1011,3.0969,3.0906,3.09,3.0881,3.0788,3.0871,3.0852,3.0788,3.0788,3.0788,3.0788,3.0788,3.0832,3.0876,3.0876,3.0859,3.08,0.0,0.0,0.0,0.0,0.0,0.0,0.0,0.0,0.0,0.0,0.0,0.0,0.0,0.0,0.0,2.8245,0.0,2.8291,2.9092,0.0,0.0,0.0,3.086,3.0796,3.1568,3.2077,3.2071,0.0,0.0,3.3293,3.3992,3.4529,3.4652,3.4698,3.5,3.5766,3.587,3.588,3.5897,3.5897,3.5919,3.6092,3.6852,3.7971,3.9364,3.9847,4.0205,4.087,4.1065,4.1104,4.1085,4.1085,4.1104,4.1085,4.1087,4.1115,4.1111,4.1113,4.1367,4.2148,4.248,4.2832,3.436,3.4241,3.2752,3.2082,3.2052,3.2269,3.2472,3.2678,3.2683,3.281,3.2937,3.255,3.2407,3.2441,3.225,3.2164,3.2177,3.2378,3.2578,3.2791,3.2999,3.3556,3.4366,3.438,3.4702,3.5277,3.5295,3.5312,3.5303,3.53,3.4969,3.4343,3.4103,3.3594,3.2814,3.279,3.2455,3.1792,3.1783,3.1468,3.0827,3.083,3.0828,3.0788,3.0788,3.0788,3.0788,3.0788,3.0812,3.0821,3.0821,3.0824,3.0791,3.0618,0.0,0.0,0.0,0.0,0.0,0.0,0.0,0.0,0.0,2.7687,2.7898,0.0,2.7987,0.0,2.8758,2.9112,2.9124,2.9902,0.0,0.0,3.1147,3.1634,3.1624,3.2338,3.2839,3.2845,3.3006,3.3379,3.4027,3.4298,3.4642,3.5272,3.5437,3.5578,3.5815,3.5815,3.5818,3.5822,3.5841,3.6071,3.6759,3.8123,3.9231,3.9646,4.0276,4.08,4.0975,4.1014,4.1014,4.1034,4.1034,4.1014,4.1017,4.1064,4.1115,4.1107,4.1106,4.1374,4.2217,4.2902,4.3645,3.5848,3.5773,3.4913,3.4537,3.4482,3.4094,3.3914,3.392,3.3924,3.391,3.3895,3.3512,3.3364,3.3392,3.3391,3.3396,3.3379,3.3378,3.3608,3.3966,3.3991,3.4408,3.5217,3.5227,3.5468,3.5883,3.5883,3.5897,3.5891,3.5859,3.5603,3.5133,3.5126,3.4902,3.4467,3.3739,3.3119,3.2647,3.2255,3.1826,3.1358,3.0975,3.08,3.0798,3.0798,3.0798,3.0798,3.0798,3.0802,3.0792,3.0794,3.0796,3.0799,3.0785,3.0591,0.0,0.0,0.0,0.0,0.0,0.0,0.0,0.0,0.0,0.0,0.0,2.8888,2.923,2.968,3.0074,3.0432,3.0917,3.1344,3.1732,3.2146,3.2371,3.2381,3.3097,3.36,3.3602,3.3905,3.4305,3.4787,3.4845,3.4999,3.5469,3.5566,3.5644,3.5704,3.5694,3.5718,3.5718,3.5713,3.6169,3.7381,3.8714,3.977,4.0172,4.0649,4.0961,4.0941,4.0941,4.0961,4.0961,4.0953,4.0956,4.096,4.1013,4.1062,4.1068,4.1045,4.1542,4.2719,4.3347,4.4014,3.7479,3.7382,3.6523,3.6172,3.6094,3.5248,3.487,3.4866,3.4873,3.4874,3.4817,3.4061,3.373,3.373,3.373,3.3728,3.3721,3.3718,3.4137,3.486,3.4859,3.5215,3.5883,3.5891,3.5895,3.5898,3.5895,3.5891,3.5887,3.5827,3.5795,3.5784,3.5799,3.5786,3.5728,3.434,3.356,3.3453,3.259,3.2171,3.2174,3.1487,3.112,3.1109,3.1012,3.0956,3.0956,3.0837,3.0784,3.0794,3.0796,3.0794,3.0794,3.0794,3.0791,0.0,3.0791,0.0,0.0,0.0,0.0,0.0,0.0,0.0,0.0,2.9791,3.0145,3.0834,3.0906,3.1183,3.1888,3.1927,3.2255,3.2984,3.3131,3.3141,3.317,3.3853,3.434,3.4352,3.4955,3.5385,3.5365,3.5385,3.5385,3.5385,3.5391,3.5438,3.5531,3.556,3.5585,3.559,3.5789,3.6676,3.8067,3.9102,3.9962,4.0682,4.0849,4.0869,4.0874,4.0874,4.0893,4.0903,4.0878,4.0891,4.0891,4.0948,4.098,4.1003,4.0988,4.1505,4.2966,4.3546,4.4209,3.8357,3.8278,3.7419,3.7066,3.6988,3.6129,3.5761,3.5741,3.5761,3.5762,3.5742,3.5584,3.5504,3.55,3.55,3.5513,3.5498,3.5498,3.5561,3.5666,3.566,3.5764,3.5892,3.5889,3.5875,3.5834,3.5819,3.5818,3.5821,3.576,3.5727,3.5708,3.5722,3.5718,3.5703,0.0,0.0,0.0,3.3394,3.2997,3.305,3.2921,3.282,3.282,3.2143,0.0,3.1735,3.1093,3.0713,3.0728,3.0728,0.0,0.0,0.0,0.0,0.0,0.0,0.0,0.0,0.0,0.0,0.0,3.1858,3.1864,3.1424,3.1887,3.2301,3.2463,3.2478,3.2537,3.2685,3.2704,3.2756,3.2929,3.35,3.3877,3.3909,3.4592,3.5088,3.51,3.5215,3.533,3.5311,3.5319,3.5319,3.5311,3.5311,3.5326,3.5348,3.5398,3.5445,3.5566,3.6614,3.7926,3.9013,3.985,4.0436,4.072,4.0732,4.0736,4.0818,4.0804,4.0815,4.0812,4.0809,4.0814,4.0833,4.0873,4.0908,4.0927,4.0927,4.1254,4.2334,4.3127,4.3929,3.9203,0.0,3.8262,3.7888,0.0,3.7432,3.6989,3.6568,3.6164,3.6008,3.6003,3.6019,3.6016,3.6009,3.6007,3.598,3.5958,3.5958,3.5921,3.5888,3.5888,3.5892,3.5864,3.5853,3.5838,3.5795,3.5773,3.5732,3.5747,3.5684,3.5644,3.5648,3.5657,3.5646,3.5646,3.5651,3.5475,3.51,3.4262,3.3859,3.3867,3.3464,3.325,3.3235,0.0,0.0,0.0,0.0,0.0,0.0,0.0,0.0,0.0,0.0,0.0,3.1867,3.1874,3.1844,3.1792,3.2212,3.2378,3.2313,3.2987,3.3121,3.2352,3.2641,3.2832,3.2799,3.2804,3.2962,3.3358,3.3384,3.3556,3.3997,3.4362,3.4596,3.4626,3.4947,3.519,3.519,3.519,3.5209,3.519,3.5209,3.5209,3.519,3.5209,3.5209,3.5198,3.5281,3.5477,3.5979,3.7115,3.8303,3.9165,4.0015,4.0564,4.0612,4.066,4.0648,4.0701,4.0707,4.0694,4.0713,4.0745,4.0757,4.0763,4.0812,4.084,4.0846,4.0848,4.0956,4.1509,4.2259,4.3167,4.0024,3.9938,3.9097,3.8718,3.8707,3.8546,3.8078,3.7357,0.0,0.0,0.0,3.5976,3.5988,3.5977,3.5975,3.5946,3.5883,3.588,3.5885,3.5891,3.5891,3.5857,3.5792,3.5771,3.5773,3.577,3.5704,3.5679,3.5692,3.5607,3.5599,3.5589,3.5578,3.5585,3.556,3.556,3.5595,3.562,3.501,3.4691,3.4672,3.3998,3.3611,3.3611,3.3475,3.3398,3.3379,3.2546,3.2104,3.209,3.1426,3.1349,3.2042,3.2096,3.2387,3.302,3.3077,3.3059,3.2997,3.31,3.3205,3.329,3.38,3.3807,3.3072,3.313,3.3177,3.3123,3.3115,3.3401,3.4042,3.4119,3.4394,3.5108,3.5132,3.5088,3.5088,3.5091,3.5084,3.5075,3.5075,3.5075,3.5084,3.5084,3.5084,3.5092,3.511,3.5092,3.511,3.519,3.5546,3.6377,3.711,3.7961,3.8991,3.9668,4.0249,4.0496,4.055,4.0573,4.0571,4.0559,4.0566,4.0574,4.0621,4.068,4.068,4.0726,4.077,4.0751,4.0756,4.0759,4.0834,4.1373,4.2204,4.0896,4.0827,3.9986,3.9589,3.9477,3.8721,3.8335,3.8114,3.6653,3.5984,3.5914,3.5914,3.5921,3.5917,3.5917,3.5927,3.5889,3.5889,3.5868,0.0,3.5822,3.5782,3.5722,3.5698,3.5704,3.5698,3.5653,3.5607,3.5618,3.5608,3.5572,3.5528,3.5522,3.5483,3.5438,3.5431,3.5425,3.5445,3.5437,3.544,3.5444,3.5334,3.5276,3.5231,3.4522,3.4149,3.4119,3.3313,3.2879,3.2924,3.2827,3.2798,3.283,3.2844,3.2894,3.3022,3.3029,3.2999,3.2942,3.3484,3.4128,3.4727,3.4878,3.4594,3.3846,3.4401,3.4785,3.4748,3.4663,3.4805,3.492,3.4892,3.493,3.5091,3.5082,3.5101,3.5073,3.5057,3.503,3.5011,3.4955,3.4964,3.5001,3.502,3.502,3.5075,3.5066,3.5084,3.5084,3.5107,3.5492,3.6197,3.6561,3.7368,3.8629,3.9161,3.9542,4.0317,4.0326,4.0246,4.0218,4.0303,4.0338,4.0466,4.0515,4.0595,4.0603,4.06,4.0628,4.0635,4.0648,4.0649,4.0719,4.0905,4.1282,4.1042,4.0997,4.0623,4.0445,4.034,3.9473,3.9093,3.8992,3.7835,3.7027,3.6573,3.6553,3.6313,3.5915,3.5895,3.5875,3.5846,3.5846,3.5803,3.576,3.5741,3.5742,3.5703,3.5669,3.5634,3.564,3.5575,3.554,3.556,3.5502,3.5449,3.5395,3.5376,3.5388,3.5348,3.5348,3.5348,3.5355,3.5443,3.5496,3.5489,3.5489,3.5509,3.5489,3.5085,3.4905,3.4899,3.4083,3.3665,3.3697,3.324,3.3189,3.3621,3.3621,3.3808,3.4263,3.4279,3.4218,3.4152,3.4423,3.4704,3.4962,3.4992,3.4822,3.4415,3.4746,3.4974,3.4946,3.4936,3.4936,3.4936,3.4936,3.4936,3.4955,3.4936,3.4936,3.4936,3.4917,3.4898,3.4898,3.4859,3.4859,3.4879,3.4898,3.4888,3.4936,3.4936,3.4936,3.4946,3.4955,3.5277,3.6138,3.6382,3.6905,3.8029,3.8267,3.8485,3.8885,3.8943,3.8959,3.9018,3.9323,3.9665,3.9775,4.0087,4.046,4.0487,4.0481,4.0492,4.0549,4.0583,4.0619,4.0648,4.0662,4.101,4.0992,4.0988,4.0988,4.0984,4.0913,4.0252,3.9975,3.9874,3.9213,3.8455,3.7677,3.7296,3.6755,3.6165,3.5951,3.5819,3.5782,3.5782,3.5736,3.5674,3.5669,3.5693,3.5662,3.5621,3.5587,3.5571,3.5515,3.5489,3.546,3.5398,3.5335,3.527,3.5243,3.5235,3.5254,3.5254,3.5254,3.5262,3.533,3.5336,3.5371,3.5371,3.5371,3.539,3.5371,3.5371,3.5352,3.4787,3.4447,3.4415,3.3806,3.3761,3.4382,3.4379,3.4644,3.5231,3.5273,3.5209,3.5132,3.5082,3.5001,3.4889,3.4879,3.484,3.478,3.4801,3.484,3.4798,3.4798,3.4798,3.4798,3.4788,3.4778,3.4778,3.4749,3.4768,3.4758,3.4728,3.4737,3.4737,3.4727,3.4716,3.4737,3.4747,3.4778,3.4798,3.4788,3.4788,3.4788,3.4788,3.5171,3.5676,3.597,3.6321,3.7091,3.7309,3.7432,3.7593,3.7736,3.7868,3.7978,3.8397,3.8692,3.8814,3.9272,3.9721,3.9978,4.0079,4.0186,4.0361,4.05,4.0539,4.0579,4.0593,4.0815,4.0984,4.0991,4.0987,4.096,4.0898,4.0801,4.0713,4.0654,4.0571,4.0125,3.918,3.7767,3.7025,3.6789,3.6072,3.5722,3.5713,3.5713,3.5664,3.5637,3.5612,3.5604,3.5596,3.559,3.5566,3.5508,3.5488,3.5427,3.5323,3.5297,3.5242,3.5122,3.5117,3.5127,3.5127,3.5119,3.5119,3.5119,3.5127,3.5193,3.5308,3.5323,3.5304,3.5323,3.5323,3.5323,3.5296,3.5239,3.52,3.52,3.5074,3.509,3.5166,3.5135,3.5087,3.513,3.5122,3.5053,3.4955,3.4908,3.4898,3.4819,3.4809,3.4778,3.4727,3.4666,3.4687,3.4758,3.4788,3.4778,3.4788,3.4737,3.4687,3.4687,3.4645,3.4623,3.4623,3.4561,3.4528,3.4547,3.4487,3.4473,3.4528,3.4572,3.4666,3.4747,3.4747,3.4739,3.4758,3.4758,3.4768,3.4942,3.5011,3.5429,3.6131,3.6388,3.6644,3.7309,3.7547,3.7414,3.7366,3.7509,3.7747,3.7793,3.7964,3.842,3.8895,3.9188,3.95,4.0062,4.0298,4.0438,4.05,4.0565,4.0728,4.0946,4.0917,4.0903,4.0868,4.0842,4.0842,4.0837,4.0768,4.0289,3.9871,3.9351,3.7783,3.7031,3.6925,3.6091,3.5669,3.5644,3.5644,3.5632,3.562,3.5614,3.5578,3.5534,3.5528,3.5494,3.5398,3.5376,3.5331,3.5239,3.5185,3.5162,3.51,3.5101,3.5092,3.5092,3.5092,3.5092,3.5092,3.5092,3.5147,3.5196,3.5185,3.5185,3.5204,3.5185,3.5185,3.5185,3.5185,3.5185,3.5185,3.5187,3.5198,3.5179,3.5143,3.5145,3.51,3.5028,3.4945,3.4849,3.484,3.481,3.4728,3.4697,3.4655,3.4591,3.4517,3.4487,3.4539,3.458,3.4561,3.4561,3.4539,3.4517,3.4517,3.4495,3.4484,3.4484,3.4443,3.445,3.4439,3.4409,3.4397,3.442,3.4461,3.4506,3.455,3.458,3.4572,3.4561,3.4561,3.455,3.4591,3.4658,3.4854,3.5302,3.538,3.5627,3.5846,3.594,3.594,3.6074,3.6483,3.6777,3.6815,3.7186,3.7566,3.8079,3.8231,3.8468,3.9259,4.0105,4.0351,4.0419,4.0463,4.0492,4.0853,4.0833,4.0585,4.0452,4.0427,4.0195,4.0093,4.0009,3.9467,3.9199,3.8996,3.7602,3.6969,3.6825,3.6056,3.5648,3.561,3.5623,3.5575,3.5566,3.5554,3.5528,3.5493,3.5453,3.5391,3.5304,3.5293,3.5237,3.5151,3.511,3.5066,3.5038,3.5038,3.5057,3.5038,3.5038,3.5038,3.5038,3.5057,3.5057,3.5057,3.5057,3.5066,3.5092,3.5092,3.5092,3.5092,3.5092,3.5092,3.5092,3.5047,3.5038,3.5038,3.5011,3.5011,3.5011,3.4927,3.484,3.4758,3.4728,3.4697,3.4634,3.458,3.4528,3.4454,3.4386,3.434,3.434,3.4305,3.4305,3.4386,3.4363,3.434,3.434,3.4316,3.4293,3.4293,3.4274,3.4281,3.4293,3.4269,3.4293,3.4305,3.4328,3.437,3.4374,3.4386,3.4386,3.4386,3.4397,3.4397,3.4397,3.4495,3.4583,3.4727,3.4855,3.4788,3.4788,3.4922,3.4961,3.4782,3.5456,3.5797,3.5912,3.6521,3.6939,3.711,3.7233,3.7509,3.8385,3.9213,3.9841,3.9848,4.0095,4.0313,4.0807,4.0652,3.9959,3.9614,3.9503,3.8792,3.8427,3.8475,3.8295,3.8264,3.8143,3.7268,3.685,3.6729,3.5929,3.5595,3.5604,3.5642,3.5643,3.5586,3.5604,3.5505,3.5405,3.533,3.5327,3.5428,3.5343,3.52,3.5048,3.5011,3.4964,3.4917,3.4927,3.4917,3.4927,3.4927,3.4917,3.4927,3.4927,3.4917,3.4917,3.4917,3.4983,3.5066,3.5092,3.5084,3.5084,3.5092,3.5092,3.5092,3.4983,3.4898,3.4889,3.4849,3.4829,3.4809,3.4798,3.4758,3.4634,3.4612,3.455,3.445,3.4427,3.4397,3.4386,3.4269,3.4209,3.4191,3.4111,3.4136,3.4316,3.4269,3.4228,3.4209,3.4099,3.4049,3.4036,3.4043,3.4023,3.4036,3.4061,3.4086,3.4105,3.4173,3.4221,3.4281,3.434,3.4363,3.4351,3.4363,3.4363,3.4363,3.4404,3.4443,3.4591,3.4666,3.4728,3.4747,3.4708,3.4749,3.4788,3.4836,3.4893,3.4941,3.5217,3.5587,3.6004,3.6395,3.6786,3.7481,3.8299,3.8804,3.9252,3.9776,4.0052,3.9644,3.9124,3.8833,3.8686,3.8636,3.8353,3.822,3.815,3.7552,3.7301,3.716,3.6426,3.6022,3.5952,3.5682,3.5528,3.5579,3.6061,3.6297,3.6313,3.6795,3.6999,3.6941,3.6873,3.6823,3.6724,3.6202,3.5577,3.5049,3.4955,3.4927,3.4917,3.4908,3.4908,3.4908,3.4908,3.4908,3.4908,3.4908,3.4917,3.4898,3.4917,3.4926,3.4907,3.4955,3.4974,3.4974,3.4946,3.4907,3.4907,3.4849,3.483,3.483,3.4809,3.4768,3.4676,3.4666,3.4623,3.4495,3.4473,3.4461,3.4416,3.4316,3.4269,3.4245,3.4148,3.4074,3.4061,3.4036,3.4061,3.4099,3.4099,3.4074,3.4061,3.4036,3.3998,3.3998,3.3998,3.3998,3.3998,3.3998,3.4011,3.4023,3.408,3.4086,3.4093,3.4136,3.4148,3.4148,3.4148,3.4161,3.4161,3.4204,3.424,3.4276,3.4439,3.4528,3.4539,3.4528,3.4539,3.455,3.4612,3.469,3.4701,3.4666,3.4783,3.5401,3.5801,3.6156,3.649,3.7307,3.8049,3.8727,3.9118,3.9566,3.8733,3.82,3.7891,3.7769,3.7738,3.7449,3.7346,3.7288,3.6684,3.6389,3.626,3.5791,3.5515,3.5456,3.5422,3.5614,3.5892,3.6421,3.6822,3.7118,3.7627,3.7836,3.7766,3.7733,3.7679,3.7528,3.6986,3.6207,3.5477,3.5344,3.5164,3.4908,3.4908,3.4879,3.4888,3.486,3.486,3.4879,3.4879,3.4859,3.4868,3.4868,3.4858,3.4809,3.4838,3.4858,3.4868,3.4838,3.4788,3.4788,3.4778,3.4747,3.4716,3.4676,3.4615,3.4539,3.4528,3.4495,3.4374,3.434,3.4316,3.4293,3.4209,3.4136,3.4124,3.4055,3.3972,3.3959,3.3921,3.3895,3.3895,3.39,3.3895,3.3947,3.3947,3.3934,3.3934,3.3934,3.3921,3.3895,3.3881,3.3881,3.3868,3.3881,3.3908,3.3921,3.3947,3.3972,3.3998,3.3998,3.3998,3.4011,3.4049,3.4086,3.4111,3.4209,3.434,3.4381,3.4404,3.4363,3.4374,3.4439,3.4461,3.4465,3.4498,3.4583,3.4814,3.5203,3.5463,3.5696,3.6275,3.7034,3.7702,3.836,3.8866,3.8142,3.7938,3.7243,3.6863,3.6723,3.6118,3.5694,3.5765,3.5701,3.5676,3.5622,3.55,3.5407,3.533,3.5315,3.5776,3.6523,3.6688,3.7167,3.7868,3.7961,3.7968,3.7934,3.7965,3.7823,3.7651,3.7459,3.6984,3.6234,3.6159,3.5788,3.5086,3.5001,3.4943,3.4798,3.4809,3.4798,3.4809,3.4809,3.4827,3.4788,3.4788,3.4788,3.4759,3.4737,3.4737,3.4807,3.4788,3.4778,3.4768,3.4737,3.4626,3.4528,3.4473,3.4409,3.4427,3.4416,3.437,3.4293,3.4233,3.4173,3.4124,3.4067,3.3992,3.3985,3.3934,3.3881,3.3855,3.3793,3.3712,3.3712,3.3671,3.3698,3.3842,3.3834,3.3788,3.3788,3.3807,3.378,3.3744,3.3726,3.3671,3.3647,3.3684,3.3734,3.3788,3.3847,3.39,3.3921,3.3934,3.3972,3.3972,3.3947,3.3921,3.3959,3.4011,3.4124,3.424,3.4264,3.4288,3.4281,3.4316,3.4323,3.4316,3.434,3.4416,3.4495,3.4828,3.4816,3.5077,3.5598,3.6064,3.6713,3.7389,3.8159,3.6413,3.6382,3.6131,3.5996,3.5939,3.565,3.5528,3.5515,3.5475,3.5434,3.5372,3.5364,3.535,3.53,3.5273,3.6007,3.7298,3.7323,3.7781,3.8618,3.9174,3.9357,3.9318,3.9288,3.8972,3.8417,3.8302,3.7825,3.7112,3.695,3.6503,3.5819,3.5658,3.5337,3.4845,3.4788,3.4788,3.4788,3.4788,3.4797,3.4747,3.4718,3.4697,3.4685,3.4645,3.4634,3.4594,3.4634,3.4634,3.4612,3.458,3.4536,3.445,3.4397,3.4374,3.4347,3.4281,3.4233,3.4161,3.4099,3.4061,3.4023,3.3978,3.3908,3.3855,3.3788,3.3734,3.3712,3.3661,3.3633,3.3633,3.3619,3.3615,3.3684,3.3689,3.3657,3.3671,3.3689,3.3643,3.3629,3.3629,3.3633,3.3605,3.3633,3.3629,3.3657,3.3703,3.373,3.3726,3.3753,3.3726,3.3726,3.3707,3.3748,3.3775,3.382,3.3887,3.3991,3.4049,3.4111,3.4148,3.4161,3.4148,3.4191,3.4216,3.4252,3.4335,3.4381,3.4416,3.445,3.4869,3.5327,3.5796,3.6479,3.7269,3.5591,3.556,3.5566,3.5547,3.5515,3.5463,3.5429,3.542,3.5391,3.5342,3.5293,3.527,3.5273,3.525,3.5193,3.6105,3.7545,3.7623,3.8233,3.9281,3.9871,4.0118,4.0057,3.9965,3.9675,3.9207,3.908,3.8623,3.7786,3.7718,3.73,3.6586,3.6454,3.6048,3.5302,3.5197,3.5103,3.4812,3.4727,3.4716,3.4666,3.4666,3.4615,3.4561,3.458,3.4528,3.4484,3.4506,3.4506,3.4473,3.445,3.4404,3.4328,3.4293,3.4257,3.4197,3.4148,3.4111,3.4061,3.4011,3.3947,3.3921,3.3873,3.3807,3.3739,3.3684,3.3629,3.3619,3.3577,3.3563,3.3563,3.3553,3.3538,3.352,3.3577,3.3591,3.3605,3.3605,3.3591,3.3577,3.3545,3.353,3.3534,3.3538,3.3534,3.3549,3.3563,3.3577,3.3591,3.3605,3.3605,3.3605,3.3615,3.3629,3.3619,3.3633,3.3633,3.3726,3.382,3.39,3.3947,3.3959,3.3959,3.4023,3.4067,3.4117,3.4191,3.4173,3.4197,3.4245,3.4305,3.4643,3.5142,3.5686,3.6445,3.5528,3.5496,3.5494,3.546,3.5405,3.5357,3.5315,3.53,3.53,3.5289,3.5269,3.5218,3.5204,3.5181,3.5119,3.5968,3.7281,3.7576,3.8297,3.9426,3.995,4.0026,3.9954,3.9848,3.9747,3.9698,3.9641,3.9278,3.8599,3.8561,3.8113,3.7341,3.7216,3.6818,3.61,3.5946,3.5476,3.4924,3.4669,3.4612,3.4583,3.4602,3.4569,3.4506,3.4495,3.4454,3.4397,3.4374,3.4374,3.4393,3.4335,3.4257,3.4197,3.4136,3.4086,3.4023,3.3998,3.3998,3.3972,3.3908,3.3842,3.3775,3.3739,3.3657,3.3619,3.3605,3.3591,3.3563,3.3538,3.3495,3.3481,3.3452,3.3408,3.3408,3.3509,3.3563,3.3591,3.3577,3.3534,3.3509,3.3477,3.3448,3.3375,3.3378,3.339,3.3433,3.3448,3.3462,3.3491,3.3473,3.3549,3.3549,3.3491,3.3477,3.3433,3.3433,3.3433,3.3444,3.3559,3.3657,3.3753,3.3793,3.3793,3.386,3.3913,3.3965,3.4004,3.3998,3.4023,3.4086,3.4148,3.4209,3.4511,3.5055,3.5644,3.5367,3.5352,3.5345,3.533,3.5323,3.5315,3.527,3.5223,3.5234,3.5201,3.5162,3.5136,3.5119,3.512,3.5057,3.5609,3.653,3.7163,3.7869,3.8866,3.9566,3.9773,3.977,3.9747,3.9724,3.9724,3.9701,3.9602,3.9409,3.9303,3.8865,3.8042,3.8005,3.7591,3.6866,3.6254,3.5822,3.5484,3.4883,3.4599,3.4528,3.4517,3.4495,3.4439,3.4427,3.4374,3.4316,3.4233,3.4209,3.4245,3.4197,3.4124,3.4074,3.4036,3.4011,3.3985,3.3965,3.3913,3.386,3.3793,3.3726,3.3657,3.3629,3.3605,3.3534,3.3538,3.3491,3.3466,3.3437,3.3441,3.3422,3.3393,3.3364,3.3337,3.3393,3.3433,3.3452,3.3433,3.3422,3.3367,3.3352,3.3304,3.3226,3.3211,3.3211,3.3223,3.3223,3.3256,3.3283,3.3283,3.3331,3.3271,3.3226,3.3241,3.3226,3.3226,3.3226,3.3208,3.3283,3.3386,3.3516,3.3647,3.3661,3.3689,3.373,3.3766,3.3807,3.382,3.3887,3.3934,3.3998,3.4061,3.4086,3.4433,3.4946,3.5308,3.5308,3.527,3.5262,3.5254,3.5242,3.5201,3.5179,3.5151,3.5145,3.5111,3.5048,3.5011,3.5011,3.4936,3.5343,3.6156,3.6946,3.7745,3.8554,3.935,3.9689,3.9708,3.9696,3.9703,3.9703,3.9661,3.9656,3.965,3.9657,3.9332,3.8951,3.8845,3.8382,3.7589,3.7139,3.6459,3.5874,3.5274,3.4888,3.448,3.4443,3.4427,3.4363,3.4328,3.4269,3.4166,3.408,3.4086,3.4099,3.4074,3.4036,3.3978,3.3952,3.3908,3.3868,3.382,3.3753,3.3726,3.3689,3.3633,3.3577,3.3563,3.352,3.3481,3.3452,3.3437,3.3426,3.3364,3.3367,3.3334,3.3304,3.3259,3.3229,3.3241,3.3271,3.3271,3.3289,3.3259,3.3229,3.3214,3.3198,3.3119,3.3119,3.3119,3.3119,3.315,3.3135,3.315,3.3119,3.3104,3.3104,3.3086,3.3117,3.3132,3.3132,3.3132,3.3101,3.3135,3.3193,3.3283,3.3462,3.3491,3.3506,3.3553,3.3563,3.3619,3.3657,3.3712,3.378,3.3847,3.3881,3.3921,3.3965,3.4441,3.5285,3.5278,3.5226,3.5174,3.5185,3.5136,3.5101,3.5084,3.5084,3.5075,3.5039,3.4927,3.4898,3.4889,3.4859,3.5195,3.5883,3.6804,3.7819,3.8613,3.9305,3.9631,3.9637,3.965,3.9657,3.9657,3.9608,3.9596,3.9571,3.9564,3.9564,3.9421,3.9458,3.9114,3.839,3.8134,3.7342,3.6352,3.5979,3.5556,3.5065,3.4941,3.4943,3.4865,3.4773,3.4661,3.4517,3.4378,3.436,3.4255,3.4083,3.3934,3.3881,3.382,3.3766,3.3712,3.3675,3.3633,3.3591,3.3605,3.3563,3.3509,3.3481,3.3452,3.3393,3.3364,3.3349,3.3334,3.3304,3.3277,3.3262,3.3165,3.3117,3.3119,3.3086,3.3086,3.3086,3.3086,3.3119,3.3104,3.3104,3.3104,3.3086,3.3086,3.307,3.3042,3.3042,3.3042,3.3042,3.3024,3.3024,3.3039,3.3055,3.3055,3.307,3.307,3.3055,3.3039,3.3057,3.3088,3.3119,3.3226,3.3286,3.3331,3.336,3.3386,3.3444,3.3502,3.3563,3.3619,3.3684,3.3726,3.378,3.3807,3.4118,3.5153,3.5126,3.5127,3.5119,3.5138,3.5101,3.5066,3.503,3.4955,3.4965,3.4936,3.4859,3.4829,3.481,3.4798,3.4891,3.5224,3.6487,3.7875,3.9127,3.9332,3.9451,3.9489,3.9502,3.9546,3.9533,3.9482,3.9438,3.9438,3.9469,3.9457,3.9438,3.9451,3.935,3.9075,3.8452,3.8022,3.7492,3.6951,3.6485,3.6211,3.6068,3.6017,3.5972,3.5911,3.59,3.5874,3.5786,3.5711,3.5389,3.461,3.399,3.3863,3.3721,3.3629,3.3633,3.3605,3.3577,3.352,3.3524,3.3495,3.3422,3.3364,3.3319,3.3322,3.3211,3.318,3.318,3.3165,3.3168,3.3135,3.3119,3.3073,3.3026,3.3011,3.2995,3.2961,3.3057,3.3073,3.3042,3.3011,3.2995,3.2948,3.2948,3.2948,3.2948,3.2948,3.2948,3.2948,3.2914,3.2914,3.2914,3.2914,3.2914,3.2914,3.293,3.293,3.2945,3.2963,3.2995,3.3011,3.3042,3.3135,3.3147,3.3162,3.3223,3.3298,3.3375,3.3419,3.3477,3.352,3.3559,3.3615,3.3657,3.3753,3.5092,3.5092,3.5029,3.5011,3.5001,3.4983,3.4946,3.4898,3.4869,3.4859,3.4829,3.4778,3.4737,3.4697,3.4666,3.4623,3.4955,3.6248,3.7866,3.9081,3.9386,3.9386,3.936,3.9341,3.936,3.9431,3.9418,3.9405,3.9405,3.9405,3.9418,3.9405,3.9405,3.9354,3.9301,3.8809,3.8346,3.7896,3.7517,3.7119,3.6727,3.6631,3.6578,3.6509,3.6422,3.6319,3.6193,3.6139,3.608,3.5853,3.5236,3.4574,3.4158,3.381,3.3585,3.3549,3.3506,3.3462,3.3422,3.3411,3.3364,3.3271,3.3229,3.3229,3.3214,3.3117,3.3101,3.3086,3.3088,3.3057,3.3008,3.2993,3.2961,3.2963,3.2948,3.2916,3.2884,3.293,3.2993,3.2963,3.2948,3.2916,3.2868,3.287,3.2804,3.2786,3.277,3.2753,3.2753,3.2753,3.2737,3.2737,3.2753,3.2753,3.2753,3.277,3.2786,3.2836,3.287,3.29,3.2932,3.2979,3.3008,3.3024,3.3055,3.3086,3.318,3.3226,3.3271,3.3268,3.3313,3.3386,3.3459,3.3506,3.3577,3.5076,3.5048,3.4946,3.4889,3.487,3.482,3.4809,3.4798,3.4788,3.4778,3.4758,3.4697,3.4623,3.4561,3.4517,3.4525,3.5189,3.6124,3.774,3.9125,3.928,3.9266,3.9234,3.918,3.9166,3.9307,3.928,3.9293,3.9293,3.932,3.9266,3.9307,3.9307,3.9234,3.9142,3.9082,3.873,3.8155,3.8002,3.7715,3.7193,3.705,3.6998,3.6897,3.6835,3.6761,3.672,3.6608,3.644,3.6349,3.6181,3.5711,3.5106,3.4345,3.3829,3.3865,3.3791,3.3641,3.3545,3.3403,3.3229,3.3119,3.3104,3.3104,3.3104,3.3055,3.3039,3.3011,3.2963,3.29,3.2868,3.2834,3.2834,3.2834,3.2852,3.2836,3.2787,3.282,3.2836,3.2852,3.2802,3.2787,3.2771,3.2739,3.2672,3.2605,3.2588,3.2588,3.2589,3.2588,3.2622,3.2621,3.2672,3.2672,3.2672,3.2672,3.2688,3.2722,3.2756,3.2787,3.2836,3.2818,3.285,3.2963,3.2995,3.3026,3.3042,3.3104,3.3119,3.3086,3.3114,3.3238,3.3301,3.3349,3.3477,3.4907,3.4839,3.4829,3.4819,3.4819,3.4798,3.4788,3.4788,3.4737,3.4676,3.4634,3.458,3.4506,3.445,3.442,3.5103,3.6025,3.6719,3.7596,3.886,3.9054,3.9026,3.9026,3.8983,3.8968,3.895,3.8979,3.8979,3.8993,3.8964,3.9026,3.8979,3.8979,3.8964,3.8964,3.8935,3.8851,3.8563,3.8516,3.8368,3.8247,3.8136,3.8013,3.7888,3.7786,3.7791,3.7888,3.7899,3.7923,3.7853,3.7107,3.6662,3.63,3.565,3.5255,3.4932,3.4488,3.4189,3.4103,3.3584,3.3242,3.3104,3.3185,3.3136,3.3102,3.3071,3.3186,3.305,3.2949,3.2777,3.2673,3.2919,3.276,3.2709,3.2831,3.2797,3.2745,3.2762,3.2726,3.2657,3.2657,3.2655,3.2673,3.2657,3.2607,3.2556,3.2556,3.2557,3.2557,3.2556,3.2589,3.2606,3.2605,3.2605,3.2605,3.2606,3.2623,3.2606,3.2657,3.2673,3.2672,3.2655,3.2705,3.2802,3.29,3.2916,3.2948,3.2979,3.3011,3.3026,3.3055,3.3101,3.3165,3.325,3.361,3.4819,3.4788,3.4768,3.4728,3.4747,3.4666,3.4626,3.4634,3.4591,3.4528,3.4495,3.4443,3.4397,3.434,3.4305,3.5194,3.63,3.6631,3.7503,3.8644,3.8925,3.8881,3.8851,3.8807,3.8743,3.8713,3.8664,3.8728,3.8851,3.8848,3.8803,3.8792,3.8758,3.874,3.8725,3.8695,3.8695,3.868,3.8664,3.8634,3.8652,3.8578,3.8481,3.8433,3.8352,3.832,3.8236,3.8188,3.8104,3.7981,3.7625,3.7411,3.7196,3.6892,3.6335,3.5668,3.5166,3.49,3.4867,3.4456,3.43,3.4183,3.4079,3.4047,3.3996,3.3999,3.384,3.3842,3.3844,3.3792,3.3845,3.3704,3.3792,3.3792,3.3721,3.351,3.3281,3.3176,3.2913,3.2632,3.2593,3.2627,3.2574,3.2557,3.2541,3.2524,3.2489,3.2489,3.2507,3.2489,3.2472,3.2489,3.2489,3.2506,3.2523,3.2523,3.254,3.254,3.2539,3.2556,3.2573,3.2573,3.2622,3.2705,3.2753,3.2804,3.287,3.2918,3.2934,3.2932,3.2979,3.2993,3.3042,3.3201,3.3629,3.4768,3.4739,3.4687,3.4655,3.4645,3.4528,3.4484,3.4473,3.4439,3.4404,3.4374,3.4351,3.4316,3.4257,3.4389,3.5006,3.6403,3.6464,3.7376,3.856,3.8792,3.8743,3.8716,3.8655,3.8578,3.8496,3.8449,3.8496,3.8652,3.8698,3.8667,3.864,3.8572,3.8554,3.8572,3.8523,3.8476,3.8462,3.8449,3.8399,3.835,3.8334,3.832,3.8303,3.8239,3.8172,3.8087,3.8019,3.7985,3.7934,3.7845,3.781,3.781,3.7703,3.7095,3.6108,3.5785,3.5643,3.5556,3.522,3.4938,3.4817,3.5012,3.4978,3.4872,3.4641,3.4676,3.4835,3.4711,3.4622,3.4498,3.4693,3.4693,3.4675,3.4586,3.4552,3.4022,3.3687,3.3318,3.302,3.2773,3.2562,3.2493,3.237,3.2336,3.2336,3.2318,3.2319,3.2319,3.2319,3.2318,3.2353,3.2371,3.2405,3.2422,3.244,3.2457,3.2491,3.2473,3.249,3.2506,3.254,3.2574,3.2573,3.2622,3.269,3.2756,3.2805,3.2787,3.282,3.2834,3.2884,3.2934,3.3339,3.3856,3.4695,3.4623,3.455,3.4517,3.4517,3.445,3.4409,3.4416,3.4386,3.4381,3.4293,3.4245,3.4185,3.4124,3.4067,3.499,3.6012,3.6393,3.7158,3.8502,3.8559,3.8478,3.8446,3.843,3.8368,3.8305,3.8289,3.837,3.8433,3.843,3.843,3.8417,3.8401,3.8415,3.8382,3.835,3.8433,3.8417,3.8382,3.8302,3.817,3.8103,3.8054,3.8021,3.7969,3.7951,3.7916,3.7881,3.7864,3.7846,3.7757,3.7703,3.7631,3.7522,3.7393,3.6984,3.6612,3.6185,3.6096,3.5687,3.5297,3.5261,3.5155,3.496,3.5082,3.4991,3.488,3.4558,3.4625,3.4728,3.4817,3.4603,3.4514,3.4657,3.4869,3.4711,3.4394,3.4399,3.3994,3.3345,3.307,3.265,3.2387,3.2266,3.2144,3.2126,3.2143,3.2143,3.2161,3.2196,3.2196,3.2232,3.2249,3.2284,3.2301,3.2319,3.2354,3.2388,3.2388,3.2405,3.2422,3.2439,3.2439,3.2456,3.2524,3.2557,3.2607,3.264,3.2639,3.2743,3.2915,3.2878,3.2821,3.3388,3.4151,3.4528,3.4547,3.4491,3.445,3.4439,3.4363,3.434,3.4328,3.4257,3.4221,3.4185,3.4124,3.4036,3.3947,3.3895,3.4747,3.5907,3.6128,3.6976,3.8222,3.8385,3.8285,3.8236,3.8186,3.8138,3.8088,3.8072,3.8072,3.8139,3.8154,3.8171,3.8121,3.8122,3.8105,3.8121,3.8122,3.8122,3.8122,3.8105,3.807,3.8002,3.795,3.7916,3.7899,3.7828,3.7757,3.7721,3.7631,3.7594,3.7558,3.7485,3.7466,3.7428,3.7354,3.7298,3.7167,3.6901,3.6763,3.6804,3.6412,3.6143,3.6068,3.603,3.6098,3.5931,3.5782,3.5723,3.5769,3.573,3.5655,3.56,3.569,3.5707,3.5673,3.5404,3.5198,3.5059,3.4994,3.4753,3.4033,3.3368,3.3002,3.2586,3.2313,3.2175,3.2037,3.2037,3.2055,3.2108,3.2143,3.2143,3.2161,3.2161,3.2179,3.2179,3.2196,3.2196,3.2232,3.2232,3.2249,3.2284,3.2301,3.2301,3.2371,3.2457,3.2491,3.249,3.2593,3.2731,3.2854,3.3011,3.3187,3.3417,3.4002,3.4799,3.4416,3.445,3.4404,3.4374,3.4381,3.4305,3.4257,3.4233,3.4148,3.4099,3.4049,3.3985,3.3881,3.3775,3.3876,3.459,3.5954,3.5948,3.6916,3.7812,3.8238,3.8139,3.807,3.7966,3.7898,3.7828,3.7775,3.7757,3.7757,3.7775,3.781,3.7828,3.7898,3.7864,3.7846,3.7828,3.7846,3.7828,3.7775,3.7757,3.7757,3.7739,3.7739,3.7703,3.7649,3.7595,3.7503,3.7466,3.7353,3.7334,3.7279,3.7278,3.7239,3.7163,3.7105,3.6989,3.6862,3.6882,3.696,3.6892,3.7048,3.6968,3.6869,3.6544,3.6487,3.6602,3.6523,3.6271,3.6305,3.634,3.6502,3.6412,3.625,3.6215,3.6267,3.6032,3.5775,3.5561,3.5227,3.4576,3.3965,3.353,3.3068,3.2545,3.2237,3.198,3.1947,3.1965,3.1983,3.2001,3.2019,3.2019,3.2037,3.2055,3.2108,3.2108,3.209,3.2055,3.2055,3.2108,3.2161,3.2196,3.2214,3.2284,3.2476,3.2634,3.2827,3.2826,3.2839,3.3158,3.3458,3.3846,3.4217,3.4783,3.542,3.4305,3.4305,3.4305,3.4293,3.4293,3.4215,3.4173,3.4124,3.408,3.4049,3.3972,3.3868,3.3762,3.3698,3.3757,3.4444,3.5924,3.5792,3.6687,3.7544,3.8003,3.7916,3.7863,3.7775,3.7667,3.7613,3.7558,3.7466,3.7372,3.7411,3.7522,3.7667,3.7649,3.7649,3.7649,3.7613,3.7613,3.7594,3.7522,3.7466,3.7429,3.741,3.7371,3.7353,3.7334,3.7316,3.7316,3.7259,3.7239,3.722,3.7126,3.7068,3.7027,3.6948,3.6849,3.6748,3.6725,3.6708,3.6708,3.6748,3.6745,3.6684,3.6606,3.6468,3.636,3.6272,3.6187,3.6127,3.6187,3.6144,3.6122,3.6062,3.6148,3.6187,3.6229,3.6126,3.5937,3.5929,3.5578,3.5052,3.4548,3.4069,3.3584,3.3068,3.2462,3.2171,3.1743,3.1709,3.1746,3.1781,3.1838,3.1874,3.1893,3.1948,3.2037,3.2019,3.1946,3.1928,3.1928,3.2,3.209,3.2108,3.2334,3.2562,3.2807,3.2979,3.3222,3.3526,3.3705,3.3723,3.3987,3.4568,3.5063,3.5576,3.6178,3.4209,3.4185,3.4185,3.4173,3.4173,3.4148,3.4099,3.4018,3.3998,3.3908,3.3802,3.3712,3.3629,3.3577,3.3546,3.4014,3.5038,3.5507,3.6307,3.7016,3.7487,3.7667,3.7667,3.7576,3.7447,3.741,3.7353,3.7297,3.7203,3.7164,3.7106,3.7222,3.7337,3.7411,3.7428,3.7391,3.741,3.7354,3.7298,3.7204,3.7222,3.7145,3.7124,3.7124,3.7027,3.7007,3.6987,3.6946,3.6946,3.6926,3.6869,3.6829,3.6826,3.6745,3.6643,3.6502,3.6482,3.6419,3.6377,3.644,3.652,3.6356,3.6272,3.617,3.611,3.6084,3.6062,3.6019,3.5993,3.5949,3.6014,3.6014,3.6058,3.6036,3.5993,3.5971,3.5949,3.5927,3.5842,3.5287,3.4912,3.4525,3.4057,3.359,3.294,3.2334,3.1873,3.15,3.1538,3.1595,3.1653,3.1709,3.1727,3.1727,3.1801,3.18,3.1763,3.178,3.1816,3.1975,3.2152,3.2515,3.2723,3.2954,3.3287,3.3668,3.4034,3.4425,3.4519,3.4347,3.4788,3.5492,3.5972,3.6292,3.6664,3.4136,3.4074,3.4055,3.4074,3.4074,3.4074,3.4018,3.3959,3.3913,3.3788,3.3657,3.3591,3.3506,3.3466,3.3382,3.3722,3.4508,3.515,3.5872,3.6593,3.7184,3.745,3.7447,3.7353,3.722,3.7201,3.7124,3.7046,3.697,3.6989,3.6948,3.6928,3.6987,3.7085,3.7122,3.7105,3.7124,3.7085,3.7029,3.6989,3.6987,3.6948,3.6908,3.6888,3.6829,3.6826,3.6786,3.6745,3.6664,3.6643,3.6602,3.6561,3.6541,3.6499,3.6398,3.6297,3.6195,3.6148,3.6127,3.617,3.6293,3.6165,3.6019,3.5954,3.5888,3.5866,3.5795,3.5751,3.5773,3.5817,3.5817,3.5751,3.5728,3.5684,3.5684,3.5684,3.5684,3.5661,3.5706,3.5537,3.5193,3.4895,3.4585,3.4086,3.3245,3.2496,3.1779,3.1475,3.1426,3.1481,3.1538,3.1557,3.1557,3.1538,3.15,3.1591,3.1699,3.1768,3.1855,3.2078,3.2322,3.2754,3.3134,3.3328,3.3768,3.4345,3.4728,3.4964,3.4963,3.4855,3.5455,3.611,3.6287,3.6536,3.6663,3.4061,3.4011,3.3998,3.3998,3.4004,3.3998,3.3959,3.39,3.3834,3.3694,3.3591,3.3466,3.3393,3.3349,3.3196,3.3497,3.415,3.486,3.5578,3.6239,3.6947,3.7227,3.7239,3.7124,3.7007,3.6948,3.6869,3.6768,3.6687,3.6687,3.6664,3.6643,3.6664,3.6725,3.6722,3.6722,3.6705,3.6705,3.6705,3.6705,3.6684,3.6664,3.6643,3.6626,3.6606,3.6602,3.6561,3.652,3.644,3.6419,3.6314,3.6289,3.6268,3.6144,3.6079,3.6014,3.5997,3.5975,3.5993,3.5997,3.5993,3.5949,3.5817,3.5728,3.5622,3.5549,3.552,3.5498,3.5429,3.5383,3.536,3.5344,3.5406,3.5429,3.5452,3.5475,3.5475,3.5498,3.5503,3.5526,3.5429,3.523,3.4996,3.4549,3.3602,3.2735,3.1811,3.1463,3.1497,3.1327,3.1344,3.1327,3.1308,3.1327,3.1325,3.1506,3.1596,3.1718,3.1971,3.2307,3.2716,3.3216,3.3529,3.3741,3.4298,3.4943,3.5227,3.5437,3.5387,3.5399,3.5974,3.649,3.665,3.6725,3.6786,3.3998,3.3934,3.3881,3.3847,3.3802,3.3842,3.3815,3.3753,3.3661,3.3567,3.3466,3.3382,3.3274,3.3183,3.3075,3.3158,3.352,3.4655,3.5368,3.5545,3.6564,3.6983,3.7046,3.6908,3.6806,3.6766,3.6643,3.6485,3.6444,3.6419,3.6314,3.6268,3.6272,3.6356,3.6482,3.6502,3.6444,3.6423,3.6398,3.6374,3.6374,3.6293,3.6251,3.6233,3.6251,3.6251,3.6233,3.6191,3.617,3.6148,3.6058,3.6036,3.6031,3.5927,3.5839,3.5734,3.5689,3.556,3.5549,3.5543,3.5588,3.5611,3.5588,3.5498,3.5406,3.5383,3.5337,3.5291,3.5285,3.5285,3.5331,3.5314,3.5337,3.5354,3.5354,3.5354,3.5377,3.5354,3.536,3.536,3.5308,3.5285,3.5111,3.4745,3.3929,3.3322,3.2513,3.1974,3.1877,3.1321,3.1086,3.1052,3.1052,3.1072,3.1196,3.1661,3.1901,3.2016,3.236,3.277,3.322,3.3715,3.4007,3.4274,3.4916,3.5521,3.5533,3.5589,3.5814,3.6053,3.6241,3.6461,3.6564,3.6623,3.6705,3.3881,3.3834,3.3766,3.3712,3.3671,3.3712,3.3671,3.3591,3.3509,3.339,3.3286,3.3214,3.3137,3.3026,3.2932,3.2802,3.2948,3.4217,3.4853,3.5064,3.6268,3.6751,3.6826,3.6667,3.6564,3.6541,3.6398,3.6276,3.6195,3.6148,3.6079,3.5971,3.5844,3.591,3.6062,3.6088,3.6195,3.617,3.6144,3.6075,3.6036,3.5971,3.5866,3.5866,3.5866,3.5849,3.5827,3.5805,3.58,3.58,3.5778,3.5773,3.5745,3.5684,3.5594,3.5503,3.5418,3.535,3.5337,3.5268,3.5337,3.5337,3.5291,3.5291,3.5245,3.5222,3.5198,3.5175,3.5175,3.5175,3.5152,3.5158,3.5158,3.5152,3.5152,3.5152,3.5152,3.5128,3.5128,3.5152,3.5152,3.5152,3.5095,3.4745,3.4203,3.3736,3.325,3.279,3.2348,3.178,3.1383,3.1399,3.1504,3.1729,3.1934,3.2211,3.2358,3.2345,3.2792,3.3333,3.3745,3.4229,3.4499,3.4757,3.5121,3.5419,3.5532,3.565,3.5683,3.5732,3.5832,3.6084,3.6398,3.6461,3.6499,3.3753,3.3703,3.3633,3.3573,3.3591,3.3577,3.3509,3.3393,3.3396,3.3271,3.3086,3.3042,3.2963,3.2884,3.2821,3.2706,3.2908,3.404,3.4478,3.5016,3.6033,3.6444,3.6585,3.6423,3.6318,3.6233,3.6127,3.598,3.5975,3.5888,3.5822,3.5751,3.5571,3.5554,3.5605,3.5717,3.5866,3.5844,3.5817,3.5773,3.5728,3.5684,3.56,3.56,3.56,3.56,3.5577,3.5532,3.547,3.5441,3.5389,3.536,3.5314,3.5291,3.5291,3.5268,3.5245,3.5198,3.5158,3.5065,3.5041,3.5041,3.5152,3.5152,3.5128,3.5041,3.4994,3.4923,3.4899,3.4899,3.4899,3.4899,3.4899,3.4899,3.4899,3.4899,3.4875,3.4875,3.4875,3.4899,3.4883,3.4859,3.4804,3.4526,3.4378,3.4197,3.3799,3.3571,3.3106,3.2574,3.2264,3.2247,3.2407,3.265,3.2784,3.2707,3.2813,3.2796,3.3478,3.4027,3.4391,3.4547,3.4651,3.4818,3.5088,3.5291,3.5383,3.5389,3.5389,3.5458,3.5577,3.5734,3.6041,3.6084,3.6105,3.3661,3.3633,3.3491,3.3433,3.3437,3.3316,3.3208,3.3196,3.3178,3.3104,3.2963,3.2932,3.2836,3.2688,3.2607,3.2541,3.302,3.3704,3.4277,3.4965,3.5711,3.6184,3.6322,3.6191,3.6062,3.5932,3.58,3.5672,3.556,3.5515,3.5503,3.5429,3.5321,3.5251,3.5228,3.5297,3.5412,3.5481,3.5435,3.5435,3.5412,3.5367,3.5344,3.5344,3.5327,3.5344,3.5321,3.5297,3.5274,3.5291,3.5291,3.5291,3.5308,3.5222,3.5128,3.4859,3.4787,3.4732,3.4715,3.4691,3.4691,3.4715,3.4739,3.478,3.478,3.4804,3.4763,3.4715,3.4667,3.4691,3.4691,3.4691,3.4691,3.4691,3.4691,3.4691,3.4667,3.4691,3.4691,3.4667,3.4667,3.4618,3.4546,3.4488,3.4374,3.4382,3.4292,3.4069,3.3811,3.3294,3.3042,3.3032,3.2999,3.3137,3.302,3.2895,3.311,3.3373,3.3954,3.4381,3.444,3.4556,3.4673,3.4787,3.4899,3.5058,3.5175,3.5152,3.5128,3.5245,3.5367,3.5503,3.5639,3.5745,3.5919,3.3506,3.3491,3.3364,3.3259,3.3198,3.3073,3.2977,3.2912,3.3011,3.293,3.2786,3.277,3.269,3.2523,3.2473,3.2405,3.2389,3.3222,3.3894,3.4493,3.5297,3.5778,3.5925,3.5932,3.5778,3.5644,3.5509,3.5418,3.5241,3.5118,3.5065,3.5065,3.5018,3.4947,3.4899,3.4875,3.4883,3.497,3.5018,3.5041,3.5041,3.5018,3.497,3.4994,3.4994,3.4994,3.5011,3.5011,3.5011,3.5011,3.4994,3.497,3.4987,3.4899,3.4851,3.4643,3.4594,3.4546,3.4546,3.4546,3.4497,3.4497,3.4472,3.4521,3.4562,3.4611,3.457,3.4546,3.4521,3.4497,3.448,3.448,3.448,3.448,3.4497,3.448,3.4497,3.448,3.4497,3.4497,3.4472,3.4448,3.4399,3.4358,3.4333,3.4267,3.4251,3.4178,3.408,3.3866,3.3724,3.3698,3.3559,3.3487,3.3327,3.3286,3.3563,3.3824,3.4151,3.4446,3.448,3.4521,3.457,3.4594,3.4594,3.4715,3.4875,3.4851,3.4851,3.5044,3.5207,3.5314,3.5439,3.5524,3.5733,3.3364,3.3364,3.3162,3.3026,3.29,3.2866,3.2771,3.2623,3.2753,3.2755,3.2606,3.2571,3.2506,3.2371,3.2319,3.2214,3.2298,3.2827,3.3507,3.3982,3.4692,3.5262,3.5642,3.5639,3.5464,3.5373,3.5258,3.5095,3.497,3.4828,3.4691,3.4643,3.457,3.4497,3.4472,3.4448,3.4448,3.4448,3.4546,3.4594,3.4667,3.4594,3.4497,3.4497,3.4521,3.4521,3.4513,3.4489,3.4472,3.4472,3.4472,3.4513,3.4513,3.4472,3.4448,3.4423,3.4349,3.4325,3.43,3.4284,3.4325,3.4349,3.4423,3.4316,3.4291,3.4399,3.4448,3.4349,3.4284,3.425,3.4226,3.4226,3.4226,3.4226,3.4226,3.4226,3.4226,3.4226,3.4209,3.4201,3.4176,3.4151,3.4151,3.4084,3.4075,3.4075,3.4075,3.4075,3.4077,3.4055,3.4105,3.4088,3.3958,3.3819,3.3917,3.3925,3.4137,3.4382,3.4407,3.4407,3.4333,3.4382,3.4448,3.4423,3.4382,3.4448,3.4521,3.4562,3.4693,3.4955,3.5087,3.5144,3.5268,3.5568,3.5861,3.318,3.3147,3.3026,3.2852,3.2688,3.2672,3.259,3.2457,3.2491,3.2473,3.2439,3.244,3.2336,3.2161,3.209,3.1983,3.2028,3.2361,3.3102,3.37,3.4266,3.4827,3.5335,3.5304,3.5142,3.5024,3.4899,3.4756,3.4546,3.4423,3.4349,3.425,3.4176,3.4151,3.405,3.405,3.4025,3.3949,3.4,3.4201,3.4399,3.4472,3.4472,3.4374,3.4325,3.4275,3.4226,3.4201,3.4201,3.4201,3.4201,3.4201,3.4201,3.4101,3.405,3.4025,3.4,3.3975,3.3975,3.3984,3.4,3.3949,3.3924,3.3915,3.3965,3.4201,3.4275,3.4109,3.405,3.4,3.3975,3.3965,3.3965,3.3965,3.3965,3.3965,3.3965,3.3924,3.3924,3.3924,3.3915,3.3873,3.3873,3.3848,3.3797,3.3797,3.3813,3.3813,3.3822,3.3843,3.3953,3.3996,3.4078,3.4062,3.4201,3.4201,3.4201,3.4201,3.4176,3.4184,3.4184,3.4184,3.4201,3.4184,3.4184,3.4226,3.4275,3.4366,3.4537,3.4839,3.5288,3.5466,3.5892,3.6253,3.6421,3.2995,3.2948,3.2818,3.2673,3.2523,3.2506,3.2422,3.2301,3.2249,3.2214,3.2143,3.2196,3.2161,3.1983,3.1893,3.1728,3.1665,3.1893,3.2604,3.3309,3.3746,3.4365,3.4708,3.5001,3.4859,3.4732,3.4521,3.4325,3.4126,3.4025,3.3949,3.3864,3.3822,3.3771,3.3642,3.3617,3.3607,3.3529,3.3529,3.371,3.4025,3.405,3.4101,3.405,3.4025,3.3975,3.3933,3.3924,3.3924,3.3924,3.3924,3.3908,3.3899,3.3873,3.3822,3.3797,3.3771,3.3694,3.3668,3.3668,3.3642,3.3642,3.3668,3.3761,3.3658,3.3873,3.3924,3.3822,3.3848,3.3838,3.3822,3.3797,3.3797,3.3797,3.3797,3.3797,3.3797,3.3797,3.3797,3.3797,3.3771,3.3771,3.3771,3.3771,3.372,3.3736,3.371,3.3658,3.3642,3.3591,3.372,3.3822,3.3848,3.3915,3.3924,3.3924,3.3924,3.3924,3.3949,3.3949,3.3933,3.3908,3.3908,3.3933,3.3975,3.3949,3.4016,3.4221,3.4487,3.4797,3.536,3.5882,3.6366,3.6869,3.7047,3.2804,3.2724,3.2623,3.2489,3.2371,3.2354,3.2267,3.2073,3.2055,3.1964,3.1818,3.1929,3.1874,3.1818,3.1707,3.1521,3.1402,3.1402,3.2073,3.2772,3.2989,3.3831,3.4414,3.4667,3.4521,3.4325,3.4126,3.3975,3.3813,3.3684,3.3555,3.345,3.3398,3.3372,3.3266,3.3256,3.3256,3.3256,3.324,3.3214,3.3346,3.3503,3.3607,3.3658,3.3633,3.3633,3.3591,3.3607,3.3607,3.3581,3.3539,3.3555,3.3539,3.3529,3.3513,3.3487,3.3477,3.3477,3.3513,3.3503,3.3529,3.3539,3.3607,3.3555,3.345,3.345,3.3487,3.3513,3.3555,3.3581,3.3565,3.3565,3.3565,3.3539,3.3565,3.3565,3.3565,3.3565,3.3565,3.3565,3.3565,3.3565,3.3565,3.3565,3.3591,3.3607,3.3607,3.3591,3.3539,3.3424,3.3398,3.345,3.3477,3.3529,3.3658,3.3694,3.3736,3.3771,3.3822,3.3745,3.372,3.3771,3.3797,3.3745,3.3745,3.3771,3.3986,3.4246,3.4504,3.4878,3.5685,3.6389,3.6892,3.7362,3.7588,3.259,3.2474,3.2457,3.2319,3.2179,3.2144,3.2054,3.1856,3.1838,3.1762,3.1576,3.1483,3.1483,3.1538,3.1385,3.123,3.1134,3.1029,3.1729,3.2613,3.2674,3.3449,3.4072,3.43,3.4075,3.3899,3.3736,3.3555,3.3408,3.3266,3.315,3.3016,3.3032,3.3005,3.2978,3.2951,3.2908,3.2908,3.2908,3.2881,3.2861,3.3038,3.324,3.3282,3.3203,3.315,3.3112,3.3058,3.3058,3.3058,3.3069,3.3069,3.3096,3.3096,3.3081,3.3107,3.3123,3.3096,3.3107,3.3107,3.3091,3.3107,3.3123,3.3069,3.3016,3.2989,3.3043,3.3,3.3069,3.3123,3.3107,3.3081,3.3081,3.3096,3.3069,3.3069,3.3069,3.3069,3.3069,3.3069,3.3069,3.3069,3.3096,3.3096,3.3096,3.3096,3.3096,3.3081,3.3107,3.3096,3.3096,3.3123,3.3123,3.3388,3.3607,3.3581,3.3607,3.3642,3.3642,3.3565,3.3591,3.3694,3.3694,3.3617,3.3642,3.3668,3.393,3.4245,3.4846,3.5325,3.619,3.6918,3.7402,3.7674,3.778]}]]